[[{"header":{"parameterUnit":"m.s-1","parameterCategory":1,"la1":31.0,"la2":29.5877,"lo1":-88.7671,"lo2":-86.6584,"dy":0.0162,"dx":0.0185,"nx":115,"ny":88,"refTime":"2026-03-06T12:00:00:Z","depth":0,"parameterNumber":2,"parameterNumberName":"U-component_of_WINDS"},"data":[0.0,0.0,0.0,0.0,0.0,0.0,0.0,0.0,0.0,0.0,0.0,0.0,0.0,0.0,0.0,0.0,0.0,0.0,0.0,0.0,0.0,0.0,0.0,0.0,0.0,0.0,0.0,0.0,0.0,0.0,0.0,0.0,0.0,0.0,0.0,0.0,0.0,0.0,0.0,0.0,0.0,0.0,0.0,0.0,0.0,0.0,0.0,0.0,0.0,0.0,0.0,0.0,0.0,0.0,0.0,0.0,0.0,0.0,0.0,0.0,0.0,0.0,0.0,0.0,0.0,0.0,0.0,0.0,0.0,0.0,0.0,0.0,0.0,0.0,0.0,0.0,0.0,0.0,0.0,0.0,0.0,0.0,0.0,0.0,0.0,0.0,0.0,0.0,0.0,0.0,0.0,0.0,0.0,0.0,0.0,0.0,0.0,0.0,0.0,0.0,0.0,0.0,0.0,0.0,0.0,0.0,0.0,0.0,0.0,0.0,0.0,0.0,0.0,0.0,0.0,0.0,0.0,0.0,0.0,0.0,0.0,0.0,0.0,0.0,0.0,0.0,0.0,0.0,0.0,0.0,0.0,0.0,0.0,0.0,0.0,0.0,0.0,0.0,0.0,0.0,0.0,0.0,0.0,0.0,0.0,0.0,0.0,0.0,0.0,0.0,0.0,0.0,0.0,0.0,0.0,0.0,0.0,0.0,0.0,0.0,0.0,0.0,0.0,0.0,0.0,0.0,0.0,0.0,0.0,0.0,0.0,0.0,0.0,0.0,0.0,0.0,0.0,0.0,0.0,0.0,0.0,0.0,0.0,0.0,0.0,0.0,0.0,0.0,0.0,0.0,0.0,0.0,0.0,0.0,0.0,0.0,0.0,0.0,0.0,0.0,0.0,0.0,0.0,0.0,0.0,0.0,0.0,0.0,0.0,0.0,0.0,0.0,0.0,0.0,0.0,0.0,0.0,0.0,0.0,0.0,0.0,0.0,0.0,0.0,0.0,0.0,0.0,0.0,0.0,0.0,0.0,0.0,0.0,0.0,0.0,0.0,0.0,0.0,0.0,0.0,0.0,0.0,0.0,0.0,0.0,0.0,0.0,0.0,0.0,0.0,0.0,0.0,0.0,0.0,0.0,0.0,0.0,0.0,0.0,0.0,0.0,0.0,0.0,0.0,0.0,0.0,0.0,0.0,0.0,0.0,0.0,0.0,0.0,0.0,0.0,0.0,0.0,0.0,0.0,0.0,0.0,0.0,0.0,0.0,0.0,0.0,0.0,0.0,0.0,0.0,0.0,0.0,0.0,0.0,0.0,0.0,0.0,0.0,0.0,0.0,0.0,0.0,0.0,0.0,0.0,0.0,0.0,0.0,0.0,0.0,0.0,0.0,0.0,0.0,0.0,0.0,0.0,0.0,0.0,0.0,0.0,0.0,0.0,0.0,0.0,0.0,0.0,0.0,0.0,0.0,0.0,0.0,0.0,0.0,0.0,0.0,0.0,0.0,0.0,0.0,0.0,0.0,0.0,0.0,0.0,0.0,0.0,0.0,0.0,0.0,0.0,0.0,0.0,0.0,0.0,0.0,0.0,0.0,0.0,0.0,0.0,0.0,0.0,0.0,0.0,0.0,0.0,0.0,0.0,0.0,0.0,0.0,0.0,0.0,0.0,0.0,0.0,0.0,0.0,0.0,0.0,0.0,0.0,0.0,0.0,0.0,0.0,0.0,0.0,0.0,0.0,0.0,0.0,0.0,0.0,0.0,0.0,0.0,0.0,0.0,0.0,0.0,0.0,0.0,0.0,0.0,0.0,0.0,0.0,0.0,0.0,0.0,0.0,0.0,0.0,0.0,0.0,0.0,0.0,0.0,0.0,0.0,0.0,0.0,0.0,0.0,0.0,0.0,0.0,0.0,0.0,0.0,0.0,0.0,0.0,0.0,0.0,0.0,0.0,0.0,0.0,0.0,0.0,0.0,0.0,0.0,0.0,0.0,0.0,0.0,0.0,0.0,0.0,0.0,0.0,0.0,0.0,0.0,0.0,0.0,0.0,0.0,0.0,0.0,0.0,0.0,0.0,0.0,0.0,0.0,0.0,0.0,0.0,0.0,0.0,0.0,0.0,0.0,0.0,0.0,0.0,0.0,0.0,0.0,0.0,0.0,0.0,0.0,0.0,0.0,0.0,0.0,0.0,0.0,0.0,0.0,0.0,0.0,0.0,0.0,0.0,0.0,0.0,0.0,0.0,0.0,0.0,0.0,0.0,0.0,0.0,0.0,0.0,0.0,0.0,0.0,0.0,0.0,0.0,0.0,0.0,0.0,0.0,0.0,0.0,0.0,0.0,0.0,0.0,0.0,0.0,0.0,0.0,0.0,0.0,0.0,0.0,0.0,0.0,0.0,0.0,0.0,0.0,0.0,0.0,0.0,0.0,0.0,0.0,0.0,0.0,0.0,0.0,0.0,0.0,0.0,0.0,0.0,0.0,0.0,0.0,0.0,0.0,0.0,0.0,0.0,0.0,0.0,0.0,0.0,0.0,0.0,0.0,0.0,0.0,0.0,0.0,0.0,0.0,0.0,0.0,0.0,0.0,0.0,0.0,0.0,0.0,0.0,0.0,0.0,0.0,0.0,0.0,0.0,0.0,0.0,0.0,0.0,0.0,0.0,0.0,0.0,0.0,0.0,0.0,0.0,0.0,0.0,0.0,0.0,0.0,0.0,0.0,0.0,0.0,0.0,0.0,0.0,0.0,0.0,0.0,0.0,0.0,0.0,0.0,0.0,0.0,0.0,0.0,0.0,0.0,0.0,0.0,0.0,0.0,0.0,0.0,0.0,0.0,0.0,0.0,0.0,0.0,0.0,0.0,0.0,0.0,0.0,0.0,0.0,0.0,0.0,0.0,0.0,0.0,0.0,0.0,0.0,0.0,0.0,0.0,0.0,0.0,0.0,0.0,0.0,0.0,0.0,0.0,0.0,0.0,0.0,0.0,0.0,0.0,0.0,0.0,0.0,0.0,0.0,0.0,0.0,0.0,0.0,0.0,0.0,0.0,0.0,0.0,0.0,0.0,0.0,0.0,0.0,0.0,0.0,0.0,0.0,0.0,0.0,0.0,0.0,0.0,0.0,0.0,0.0,0.0,0.0,0.0,0.0,0.0,0.0,0.0,0.0,0.0,0.0,0.0,0.0,0.0,0.0,0.0,0.0,0.0,0.0,0.0,0.0,0.0,0.0,0.0,0.0,0.0,0.0,0.0,0.0,0.0,0.0,0.0,0.0,0.0,0.0,0.0,0.0,0.0,0.0,0.0,0.0,0.0,0.0,0.0,0.0,0.0,0.0,0.0,0.0,0.0,0.0,0.0,0.0,0.0,0.0,0.0,0.0,0.0,0.0,0.0,0.0,0.0,0.0,0.0,0.0,0.0,0.0,0.0,0.0,0.0,0.0,0.0,0.0,0.0,0.0,0.0,0.0,0.0,0.0,0.0,0.0,0.0,0.0,0.0,0.0,0.0,0.0,0.0,0.0,0.0,0.0,0.0,0.0,0.0,0.0,0.0,0.0,0.0,0.0,0.0,0.0,0.0,0.0,0.0,0.0,0.0,0.0,0.0,0.0,0.0,0.0,0.0,0.0,0.0,0.0,0.0,0.0,0.0,0.0,0.0,0.0,0.0,0.0,0.0,0.0,0.0,0.0,0.0,0.0,0.0,0.0,0.0,0.0,0.0,0.0,0.0,0.0,0.0,0.0,0.0,0.0,0.0,0.0,0.0,0.0,0.0,0.0,0.0,0.0,0.0,0.0,0.0,0.0,0.0,0.0,0.0,0.0,0.0,0.0,0.0,0.0,0.0,0.0,0.0,0.0,0.0,0.0,0.0,0.0,0.0,0.0,0.0,0.0,0.0,0.0,0.0,0.0,0.0,0.0,0.0,0.0,0.0,0.0,0.0,0.0,0.0,0.0,0.0,0.0,0.0,0.0,0.0,0.0,0.0,0.0,0.0,0.0,0.0,0.0,0.0,0.0,0.0,0.0,0.0,0.0,0.0,0.0,0.0,0.0,0.0,0.0,0.0,0.0,0.0,0.0,0.0,0.0,0.0,0.0,0.0,0.0,0.0,0.0,0.0,0.0,0.0,0.0,0.0,0.0,0.0,0.0,0.0,0.0,0.0,0.0,0.0,0.0,0.0,0.0,0.0,0.0,0.0,0.0,0.0,0.0,0.0,0.0,0.0,0.0,0.0,0.0,0.0,0.0,0.0,0.0,0.0,0.0,0.0,0.0,0.0,0.0,-4.3266,0.0,0.0,0.0,0.0,0.0,0.0,0.0,0.0,0.0,0.0,0.0,0.0,0.0,0.0,0.0,0.0,0.0,0.0,0.0,0.0,0.0,0.0,0.0,0.0,0.0,0.0,0.0,0.0,0.0,0.0,0.0,0.0,0.0,0.0,0.0,0.0,0.0,0.0,0.0,0.0,0.0,0.0,0.0,0.0,0.0,0.0,0.0,0.0,0.0,0.0,0.0,0.0,0.0,0.0,0.0,0.0,0.0,0.0,0.0,0.0,0.0,0.0,0.0,0.0,0.0,0.0,0.0,0.0,0.0,0.0,0.0,0.0,0.0,0.0,0.0,0.0,0.0,0.0,0.0,0.0,0.0,0.0,0.0,0.0,0.0,0.0,0.0,0.0,0.0,0.0,0.0,0.0,0.0,0.0,0.0,0.0,0.0,0.0,0.0,0.0,0.0,0.0,0.0,0.0,0.0,0.0,0.0,0.0,0.0,0.0,-4.4543,-4.4427,-4.3711,-4.2879,-4.1932,0.0,0.0,0.0,0.0,0.0,0.0,0.0,0.0,0.0,0.0,0.0,0.0,0.0,0.0,0.0,0.0,0.0,0.0,0.0,0.0,0.0,0.0,0.0,0.0,0.0,0.0,0.0,0.0,0.0,0.0,0.0,0.0,0.0,0.0,0.0,0.0,0.0,0.0,0.0,0.0,0.0,0.0,0.0,0.0,0.0,0.0,0.0,0.0,0.0,0.0,0.0,0.0,0.0,0.0,0.0,0.0,0.0,0.0,0.0,0.0,0.0,0.0,0.0,0.0,0.0,0.0,0.0,0.0,0.0,0.0,0.0,0.0,0.0,0.0,0.0,0.0,0.0,0.0,0.0,0.0,0.0,0.0,0.0,0.0,0.0,0.0,0.0,0.0,0.0,0.0,0.0,0.0,0.0,0.0,0.0,0.0,0.0,0.0,0.0,0.0,0.0,0.0,0.0,0.0,0.0,0.0,0.0,0.0,0.0,0.0,0.0,0.0,-4.3692,-4.2802,-4.1139,0.0,0.0,0.0,0.0,0.0,0.0,0.0,0.0,0.0,0.0,0.0,0.0,0.0,0.0,0.0,0.0,0.0,0.0,0.0,0.0,0.0,0.0,0.0,0.0,0.0,0.0,0.0,0.0,0.0,0.0,0.0,0.0,0.0,0.0,0.0,0.0,0.0,0.0,0.0,0.0,0.0,0.0,0.0,0.0,0.0,0.0,0.0,0.0,0.0,0.0,0.0,0.0,0.0,0.0,0.0,0.0,0.0,0.0,0.0,0.0,0.0,0.0,0.0,0.0,0.0,0.0,0.0,0.0,0.0,0.0,0.0,0.0,0.0,0.0,0.0,0.0,0.0,0.0,0.0,0.0,0.0,0.0,0.0,0.0,0.0,0.0,0.0,0.0,0.0,0.0,0.0,0.0,0.0,0.0,0.0,0.0,0.0,0.0,0.0,0.0,0.0,0.0,0.0,0.0,0.0,0.0,0.0,0.0,0.0,0.0,-4.3285,-4.5478,-4.4833,0.0,-4.2009,0.0,0.0,0.0,0.0,0.0,0.0,0.0,0.0,0.0,0.0,0.0,0.0,0.0,0.0,0.0,0.0,0.0,0.0,0.0,0.0,0.0,0.0,0.0,0.0,0.0,0.0,0.0,0.0,0.0,0.0,0.0,0.0,0.0,0.0,0.0,0.0,0.0,0.0,0.0,0.0,0.0,0.0,0.0,0.0,0.0,0.0,0.0,0.0,0.0,0.0,0.0,0.0,0.0,0.0,0.0,0.0,0.0,0.0,0.0,0.0,0.0,0.0,0.0,0.0,0.0,0.0,0.0,0.0,0.0,0.0,0.0,0.0,0.0,0.0,0.0,0.0,0.0,0.0,0.0,0.0,0.0,0.0,0.0,0.0,0.0,0.0,0.0,0.0,0.0,0.0,0.0,0.0,0.0,0.0,0.0,0.0,0.0,0.0,0.0,0.0,0.0,0.0,0.0,0.0,0.0,0.0,0.0,0.0,0.0,0.0,-4.3749,-4.4311,-4.3053,-4.2009,0.0,0.0,0.0,0.0,0.0,0.0,0.0,0.0,0.0,0.0,0.0,0.0,0.0,0.0,0.0,0.0,0.0,0.0,0.0,0.0,0.0,0.0,0.0,0.0,0.0,0.0,0.0,0.0,0.0,0.0,0.0,0.0,0.0,0.0,0.0,0.0,0.0,0.0,0.0,0.0,0.0,0.0,0.0,0.0,0.0,0.0,0.0,0.0,0.0,0.0,0.0,0.0,0.0,0.0,0.0,0.0,0.0,0.0,0.0,0.0,0.0,0.0,0.0,0.0,0.0,0.0,0.0,0.0,0.0,0.0,0.0,0.0,0.0,0.0,0.0,0.0,0.0,0.0,0.0,0.0,0.0,0.0,0.0,0.0,0.0,0.0,0.0,0.0,0.0,0.0,0.0,0.0,0.0,0.0,0.0,0.0,0.0,0.0,0.0,0.0,0.0,0.0,0.0,0.0,0.0,0.0,0.0,0.0,0.0,0.0,-4.3443,-4.3986,-4.3627,-4.2492,-4.1293,-4.0113,0.0,0.0,0.0,0.0,0.0,0.0,0.0,0.0,0.0,0.0,0.0,0.0,0.0,0.0,0.0,0.0,0.0,0.0,0.0,0.0,0.0,0.0,0.0,0.0,0.0,0.0,0.0,0.0,0.0,0.0,0.0,0.0,0.0,0.0,0.0,0.0,0.0,0.0,0.0,0.0,0.0,0.0,0.0,0.0,0.0,0.0,0.0,0.0,0.0,0.0,0.0,0.0,0.0,0.0,0.0,0.0,0.0,0.0,0.0,0.0,0.0,0.0,0.0,0.0,0.0,0.0,0.0,0.0,0.0,0.0,0.0,0.0,0.0,0.0,0.0,0.0,0.0,0.0,0.0,0.0,0.0,0.0,0.0,0.0,0.0,0.0,0.0,0.0,0.0,0.0,0.0,0.0,0.0,0.0,0.0,0.0,0.0,0.0,0.0,0.0,0.0,0.0,0.0,0.0,0.0,0.0,0.0,0.0,-4.5148,-4.397,-4.3657,-4.4516,-4.4458,-4.2505,0.0,0.0,0.0,0.0,0.0,0.0,0.0,0.0,0.0,0.0,0.0,0.0,0.0,0.0,0.0,0.0,0.0,0.0,0.0,0.0,0.0,0.0,0.0,0.0,0.0,0.0,0.0,0.0,0.0,0.0,0.0,0.0,0.0,0.0,0.0,0.0,0.0,0.0,0.0,0.0,0.0,0.0,0.0,0.0,0.0,0.0,0.0,0.0,0.0,0.0,0.0,0.0,0.0,0.0,0.0,0.0,0.0,0.0,0.0,0.0,0.0,0.0,0.0,0.0,0.0,0.0,0.0,0.0,0.0,0.0,0.0,0.0,0.0,0.0,0.0,0.0,0.0,0.0,0.0,0.0,0.0,0.0,0.0,0.0,0.0,0.0,0.0,0.0,0.0,0.0,0.0,0.0,0.0,0.0,0.0,0.0,0.0,0.0,0.0,0.0,0.0,0.0,0.0,0.0,0.0,0.0,0.0,0.0,0.0,-4.081,-4.1298,-4.3085,-4.5916,-4.2531,-4.0533,0.0,0.0,0.0,0.0,0.0,0.0,0.0,0.0,0.0,0.0,0.0,0.0,0.0,0.0,0.0,0.0,0.0,0.0,0.0,0.0,0.0,0.0,0.0,0.0,0.0,0.0,0.0,0.0,0.0,0.0,0.0,0.0,0.0,0.0,0.0,0.0,0.0,0.0,0.0,0.0,0.0,0.0,0.0,0.0,0.0,0.0,0.0,0.0,0.0,0.0,0.0,0.0,0.0,0.0,0.0,0.0,0.0,0.0,0.0,0.0,0.0,0.0,0.0,0.0,0.0,0.0,0.0,0.0,0.0,0.0,0.0,0.0,0.0,0.0,0.0,0.0,0.0,0.0,0.0,0.0,0.0,0.0,0.0,0.0,0.0,0.0,0.0,0.0,0.0,0.0,0.0,0.0,0.0,0.0,0.0,0.0,0.0,0.0,0.0,0.0,0.0,0.0,0.0,0.0,0.0,0.0,0.0,0.0,0.0,-3.9627,0.0,-4.3396,-4.5059,-4.1398,-3.9226,0.0,0.0,0.0,0.0,0.0,0.0,0.0,0.0,0.0,0.0,0.0,0.0,0.0,0.0,0.0,0.0,0.0,0.0,0.0,0.0,0.0,0.0,0.0,0.0,0.0,0.0,0.0,0.0,0.0,0.0,0.0,0.0,0.0,0.0,0.0,0.0,0.0,0.0,0.0,0.0,0.0,0.0,0.0,0.0,0.0,0.0,0.0,0.0,0.0,0.0,0.0,0.0,0.0,0.0,0.0,0.0,0.0,0.0,0.0,0.0,0.0,0.0,0.0,0.0,0.0,0.0,0.0,0.0,0.0,0.0,0.0,0.0,0.0,0.0,0.0,0.0,0.0,0.0,0.0,0.0,0.0,0.0,0.0,0.0,0.0,0.0,0.0,0.0,0.0,0.0,0.0,0.0,0.0,0.0,0.0,0.0,0.0,0.0,0.0,0.0,0.0,0.0,0.0,0.0,0.0,0.0,0.0,0.0,-3.9525,-4.2508,-4.472,-4.4543,-4.1833,-4.1487,-3.8843,0.0,0.0,0.0,0.0,0.0,0.0,0.0,0.0,0.0,0.0,0.0,0.0,0.0,0.0,0.0,0.0,0.0,0.0,0.0,0.0,0.0,0.0,0.0,0.0,0.0,0.0,0.0,0.0,0.0,0.0,0.0,0.0,0.0,0.0,0.0,0.0,0.0,0.0,0.0,0.0,0.0,0.0,0.0,0.0,0.0,0.0,0.0,0.0,0.0,0.0,0.0,0.0,0.0,0.0,0.0,0.0,0.0,0.0,0.0,0.0,0.0,0.0,0.0,0.0,0.0,0.0,0.0,0.0,0.0,0.0,0.0,0.0,0.0,0.0,0.0,0.0,0.0,0.0,0.0,0.0,0.0,0.0,0.0,0.0,0.0,0.0,0.0,0.0,0.0,0.0,0.0,0.0,0.0,0.0,0.0,0.0,0.0,0.0,0.0,0.0,0.0,0.0,0.0,0.0,0.0,0.0,0.0,0.0,0.0,-4.0391,-4.2356,-4.3931,-4.4796,-4.0921,-3.8548,0.0,0.0,0.0,0.0,0.0,0.0,0.0,0.0,0.0,0.0,0.0,0.0,0.0,0.0,0.0,0.0,0.0,0.0,0.0,0.0,0.0,0.0,0.0,0.0,0.0,0.0,0.0,0.0,0.0,0.0,0.0,0.0,0.0,0.0,0.0,0.0,0.0,0.0,0.0,0.0,0.0,0.0,0.0,0.0,0.0,0.0,0.0,0.0,0.0,0.0,0.0,0.0,0.0,0.0,0.0,0.0,0.0,0.0,0.0,0.0,0.0,0.0,0.0,0.0,0.0,0.0,0.0,0.0,0.0,0.0,0.0,0.0,0.0,0.0,0.0,0.0,0.0,0.0,0.0,0.0,0.0,0.0,0.0,0.0,0.0,0.0,0.0,0.0,0.0,0.0,0.0,0.0,0.0,0.0,0.0,0.0,0.0,0.0,0.0,0.0,0.0,0.0,0.0,0.0,0.0,0.0,0.0,0.0,0.0,-4.2317,-4.4134,-4.5315,-4.5712,-4.1445,-3.901,-3.8712,0.0,0.0,0.0,0.0,0.0,0.0,0.0,0.0,0.0,0.0,0.0,0.0,0.0,0.0,0.0,0.0,0.0,0.0,0.0,0.0,0.0,0.0,0.0,0.0,0.0,0.0,0.0,0.0,0.0,0.0,0.0,0.0,0.0,0.0,0.0,0.0,0.0,0.0,0.0,0.0,0.0,0.0,0.0,0.0,0.0,0.0,0.0,0.0,0.0,0.0,0.0,0.0,0.0,0.0,0.0,0.0,0.0,0.0,0.0,0.0,0.0,0.0,0.0,0.0,0.0,0.0,0.0,0.0,0.0,0.0,0.0,0.0,0.0,0.0,0.0,0.0,0.0,0.0,0.0,0.0,0.0,0.0,0.0,0.0,0.0,0.0,0.0,0.0,0.0,0.0,0.0,0.0,0.0,0.0,0.0,0.0,0.0,0.0,0.0,0.0,0.0,0.0,0.0,0.0,0.0,0.0,0.0,0.0,-4.7259,-4.9288,-4.8615,-4.5026,-4.3085,-4.0351,0.0,0.0,0.0,0.0,0.0,0.0,0.0,0.0,0.0,0.0,0.0,0.0,0.0,0.0,0.0,0.0,0.0,0.0,0.0,0.0,0.0,0.0,0.0,0.0,0.0,0.0,0.0,0.0,0.0,0.0,0.0,0.0,0.0,0.0,0.0,0.0,0.0,0.0,0.0,0.0,0.0,0.0,0.0,0.0,0.0,0.0,0.0,0.0,0.0,0.0,0.0,0.0,0.0,0.0,0.0,0.0,0.0,0.0,0.0,0.0,0.0,0.0,0.0,0.0,0.0,0.0,0.0,0.0,0.0,0.0,0.0,0.0,0.0,0.0,0.0,0.0,0.0,0.0,0.0,0.0,0.0,0.0,0.0,0.0,0.0,0.0,0.0,0.0,0.0,0.0,0.0,0.0,0.0,0.0,0.0,0.0,0.0,0.0,0.0,0.0,0.0,0.0,0.0,0.0,0.0,0.0,0.0,0.0,0.0,-4.8418,-5.1879,-5.251,-4.9912,-4.6379,-4.2941,0.0,0.0,0.0,0.0,0.0,0.0,0.0,0.0,0.0,0.0,0.0,0.0,0.0,0.0,0.0,0.0,0.0,0.0,0.0,0.0,0.0,0.0,0.0,0.0,0.0,0.0,0.0,0.0,0.0,0.0,0.0,0.0,0.0,0.0,0.0,0.0,0.0,0.0,0.0,0.0,0.0,0.0,0.0,0.0,0.0,0.0,0.0,0.0,0.0,0.0,0.0,0.0,0.0,0.0,0.0,0.0,0.0,0.0,0.0,0.0,0.0,0.0,0.0,0.0,0.0,0.0,0.0,0.0,0.0,0.0,0.0,0.0,0.0,0.0,0.0,0.0,0.0,0.0,0.0,0.0,0.0,0.0,0.0,0.0,0.0,0.0,0.0,0.0,0.0,0.0,0.0,0.0,0.0,0.0,0.0,0.0,0.0,0.0,0.0,0.0,0.0,0.0,0.0,0.0,0.0,0.0,0.0,0.0,-4.6475,-5.0395,-5.4128,-5.5117,-5.3194,-4.9415,-4.5441,0.0,0.0,0.0,0.0,0.0,0.0,0.0,0.0,0.0,0.0,0.0,0.0,0.0,0.0,0.0,0.0,0.0,0.0,0.0,0.0,0.0,0.0,0.0,0.0,0.0,0.0,0.0,0.0,0.0,0.0,0.0,0.0,0.0,0.0,0.0,0.0,0.0,0.0,0.0,0.0,0.0,0.0,0.0,0.0,0.0,0.0,0.0,0.0,0.0,0.0,0.0,0.0,0.0,0.0,0.0,0.0,0.0,0.0,0.0,0.0,0.0,0.0,0.0,0.0,0.0,0.0,0.0,0.0,0.0,0.0,0.0,0.0,0.0,0.0,0.0,0.0,0.0,0.0,0.0,0.0,0.0,0.0,0.0,0.0,0.0,0.0,0.0,0.0,0.0,0.0,0.0,0.0,0.0,0.0,0.0,0.0,0.0,0.0,0.0,0.0,0.0,0.0,0.0,0.0,0.0,0.0,0.0,0.0,-4.7868,-5.2642,-5.5949,-5.684,-5.5131,-5.2011,-4.7659,0.0,0.0,0.0,0.0,0.0,0.0,0.0,0.0,0.0,0.0,0.0,0.0,0.0,0.0,0.0,0.0,0.0,0.0,0.0,0.0,0.0,0.0,0.0,0.0,0.0,0.0,0.0,0.0,0.0,0.0,0.0,0.0,0.0,0.0,0.0,0.0,0.0,0.0,0.0,0.0,0.0,0.0,0.0,0.0,0.0,0.0,0.0,0.0,0.0,0.0,0.0,0.0,0.0,0.0,0.0,0.0,0.0,0.0,0.0,0.0,0.0,0.0,0.0,0.0,0.0,0.0,0.0,0.0,0.0,0.0,0.0,0.0,0.0,0.0,0.0,0.0,0.0,0.0,0.0,0.0,0.0,0.0,0.0,0.0,0.0,0.0,0.0,0.0,0.0,0.0,0.0,0.0,0.0,0.0,0.0,0.0,0.0,0.0,0.0,0.0,0.0,0.0,0.0,0.0,0.0,0.0,0.0,0.0,-4.9243,-5.3478,-5.6747,-5.7676,-5.6042,-5.2865,-4.8461,0.0,0.0,0.0,0.0,0.0,0.0,0.0,0.0,0.0,0.0,0.0,0.0,0.0,0.0,0.0,0.0,0.0,0.0,0.0,0.0,0.0,0.0,0.0,0.0,0.0,0.0,0.0,0.0,0.0,0.0,0.0,0.0,0.0,0.0,0.0,0.0,0.0,0.0,0.0,0.0,0.0,0.0,0.0,0.0,0.0,0.0,0.0,0.0,-3.2298,0.0,0.0,0.0,0.0,0.0,0.0,0.0,0.0,0.0,0.0,0.0,0.0,0.0,0.0,0.0,0.0,0.0,0.0,0.0,0.0,0.0,0.0,0.0,0.0,0.0,0.0,0.0,0.0,0.0,0.0,0.0,0.0,0.0,0.0,0.0,0.0,0.0,0.0,0.0,0.0,0.0,0.0,0.0,0.0,0.0,0.0,0.0,0.0,0.0,0.0,0.0,0.0,0.0,0.0,0.0,0.0,0.0,0.0,0.0,-5.006,-5.372,-5.6636,-5.736,-5.5689,-5.3274,-4.9262,0.0,0.0,0.0,0.0,0.0,0.0,0.0,0.0,0.0,0.0,0.0,0.0,0.0,0.0,0.0,0.0,0.0,0.0,0.0,0.0,0.0,0.0,0.0,0.0,0.0,0.0,0.0,0.0,0.0,0.0,0.0,0.0,0.0,0.0,0.0,0.0,0.0,0.0,0.0,0.0,0.0,0.0,0.0,0.0,0.0,0.0,0.0,0.0,0.0,0.0,0.0,0.0,0.0,0.0,0.0,0.0,0.0,0.0,0.0,0.0,0.0,0.0,0.0,0.0,0.0,0.0,0.0,0.0,0.0,0.0,0.0,0.0,0.0,0.0,0.0,0.0,0.0,0.0,0.0,0.0,0.0,0.0,0.0,0.0,0.0,0.0,0.0,0.0,0.0,0.0,0.0,0.0,0.0,0.0,0.0,0.0,0.0,0.0,0.0,0.0,0.0,0.0,0.0,0.0,0.0,0.0,0.0,-4.5398,-4.9913,-5.3477,-5.578,-5.6189,-5.4609,-5.3105,-4.9618,-4.3979,0.0,0.0,0.0,0.0,0.0,0.0,0.0,0.0,0.0,0.0,0.0,0.0,0.0,0.0,0.0,0.0,0.0,0.0,0.0,0.0,0.0,0.0,0.0,0.0,0.0,0.0,0.0,0.0,0.0,0.0,0.0,0.0,0.0,0.0,0.0,0.0,0.0,0.0,-3.0855,-3.2079,0.0,0.0,0.0,0.0,0.0,0.0,0.0,0.0,-3.1175,0.0,0.0,0.0,0.0,0.0,0.0,0.0,0.0,0.0,0.0,0.0,0.0,0.0,0.0,0.0,0.0,0.0,0.0,0.0,0.0,0.0,0.0,0.0,0.0,0.0,0.0,0.0,0.0,0.0,0.0,0.0,0.0,0.0,0.0,0.0,0.0,0.0,0.0,0.0,0.0,0.0,0.0,0.0,0.0,0.0,0.0,0.0,0.0,0.0,0.0,0.0,0.0,0.0,0.0,0.0,0.0,-4.3987,-4.4586,-4.7352,-5.2492,-5.3793,-5.3808,-5.2611,-5.1669,-4.8477,-4.2912,0.0,0.0,0.0,0.0,0.0,0.0,0.0,0.0,0.0,0.0,0.0,0.0,0.0,0.0,0.0,0.0,0.0,0.0,0.0,0.0,0.0,0.0,0.0,0.0,0.0,0.0,0.0,0.0,0.0,0.0,0.0,0.0,0.0,0.0,0.0,0.0,0.0,0.0,0.0,-3.3856,-3.4556,0.0,0.0,0.0,0.0,0.0,0.0,0.0,0.0,-3.1797,0.0,0.0,0.0,0.0,0.0,0.0,0.0,0.0,0.0,0.0,0.0,0.0,0.0,0.0,0.0,0.0,0.0,0.0,0.0,0.0,0.0,0.0,0.0,0.0,0.0,0.0,0.0,0.0,0.0,0.0,0.0,0.0,0.0,0.0,0.0,0.0,0.0,0.0,0.0,0.0,0.0,0.0,0.0,0.0,0.0,0.0,0.0,0.0,0.0,0.0,0.0,0.0,0.0,0.0,0.0,-4.1884,-4.4491,-4.7799,-5.1959,-5.2333,-5.2192,-5.1603,-4.8998,-4.5736,0.0,0.0,0.0,0.0,0.0,0.0,0.0,0.0,0.0,0.0,0.0,0.0,0.0,0.0,0.0,0.0,0.0,0.0,0.0,0.0,0.0,0.0,0.0,0.0,0.0,0.0,0.0,0.0,0.0,0.0,0.0,0.0,0.0,0.0,0.0,0.0,0.0,0.0,0.0,0.0,-3.4336,-3.491,-3.5805,0.0,0.0,0.0,0.0,0.0,0.0,-3.2298,-3.1424,0.0,0.0,0.0,0.0,0.0,0.0,0.0,0.0,0.0,0.0,0.0,0.0,0.0,0.0,0.0,0.0,0.0,0.0,0.0,0.0,0.0,0.0,0.0,0.0,0.0,0.0,0.0,0.0,0.0,0.0,0.0,0.0,0.0,0.0,0.0,0.0,0.0,0.0,0.0,0.0,0.0,0.0,0.0,0.0,0.0,0.0,0.0,0.0,0.0,0.0,0.0,0.0,0.0,0.0,0.0,-3.9008,-4.379,-4.7863,-5.0964,-5.0805,-5.0516,-5.0245,-4.6676,-4.336,0.0,0.0,0.0,0.0,0.0,0.0,0.0,0.0,0.0,0.0,0.0,0.0,0.0,0.0,0.0,0.0,0.0,0.0,0.0,0.0,0.0,0.0,0.0,0.0,0.0,0.0,0.0,0.0,0.0,0.0,0.0,0.0,0.0,0.0,0.0,0.0,0.0,0.0,0.0,0.0,0.0,-3.5602,-3.6354,-3.4825,0.0,0.0,0.0,0.0,-3.2693,-3.2704,0.0,0.0,0.0,0.0,0.0,0.0,0.0,0.0,0.0,0.0,0.0,0.0,0.0,0.0,0.0,0.0,0.0,0.0,0.0,0.0,0.0,0.0,0.0,0.0,0.0,0.0,0.0,0.0,0.0,0.0,0.0,0.0,0.0,0.0,0.0,0.0,0.0,0.0,0.0,0.0,0.0,0.0,0.0,0.0,0.0,0.0,0.0,0.0,0.0,0.0,0.0,0.0,0.0,0.0,0.0,0.0,-3.7757,-4.1145,-4.4746,-4.8391,-4.8618,-4.8178,-4.7249,-4.6065,-4.3117,0.0,0.0,0.0,0.0,0.0,0.0,0.0,0.0,0.0,0.0,0.0,0.0,0.0,0.0,0.0,0.0,0.0,0.0,0.0,0.0,0.0,0.0,0.0,0.0,0.0,0.0,0.0,0.0,0.0,0.0,0.0,0.0,0.0,0.0,0.0,0.0,0.0,0.0,0.0,0.0,0.0,-3.7792,-3.5981,-3.5495,-3.5071,0.0,0.0,-3.43,-3.5074,-3.6339,0.0,0.0,0.0,0.0,0.0,0.0,0.0,0.0,0.0,0.0,0.0,0.0,0.0,0.0,0.0,0.0,0.0,0.0,0.0,0.0,0.0,0.0,0.0,0.0,0.0,0.0,0.0,0.0,0.0,0.0,0.0,0.0,0.0,0.0,0.0,0.0,0.0,0.0,0.0,0.0,0.0,0.0,0.0,0.0,0.0,0.0,0.0,0.0,0.0,0.0,0.0,0.0,0.0,0.0,0.0,-3.4571,-3.7167,-4.0879,-4.426,-4.7136,-4.6621,-4.6229,-4.6182,-4.3049,-4.0111,0.0,0.0,0.0,0.0,0.0,0.0,0.0,0.0,0.0,0.0,0.0,0.0,0.0,0.0,0.0,0.0,0.0,0.0,0.0,0.0,0.0,0.0,0.0,0.0,0.0,0.0,0.0,0.0,0.0,0.0,0.0,0.0,0.0,0.0,0.0,0.0,0.0,0.0,0.0,0.0,0.0,0.0,-3.673,-3.6721,0.0,0.0,0.0,-3.5565,-3.5385,0.0,0.0,0.0,0.0,0.0,0.0,0.0,0.0,0.0,0.0,0.0,0.0,0.0,0.0,0.0,0.0,0.0,0.0,0.0,0.0,0.0,0.0,0.0,0.0,0.0,0.0,0.0,0.0,0.0,0.0,0.0,0.0,0.0,0.0,0.0,0.0,0.0,0.0,0.0,0.0,0.0,0.0,0.0,0.0,0.0,0.0,0.0,0.0,0.0,0.0,0.0,0.0,0.0,0.0,0.0,0.0,0.0,-3.6466,-4.0897,-4.4121,-4.5924,-4.5095,-4.4788,-4.5049,-4.1016,0.0,0.0,0.0,0.0,0.0,0.0,0.0,0.0,0.0,0.0,0.0,0.0,0.0,0.0,0.0,0.0,0.0,0.0,0.0,0.0,0.0,0.0,0.0,0.0,0.0,0.0,0.0,-2.3647,0.0,0.0,0.0,0.0,0.0,0.0,0.0,0.0,0.0,0.0,0.0,0.0,0.0,0.0,-3.6775,-3.7158,-3.7592,-3.7658,0.0,0.0,-3.6542,-3.5915,-3.6771,-3.6283,0.0,0.0,0.0,0.0,0.0,0.0,0.0,0.0,0.0,0.0,0.0,0.0,0.0,0.0,0.0,0.0,0.0,0.0,0.0,0.0,0.0,0.0,0.0,0.0,0.0,0.0,0.0,0.0,0.0,0.0,0.0,0.0,0.0,0.0,0.0,0.0,0.0,0.0,0.0,0.0,0.0,0.0,0.0,0.0,0.0,0.0,0.0,0.0,0.0,0.0,0.0,0.0,0.0,0.0,-3.4533,-3.5462,-4.0521,-4.3603,-4.4414,-4.4388,-4.4008,-4.337,-4.1626,-3.875,0.0,0.0,0.0,0.0,0.0,0.0,0.0,0.0,0.0,0.0,0.0,0.0,0.0,0.0,0.0,0.0,0.0,0.0,0.0,0.0,0.0,0.0,0.0,0.0,0.0,0.0,0.0,0.0,0.0,0.0,0.0,0.0,0.0,0.0,0.0,0.0,0.0,0.0,0.0,0.0,0.0,-3.7249,-3.6501,-3.772,-3.8673,0.0,-3.7959,-3.7507,-3.7429,-3.8748,-3.8169,-3.3481,0.0,0.0,0.0,0.0,0.0,0.0,0.0,0.0,0.0,0.0,0.0,0.0,0.0,0.0,0.0,0.0,0.0,0.0,0.0,0.0,0.0,0.0,0.0,0.0,0.0,0.0,0.0,0.0,0.0,0.0,0.0,0.0,0.0,0.0,0.0,0.0,0.0,0.0,0.0,0.0,0.0,0.0,0.0,0.0,0.0,0.0,0.0,0.0,0.0,0.0,0.0,0.0,0.0,-3.3283,-3.4542,-3.9307,-4.2154,-4.2861,-4.2896,-4.2758,-4.2465,-4.0549,-3.781,0.0,0.0,0.0,0.0,0.0,0.0,0.0,0.0,0.0,0.0,0.0,0.0,0.0,0.0,0.0,0.0,0.0,0.0,0.0,0.0,0.0,0.0,0.0,0.0,0.0,0.0,0.0,0.0,-2.6123,-2.5605,-2.5143,0.0,0.0,0.0,0.0,0.0,0.0,0.0,0.0,0.0,0.0,-3.632,-3.6887,-3.7948,0.0,0.0,-3.8372,-3.7992,-3.8245,-3.7978,-3.6746,-3.3887,-3.1931,0.0,0.0,0.0,0.0,0.0,0.0,0.0,0.0,0.0,0.0,0.0,0.0,0.0,0.0,0.0,0.0,0.0,0.0,0.0,0.0,0.0,0.0,0.0,0.0,0.0,0.0,0.0,0.0,0.0,0.0,0.0,0.0,0.0,0.0,0.0,0.0,0.0,0.0,0.0,0.0,0.0,0.0,0.0,0.0,0.0,0.0,0.0,0.0,0.0,0.0,0.0,0.0,-3.2485,-3.4034,-3.8286,-4.0834,-4.1581,-4.1616,-4.1623,-4.1612,-3.9687,-3.7284,0.0,0.0,0.0,0.0,0.0,0.0,0.0,0.0,0.0,0.0,0.0,0.0,0.0,0.0,0.0,0.0,0.0,0.0,0.0,0.0,0.0,0.0,0.0,0.0,0.0,0.0,0.0,0.0,-2.7032,-2.5968,-2.4647,0.0,0.0,0.0,0.0,0.0,0.0,0.0,0.0,0.0,0.0,-3.5757,-3.7237,-3.8203,-3.8923,-3.9191,-3.8493,-3.802,-3.831,-3.7109,-3.5553,-3.3908,0.0,0.0,0.0,0.0,0.0,0.0,0.0,0.0,0.0,0.0,0.0,0.0,0.0,0.0,0.0,0.0,0.0,0.0,0.0,0.0,0.0,0.0,0.0,0.0,0.0,0.0,0.0,-2.8421,0.0,0.0,-2.6842,0.0,0.0,0.0,0.0,0.0,0.0,0.0,0.0,0.0,0.0,0.0,0.0,0.0,0.0,0.0,0.0,0.0,0.0,0.0,0.0,0.0,0.0,-3.2336,-3.3911,-3.7547,-3.9864,-4.0697,-4.0714,-4.0786,-4.0871,-3.941,-3.7491,-3.5125,0.0,0.0,0.0,0.0,0.0,0.0,0.0,0.0,0.0,0.0,0.0,0.0,0.0,0.0,0.0,0.0,0.0,0.0,0.0,0.0,0.0,0.0,0.0,0.0,0.0,0.0,-2.6823,-2.6308,-2.5273,0.0,0.0,0.0,0.0,0.0,0.0,0.0,0.0,0.0,-3.0255,-3.3191,-3.5757,-3.7291,-3.851,-3.9208,-3.926,-3.8289,-3.7499,-3.7518,-3.6492,-3.517,0.0,0.0,0.0,0.0,0.0,0.0,0.0,0.0,0.0,0.0,0.0,0.0,0.0,0.0,0.0,0.0,0.0,0.0,0.0,0.0,0.0,0.0,0.0,0.0,0.0,0.0,0.0,-3.0734,-2.9337,0.0,0.0,0.0,0.0,0.0,0.0,0.0,0.0,0.0,0.0,0.0,-3.1225,-3.1782,0.0,0.0,0.0,0.0,0.0,0.0,0.0,0.0,0.0,0.0,0.0,0.0,-3.1555,-3.3126,-3.671,-3.9006,-3.9805,-3.984,-3.9846,-3.9877,-3.842,-3.5902,-3.2381,0.0,0.0,0.0,0.0,0.0,0.0,0.0,0.0,0.0,0.0,0.0,0.0,0.0,0.0,0.0,0.0,0.0,0.0,0.0,0.0,0.0,0.0,0.0,0.0,0.0,-2.6065,0.0,0.0,0.0,0.0,0.0,0.0,0.0,0.0,0.0,0.0,0.0,-2.9225,-3.1794,-3.3797,-3.5578,-3.7154,-3.7699,-3.8099,0.0,0.0,0.0,0.0,0.0,0.0,0.0,0.0,0.0,0.0,0.0,0.0,0.0,0.0,-3.1096,-2.7321,-2.6415,-2.6387,-2.693,0.0,0.0,0.0,0.0,0.0,0.0,0.0,0.0,0.0,0.0,0.0,0.0,0.0,0.0,-3.1797,0.0,-3.0173,0.0,0.0,0.0,0.0,0.0,0.0,0.0,0.0,-3.2457,-3.3087,-3.2835,-3.3385,-3.2987,0.0,-3.2042,-3.0715,0.0,0.0,0.0,0.0,0.0,0.0,0.0,0.0,-3.1091,-3.2737,-3.5791,-3.7939,-3.8877,-3.8589,-3.85,-3.8676,-3.707,-3.4605,-3.1352,-3.0005,-2.8546,0.0,0.0,0.0,0.0,0.0,0.0,0.0,0.0,0.0,0.0,0.0,0.0,0.0,0.0,0.0,0.0,0.0,0.0,0.0,0.0,0.0,0.0,0.0,-2.6051,0.0,0.0,0.0,0.0,0.0,0.0,0.0,0.0,0.0,-2.642,-2.8221,-3.042,-3.2921,-3.4188,-3.5369,-3.6671,0.0,0.0,0.0,0.0,0.0,0.0,0.0,-3.4032,-3.4075,-3.3049,-3.2359,-3.2736,-3.3563,-3.4091,-3.3825,0.0,0.0,-3.0202,-2.9459,-2.9497,-3.0038,-3.0851,-3.1549,-3.1812,-3.2693,-3.3371,0.0,0.0,0.0,0.0,0.0,0.0,0.0,0.0,-3.3518,-3.3153,0.0,-3.2296,0.0,0.0,0.0,0.0,0.0,-3.1752,0.0,0.0,-3.4448,-3.5198,-3.4597,-3.4597,-3.4212,-3.3521,-3.415,-3.3296,-3.1002,-2.8928,0.0,0.0,0.0,0.0,0.0,0.0,-3.1052,-3.2701,-3.4887,-3.6642,-3.7899,-3.6995,-3.6759,-3.7308,-3.5431,-3.3663,-3.2164,-3.1378,-3.0,-2.7879,-2.7519,0.0,0.0,0.0,0.0,0.0,0.0,0.0,0.0,0.0,0.0,0.0,0.0,0.0,0.0,0.0,0.0,0.0,0.0,0.0,0.0,-2.5592,0.0,0.0,0.0,0.0,0.0,0.0,0.0,0.0,0.0,0.0,-2.8305,-3.0183,-3.2095,-3.3529,0.0,0.0,0.0,0.0,-3.6597,-3.6577,-3.6213,-3.5894,-3.5858,-3.5574,-3.5077,-3.4345,0.0,0.0,-3.3325,-3.4016,-3.4499,-3.3759,-3.4287,-3.4818,-3.4959,-3.4458,-3.4279,-3.4313,-3.4007,-3.4142,-3.4797,-3.4928,-3.5286,-3.9778,0.0,0.0,0.0,0.0,-3.5436,-3.6185,-3.7888,-3.6717,-3.5656,-3.4748,-3.406,0.0,0.0,0.0,0.0,0.0,0.0,-3.3299,-3.4527,-3.5675,-3.6353,-3.663,-3.663,-3.603,-3.4922,-3.5091,-3.4334,-3.2729,-3.1571,-2.9358,-2.6094,0.0,0.0,0.0,0.0,-3.0888,-3.1495,-3.3991,-3.5585,-3.6017,-3.5738,-3.5375,-3.5004,-3.4062,-3.309,-3.2203,-3.1914,-3.1046,-2.9485,-2.826,0.0,0.0,0.0,0.0,0.0,0.0,0.0,0.0,0.0,0.0,0.0,0.0,0.0,0.0,0.0,0.0,0.0,0.0,0.0,-2.5552,-2.6287,-2.6254,0.0,0.0,0.0,0.0,0.0,0.0,0.0,0.0,0.0,-3.1673,-3.2439,-3.3202,0.0,0.0,-3.5496,-3.5805,-3.5954,-3.6067,-3.6174,-3.6052,0.0,-3.5272,-3.4817,-3.4572,-3.4682,-3.524,-3.554,-3.5197,-3.5408,-3.5542,-3.5301,-3.5456,-3.5652,-3.5665,-3.5128,-3.4693,-3.4673,-3.5059,-3.5481,-3.575,-3.6284,-3.6819,-4.2176,-3.9727,-3.8012,-3.7764,-3.8433,-3.7774,-3.8415,-3.9813,-3.8769,-3.7798,-3.6935,-3.6275,-3.4481,-3.1977,-3.1689,0.0,0.0,0.0,-3.4865,-3.6074,-3.6747,-3.7267,-3.7634,-3.7405,-3.6933,-3.6168,-3.5631,-3.497,-3.4214,-3.3203,-3.1232,-2.84,0.0,0.0,-2.7338,-2.9868,-3.125,-3.1438,-3.3306,-3.4472,-3.4725,-3.4504,-3.4088,-3.3387,-3.3039,-3.2723,-3.2305,-3.2248,-3.1732,-3.0657,-2.9369,-2.8068,0.0,0.0,0.0,0.0,0.0,0.0,0.0,0.0,0.0,0.0,0.0,-2.004,-1.8821,0.0,0.0,0.0,-2.3068,-2.5111,-2.627,-2.6826,0.0,0.0,0.0,0.0,0.0,0.0,0.0,-3.0711,-3.1501,-3.2341,-3.366,-3.4083,-3.4455,-3.4895,-3.5312,-3.5622,-3.5706,0.0,-3.5734,-3.5822,-3.5844,-3.5691,-3.5248,-3.4937,-3.4864,-3.5117,-3.5538,-3.5827,-3.5844,-3.5844,-3.5844,-3.5844,-3.5844,-3.5844,-3.5844,-3.5428,-3.5155,-3.5422,-3.6036,-3.652,-3.6556,-3.6984,-3.7377,-4.4063,-4.379,-4.1679,-4.0716,-4.0624,-4.0608,-4.0608,-4.0562,-3.9963,-3.9508,-3.9203,-3.8592,-3.7471,-3.594,-3.5334,0.0,-3.5107,-3.641,-3.6985,-3.7091,-3.7698,-3.8004,-3.7974,-3.7367,-3.7116,-3.7142,-3.5859,-3.5355,-3.5461,-3.4053,-3.271,-3.1427,-3.0643,-3.0127,-3.0003,-3.111,-3.1901,-3.2084,-3.2772,-3.3381,-3.386,-3.3407,-3.2864,-3.2333,-3.2321,-3.2333,-3.2321,-3.2244,-3.1982,-3.142,-3.0476,-2.9068,-2.7105,0.0,0.0,0.0,0.0,0.0,0.0,0.0,0.0,0.0,0.0,0.0,0.0,0.0,0.0,0.0,-2.3532,0.0,-2.6982,-2.7346,0.0,0.0,0.0,-2.7708,-2.927,-2.989,-3.0796,-3.229,0.0,0.0,-3.4612,-3.5182,-3.5616,-3.5616,-3.5616,-3.5616,-3.5616,-3.56,-3.5616,-3.5622,-3.5622,-3.5616,-3.5554,-3.5543,-3.5526,-3.5537,-3.5549,-3.5504,-3.5588,-3.5504,-3.5515,-3.5605,-3.5616,-3.5622,-3.5616,-3.5577,-3.5783,-3.6326,-3.6751,-3.7058,-3.6985,-3.7002,-3.7057,-4.5187,-4.4625,-4.3617,-4.2536,-4.1578,-4.1578,-4.1578,-4.1562,-4.141,-4.0735,-3.9727,-3.9575,-3.8447,-3.6637,-3.6485,-3.641,-3.647,-3.7273,-3.7974,-3.8489,-3.8656,-3.8732,-3.8686,-3.8049,-3.7506,-3.7008,-3.6204,-3.5825,-3.5826,-3.4988,-3.4151,-3.3344,-3.2636,-3.1224,-2.9297,-3.0717,-3.1424,-3.1278,-3.2168,-3.2641,-3.2792,-3.2641,-3.2272,-3.167,-3.1613,-3.1628,-3.1655,-3.1151,-3.1043,-3.1332,-2.9738,-2.8565,-2.8061,-2.5314,0.0,0.0,0.0,0.0,0.0,0.0,0.0,0.0,0.0,-2.1295,-2.0074,0.0,-2.3793,0.0,-2.5592,-2.7037,-2.7457,-2.8339,0.0,0.0,-2.9629,-3.0293,-3.2151,-3.1662,-3.1897,-3.3774,-3.4269,-3.4726,-3.5245,-3.5481,-3.5616,-3.5616,-3.5616,-3.5616,-3.5616,-3.5616,-3.5616,-3.5616,-3.5583,-3.5616,-3.5566,-3.5616,-3.5566,-3.56,-3.5109,-3.4962,-3.5481,-3.5131,-3.4928,-3.5464,-3.5616,-3.5616,-3.5566,-3.5616,-3.5611,-3.581,-3.6006,-3.6135,-3.6135,-3.622,-3.6287,-4.5464,-4.5057,-4.4106,-4.3262,-4.253,-4.2735,-4.2834,-4.2834,-4.253,-4.191,-4.1088,-4.0426,-3.935,-3.8034,-3.7989,-3.7989,-3.8034,-3.8381,-3.8792,-3.9154,-3.9169,-3.9154,-3.9139,-3.851,-3.788,-3.7298,-3.6617,-3.6198,-3.599,-3.5516,-3.4969,-3.4319,-3.3652,-3.2368,-3.0609,-3.1275,-3.1586,-3.145,-3.1952,-3.2219,-3.2219,-3.2219,-3.1925,-3.1347,-3.1278,-3.1167,-3.0982,-3.0519,-3.0391,-3.0474,-2.9166,-2.8258,-2.7934,-2.5737,-2.4259,0.0,0.0,0.0,0.0,0.0,0.0,0.0,0.0,0.0,0.0,0.0,-2.4657,-2.5632,-2.6813,-2.7834,-2.8592,-2.9575,-3.0318,-3.0713,-3.0935,-3.1599,-3.3011,-3.256,-3.2672,-3.4094,-3.429,-3.4532,-3.5134,-3.5224,-3.5356,-3.5577,-3.5616,-3.5616,-3.5616,-3.5616,-3.5616,-3.56,-3.5312,-3.4979,-3.4709,-3.4619,-3.4602,-3.4607,-3.4286,-3.415,-3.4556,-3.4303,-3.415,-3.4518,-3.4602,-3.4602,-3.4619,-3.4619,-3.4619,-3.4641,-3.4684,-3.4982,-3.5576,-3.5756,-3.5754,-4.5289,-4.517,-4.3843,-4.3305,-4.3329,-4.3738,-4.391,-4.3864,-4.3289,-4.2886,-4.2567,-4.1055,-4.0083,-3.9508,-3.9418,-3.9388,-3.9388,-3.9388,-3.9388,-3.9388,-3.9388,-3.9388,-3.9358,-3.8721,-3.8167,-3.7624,-3.6996,-3.6414,-3.5957,-3.5767,-3.5339,-3.4662,-3.4089,-3.3427,-3.2647,-3.225,-3.2044,-3.2012,-3.1996,-3.1981,-3.2012,-3.2012,-3.1688,-3.1094,-3.0848,-3.054,-3.0119,-2.9904,-2.9644,-2.9254,-2.8686,-2.8056,-2.7388,-2.6097,-2.5106,0.0,-2.3996,0.0,0.0,0.0,0.0,0.0,0.0,0.0,0.0,-2.507,-2.5947,-2.7599,-2.7779,-2.8386,-2.9915,-3.0768,-3.1261,-3.1261,-3.1685,-3.2225,-3.2926,-3.2934,-3.3151,-3.3838,-3.396,-3.4144,-3.4657,-3.4761,-3.4951,-3.5441,-3.5549,-3.5554,-3.5594,-3.56,-3.5566,-3.5498,-3.4844,-3.4167,-3.3677,-3.3474,-3.3453,-3.344,-3.3339,-3.3305,-3.3474,-3.3355,-3.3305,-3.3423,-3.3508,-3.3474,-3.3423,-3.344,-3.344,-3.3508,-3.3525,-3.3897,-3.4895,-3.5199,-3.5092,-4.5289,-4.517,-4.3883,-4.3305,-4.329,-4.3369,-4.3423,-4.3448,-4.3289,-4.2944,-4.2344,-4.1003,-4.0322,-4.0172,-3.9649,-3.9388,-3.9388,-3.9388,-3.9388,-3.9388,-3.9388,-3.9388,-3.9343,-3.8706,-3.8048,-3.7424,-3.6858,-3.6214,-3.5602,-3.5554,-3.5209,-3.4535,-3.44,-3.3994,-3.332,0.0,0.0,0.0,-3.1898,-3.1898,-3.1996,-3.2012,-3.1447,-3.0289,-2.9659,0.0,-2.8484,-2.7896,-2.7869,-2.8403,-2.8204,0.0,0.0,0.0,0.0,0.0,0.0,0.0,0.0,0.0,0.0,0.0,-2.4822,-2.4554,-2.5161,-2.6732,-2.8068,-2.8945,-2.9533,-2.9976,-3.0315,-3.134,-3.2013,-3.2029,-3.2461,-3.298,-3.3526,-3.3133,-3.3045,-3.3608,-3.3659,-3.3878,-3.4358,-3.448,-3.469,-3.5211,-3.536,-3.5406,-3.5498,-3.5532,-3.5363,-3.481,-3.4049,-3.3592,-3.3423,-3.3339,-3.3254,-3.3339,-3.2848,-3.2747,-3.3152,-3.2848,-3.2763,-3.3203,-3.3389,-3.3355,-3.3355,-3.3389,-3.3305,-3.3372,-3.3355,-3.347,-3.374,-3.3829,-3.3778,-4.5289,-4.517,-4.3843,-4.3305,0.0,-4.3305,-4.3305,-4.3305,-4.3305,-4.297,-4.2351,-4.1692,-4.101,-4.0382,-4.0053,-3.9723,-3.9388,-3.9388,-3.9388,-3.9388,-3.9388,-3.9388,-3.9373,-3.9065,-3.8377,-3.7419,-3.709,-3.6432,-3.5534,-3.5489,-3.5325,-3.4966,-3.4683,-3.4339,-3.3994,-3.332,-3.2571,-3.1756,-3.1683,-3.1683,-3.1741,-3.1769,-3.1315,-3.0389,-2.9671,0.0,0.0,0.0,0.0,0.0,0.0,0.0,0.0,0.0,0.0,-2.658,-2.6176,-2.5819,-2.5583,-2.5773,-2.6236,-2.6933,-2.7252,-2.7194,-2.6672,-2.8217,-2.947,-3.0127,-3.0509,-3.0846,-3.1182,-3.1759,-3.2106,-3.2121,-3.2346,-3.2629,-3.2815,-3.2614,-3.252,-3.2734,-3.2815,-3.3029,-3.3537,-3.3614,-3.3969,-3.4706,-3.4866,-3.5001,-3.5281,-3.5093,-3.4538,-3.3507,-3.3098,-3.273,-3.2391,-3.2324,-3.2324,-3.2239,-3.2002,-3.1935,-3.2222,-3.2022,-3.1904,-3.2256,-3.2324,-3.2307,-3.2307,-3.2307,-3.2307,-3.2324,-3.2307,-3.2307,-3.2357,-3.2882,-3.3271,-4.5229,-4.502,-4.3798,-4.3305,-4.3305,-4.3305,-4.3305,-4.3305,0.0,0.0,0.0,-4.244,-4.1737,-4.0591,-4.0457,-4.0038,-3.9403,-3.9388,-3.9388,-3.9388,-3.9388,-3.9388,-3.9388,-3.9388,-3.8706,-3.7434,-3.7404,-3.6746,-3.5534,-3.5489,-3.5489,-3.5444,-3.4936,-3.4623,-3.4474,-3.3948,-3.308,-3.1914,-3.1735,-3.163,-3.1511,-3.1496,-3.1239,-3.0661,-2.9963,-2.9372,-2.8919,-2.8283,-2.768,-2.7182,-2.7234,-2.7173,-2.6985,-2.7173,-2.7476,-2.791,-2.8157,-2.8051,-2.7546,-2.8,-2.8293,-2.8278,-2.9399,-2.9652,-2.8586,-2.9553,-3.0448,-3.1116,-3.1162,-3.1405,-3.1936,-3.1996,-3.2012,-3.2012,-3.1968,-3.1968,-3.1968,-3.1896,-3.1925,-3.1912,-3.1953,-3.2135,-3.2652,-3.2761,-3.3082,-3.3944,-3.4169,-3.4268,-3.461,-3.4435,-3.3867,-3.2757,-3.2454,-3.2026,-3.1371,-3.1199,-3.1151,-3.123,-3.1199,-3.1151,-3.1188,-3.1171,-3.1171,-3.1309,-3.119,-3.1241,-3.1205,-3.1309,-3.1171,-3.1134,-3.1134,-3.1154,-3.1255,-3.2117,-3.2709,-4.496,-4.4392,-4.3604,-4.3305,-4.3305,-4.3305,-4.3305,-4.3305,-4.3305,-4.3245,-4.3125,-4.265,-4.1991,-4.1242,-4.0666,-4.0038,-3.9403,-3.9388,-3.9388,-3.9388,-3.9388,-3.9388,-3.9388,-3.9388,-3.8706,-3.7479,-3.7404,-3.6746,-3.5624,-3.5489,-3.5489,-3.5489,-3.5415,-3.5055,-3.4548,-3.4414,-3.3994,-3.323,-3.2662,-3.2064,-3.1525,-3.1496,-3.121,-3.0565,-2.9936,-2.9292,-2.8689,-2.8543,-2.8246,-2.774,-2.8111,-2.79,-2.6931,-2.781,-2.8201,-2.7911,-2.8798,-2.9372,-2.9388,-2.9399,-2.939,-2.942,-3.0023,-3.0448,-3.0588,-3.0752,-3.1131,-3.1769,-3.183,-3.1875,-3.1996,-3.2012,-3.1968,-3.2012,-3.1898,-3.1813,-3.1813,-3.1683,-3.1597,-3.1582,-3.1568,-3.1811,-3.2315,-3.2453,-3.2656,-3.3224,-3.3469,-3.3252,-3.3058,-3.3512,-3.3779,-3.3103,-3.242,-3.1787,-3.1157,-3.0952,-3.0972,-3.0932,-3.0969,-3.0972,-3.1032,-3.1035,-3.1072,-3.1171,-3.1171,-3.1151,-3.1072,-3.1131,-3.1112,-3.1012,-3.1012,-3.1035,-3.1035,-3.1321,-3.1426,-4.4586,-4.4242,-4.3574,-4.3305,-4.3305,-4.3305,-4.3305,-4.3305,-4.3305,-4.3305,-4.3275,-4.3015,-4.2342,-4.1422,-4.107,-4.0382,-3.9388,-3.9388,-3.9388,-3.9388,-3.9388,-3.9388,-3.9388,-3.9388,-3.8706,-3.7464,-3.7404,-3.6746,-3.5594,-3.5489,-3.5489,-3.5489,-3.5489,-3.534,-3.5055,-3.5026,-3.4696,-3.4038,-3.3021,-3.2377,-3.2034,-3.1675,-3.1346,-3.1032,-3.0432,-2.9953,-2.9639,-2.931,-2.9022,-2.8786,-2.9019,-2.8888,-2.837,-2.8828,-2.9049,-2.8816,-2.9289,-2.9606,-2.9687,-2.9948,-3.0238,-3.0612,-3.0868,-3.1089,-3.1246,-3.1289,-3.1409,-3.1695,-3.1741,-3.1741,-3.1726,-3.1741,-3.1726,-3.1741,-3.1655,-3.1626,-3.1626,-3.1568,-3.1496,-3.1496,-3.1496,-3.1611,-3.1881,-3.191,-3.2148,-3.2668,-3.3002,-3.303,-3.2714,-3.3194,-3.3233,-3.2136,-3.1363,-3.1024,-3.0881,-3.0912,-3.0912,-3.0912,-3.0912,-3.0912,-3.0952,-3.0952,-3.0955,-3.1032,-3.1052,-3.1012,-3.0935,-3.0992,-3.0972,-3.0952,-3.0912,-3.0935,-3.0935,-3.0975,-3.1035,-4.4227,-4.4007,-4.3514,-4.3305,-4.3305,-4.3305,-4.3305,-4.3305,-4.3305,-4.3305,-4.3305,-4.3305,-4.2701,-4.1692,-4.1497,-4.0741,-3.9723,-3.9484,-3.9388,-3.9388,-3.9388,-3.9388,-3.9388,-3.9388,-3.8706,-3.749,-3.7404,-3.6761,-3.5624,-3.5489,-3.5489,-3.5489,-3.5489,-3.5489,-3.5489,-3.5489,-3.5235,-3.4698,-3.3544,-3.2811,-3.2497,-3.1854,-3.1496,-3.1466,-3.0987,-3.0731,-3.0717,-3.0283,-2.9939,-2.9789,-2.9789,-2.9756,-2.9621,-2.9714,-2.9789,-2.9804,-2.9939,-3.0013,-3.0058,-3.0462,-3.0971,-3.1451,-3.1496,-3.157,-3.1705,-3.172,-3.166,-3.154,-3.1496,-3.1496,-3.1524,-3.1511,-3.1496,-3.1496,-3.1496,-3.1496,-3.1496,-3.1496,-3.1496,-3.1496,-3.1496,-3.1496,-3.1496,-3.1496,-3.1697,-3.2148,-3.2586,-3.2799,-3.2826,-3.2638,-3.1854,-3.1142,-3.0497,-3.0424,-3.0663,-3.0613,-3.0671,-3.077,-3.0794,-3.0794,-3.0814,-3.0834,-3.0871,-3.0912,-3.0912,-3.0892,-3.0871,-3.0892,-3.0871,-3.0831,-3.0831,-3.0834,-3.0851,-3.0935,-3.1052,-4.3917,-4.3424,-4.3319,-4.3305,-4.3305,-4.3305,-4.3305,-4.3305,-4.3305,-4.3305,-4.326,-4.3305,-4.291,-4.2276,-4.1662,-4.0965,-4.0217,-3.9679,-3.9388,-3.9388,-3.9388,-3.9388,-3.9388,-3.9373,-3.8706,-3.7539,-3.7375,-3.6716,-3.5549,-3.5489,-3.5489,-3.5489,-3.5489,-3.5489,-3.5489,-3.5489,-3.5474,-3.54,-3.4681,-3.3709,-3.2557,-3.1839,-3.1496,-3.1496,-3.1451,-3.1421,-3.1361,-3.1361,-3.1032,-3.0492,-3.0417,-3.0163,-2.9744,-3.0118,-3.0417,-3.0447,-3.0957,-3.1331,-3.1316,-3.1376,-3.1436,-3.1481,-3.157,-3.1809,-3.2333,-3.2422,-3.2138,-3.172,-3.154,-3.1555,-3.1496,-3.1511,-3.1496,-3.1496,-3.1496,-3.1496,-3.1496,-3.1496,-3.1496,-3.1496,-3.1496,-3.1496,-3.1496,-3.1496,-3.1524,-3.1625,-3.1796,-3.1866,-3.1762,-3.1094,-3.0498,-3.0454,-3.0635,-3.0568,-3.0166,-2.9903,-3.0156,-3.0468,-3.0531,-3.0593,-3.0675,-3.0712,-3.0749,-3.0794,-3.0871,-3.0831,-3.079,-3.081,-3.081,-3.0651,-3.0651,-3.0733,-3.0733,-3.0855,-3.1015,-4.3544,-4.3305,-4.3305,-4.3305,-4.3305,-4.3305,-4.3305,-4.3305,-4.3305,-4.312,-4.2776,-4.2761,-4.2387,-4.1811,-4.1489,-4.0816,-3.9828,-3.9544,-3.9388,-3.9388,-3.9388,-3.9388,-3.9394,-3.899,-3.8302,-3.7434,-3.7045,-3.6387,-3.5639,-3.5489,-3.5489,-3.5489,-3.5489,-3.5489,-3.5489,-3.5489,-3.5489,-3.5474,-3.4831,-3.4234,-3.3664,-3.3021,-3.2497,-3.2138,-3.2108,-3.1884,-3.1555,-3.1496,-3.1376,-3.1107,-3.1092,-3.0972,-3.0761,-3.0943,-3.1077,-3.1107,-3.1346,-3.1496,-3.1496,-3.1854,-3.2079,-3.2093,-3.2452,-3.2826,-3.3051,-3.3095,-3.2976,-3.2721,-3.2318,-3.2079,-3.2049,-3.1735,-3.1496,-3.1496,-3.1496,-3.1496,-3.1496,-3.1496,-3.1496,-3.1496,-3.1496,-3.1496,-3.1496,-3.1496,-3.1496,-3.1496,-3.1496,-3.1496,-3.1451,-3.1017,-3.0531,-3.0041,-3.0079,-3.0117,-2.982,-2.9793,-3.0006,-3.0342,-3.0489,-3.0531,-3.0551,-3.0572,-3.0609,-3.0671,-3.0671,-3.0671,-3.0572,-3.0609,-3.063,-3.0526,-3.0526,-3.0609,-3.0671,-3.0773,-3.0875,-4.3305,-4.3305,-4.3305,-4.3305,-4.3305,-4.3305,-4.3305,-4.3305,-4.3305,-4.297,-4.2425,-4.2396,-4.1931,-4.119,-4.1115,-4.0576,-3.9753,-3.9463,-3.9388,-3.9388,-3.9388,-3.9388,-3.9313,-3.8706,-3.8033,-3.7404,-3.6791,-3.6163,-3.5564,-3.5489,-3.5489,-3.5489,-3.5489,-3.5489,-3.5489,-3.5489,-3.5489,-3.5474,-3.4996,-3.4756,-3.4696,-3.4292,-3.3649,-3.2886,-3.2781,-3.2452,-3.1824,-3.1765,-3.169,-3.1525,-3.1496,-3.1496,-3.1496,-3.1496,-3.1496,-3.1525,-3.169,-3.1765,-3.178,-3.2392,-3.2781,-3.2826,-3.323,-3.3574,-3.3724,-3.3754,-3.3858,-3.4008,-3.3455,-3.3036,-3.2736,-3.2153,-3.1795,-3.1765,-3.1645,-3.1511,-3.1496,-3.1496,-3.1496,-3.1496,-3.1496,-3.1496,-3.1496,-3.1496,-3.1496,-3.1496,-3.1496,-3.1496,-3.1451,-3.1286,-3.0836,-2.9968,-2.9606,-2.9332,-2.9381,-2.9506,-2.9772,-3.0177,-3.0326,-3.0489,-3.0489,-3.0489,-3.0489,-3.0551,-3.051,-3.0489,-3.051,-3.051,-3.051,-3.0489,-3.0489,-3.051,-3.0593,-3.0654,-3.0733,-4.3305,-4.3305,-4.3305,-4.3305,-4.3305,-4.3305,-4.3305,-4.329,-4.3275,-4.294,-4.2396,-4.2321,-4.1662,-4.0457,-4.0442,-4.0397,-4.0232,-3.9679,-3.9388,-3.9388,-3.9388,-3.9388,-3.9328,-3.8706,-3.8048,-3.7404,-3.6791,-3.6148,-3.5534,-3.5489,-3.5489,-3.5489,-3.5489,-3.5489,-3.5489,-3.5489,-3.5489,-3.5474,-3.5415,-3.5415,-3.5429,-3.5385,-3.4726,-3.3634,-3.3455,-3.314,-3.2557,-3.2467,-3.2183,-3.154,-3.1585,-3.157,-3.154,-3.154,-3.154,-3.16,-3.2093,-3.2452,-3.2542,-3.3095,-3.3455,-3.3469,-3.3589,-3.3799,-3.4367,-3.4474,-3.4666,-3.5295,-3.4666,-3.4098,-3.3559,-3.2811,-3.2378,-3.2333,-3.1839,-3.154,-3.1496,-3.1496,-3.1496,-3.1496,-3.1496,-3.1496,-3.1496,-3.1496,-3.1496,-3.1496,-3.1496,-3.1496,-3.1436,-3.0987,-3.0642,-3.0283,-2.9547,-2.8619,-2.8519,-2.8826,-2.9303,-2.9728,-3.0113,-3.0426,-3.0468,-3.0489,-3.0489,-3.0489,-3.0489,-3.0489,-3.0489,-3.0489,-3.0489,-3.0489,-3.0489,-3.051,-3.0551,-3.063,-3.0692,-4.3305,-4.3305,-4.3305,-4.3305,-4.3305,-4.3305,-4.3305,-4.3245,-4.2895,-4.2342,-4.1767,-4.1309,-4.0621,-3.9783,-3.9768,-3.9783,-3.9717,-3.9514,-3.9388,-3.9388,-3.9388,-3.9388,-3.9313,-3.8721,-3.8048,-3.7404,-3.6791,-3.6148,-3.5564,-3.5489,-3.5489,-3.5489,-3.5489,-3.5489,-3.5489,-3.5489,-3.5489,-3.5489,-3.5489,-3.5489,-3.5489,-3.5489,-3.525,-3.4816,-3.4352,-3.3814,-3.3155,-3.3155,-3.3021,-3.2796,-3.2751,-3.2796,-3.2751,-3.2348,-3.2138,-3.2153,-3.2348,-3.2706,-3.314,-3.3769,-3.4144,-3.4189,-3.4547,-3.4816,-3.5085,-3.5145,-3.525,-3.5385,-3.531,-3.4996,-3.4577,-3.344,-3.2497,-3.2407,-3.1914,-3.154,-3.1496,-3.1496,-3.1496,-3.1496,-3.1496,-3.1496,-3.1496,-3.1496,-3.1496,-3.1496,-3.1496,-3.1496,-3.1481,-3.1256,-3.0972,-3.0582,-3.0118,-2.9648,-2.9162,-2.8747,-2.8772,-2.928,-2.9683,-2.9924,-3.007,-3.0384,-3.0468,-3.0489,-3.0489,-3.0489,-3.0489,-3.0489,-3.0489,-3.0489,-3.0489,-3.0489,-3.0489,-3.0568,-3.0609,-4.3305,-4.3305,-4.3305,-4.3305,-4.3305,-4.3305,-4.317,-4.2985,-4.2575,-4.1916,-4.11,-4.0591,-4.0053,-3.9463,-3.9388,-3.9388,-3.9388,-3.9388,-3.9388,-3.9388,-3.9388,-3.9388,-3.9269,-3.8706,-3.8167,-3.7659,-3.6866,-3.6148,-3.5579,-3.5489,-3.5489,-3.5489,-3.5489,-3.5489,-3.5489,-3.5489,-3.5489,-3.5489,-3.5489,-3.5489,-3.5489,-3.5489,-3.5489,-3.5429,-3.504,-3.4533,-3.3874,-3.3814,-3.3694,-3.3544,-3.3499,-3.3499,-3.3455,-3.3066,-3.2826,-3.2856,-3.3051,-3.332,-3.3799,-3.4442,-3.4816,-3.4816,-3.5205,-3.5489,-3.5489,-3.5489,-3.5489,-3.5489,-3.5489,-3.5489,-3.5205,-3.4083,-3.317,-3.3066,-3.2557,-3.2049,-3.1839,-3.1839,-3.172,-3.154,-3.1496,-3.1496,-3.1496,-3.1496,-3.1496,-3.1496,-3.1496,-3.1496,-3.1496,-3.1481,-3.1391,-3.0883,-3.0597,-3.0268,-2.9751,-2.9147,-2.8839,-2.9193,-2.9515,-2.9683,-2.9859,-3.0199,-3.0468,-3.0468,-3.0489,-3.0489,-3.0489,-3.0489,-3.0489,-3.0489,-3.0489,-3.0489,-3.0489,-3.0489,-3.0531,-4.3305,-4.3305,-4.3305,-4.3305,-4.329,-4.3269,-4.2925,-4.2515,-4.2321,-4.1519,-4.0561,-4.0367,-3.9963,-3.9478,-3.9388,-3.9388,-3.9388,-3.9388,-3.9388,-3.9388,-3.9388,-3.9388,-3.9343,-3.8796,-3.8422,-3.8227,-3.7075,-3.6178,-3.5624,-3.5534,-3.5489,-3.5489,-3.5489,-3.5489,-3.5489,-3.5489,-3.5489,-3.5489,-3.5489,-3.5489,-3.5489,-3.5489,-3.5489,-3.5489,-3.5444,-3.513,-3.4533,-3.4518,-3.4247,-3.3724,-3.3634,-3.3529,-3.3604,-3.3514,-3.3484,-3.3589,-3.4068,-3.4429,-3.4563,-3.5085,-3.5385,-3.5385,-3.5489,-3.5489,-3.5489,-3.5489,-3.5489,-3.5489,-3.5489,-3.5489,-3.54,-3.4846,-3.4384,-3.4399,-3.3664,-3.3051,-3.2677,-3.2497,-3.2243,-3.166,-3.1496,-3.1496,-3.1496,-3.1496,-3.1496,-3.1496,-3.1496,-3.1496,-3.1496,-3.1496,-3.1496,-3.1361,-3.1032,-3.0658,-3.0133,-2.9574,-2.9323,-2.9229,-2.9468,-2.9677,-2.9772,-3.0049,-3.0405,-3.0489,-3.0489,-3.0489,-3.0489,-3.0489,-3.0489,-3.0489,-3.0489,-3.0489,-3.0489,-3.0489,-3.0489,-4.3305,-4.3305,-4.3305,-4.3305,-4.323,-4.2851,-4.256,-4.2306,-4.1482,-4.0771,-4.0367,-3.9933,-3.9604,-3.9433,-3.9388,-3.9388,-3.9388,-3.9388,-3.9388,-3.9388,-3.9388,-3.9388,-3.9328,-3.9185,-3.8841,-3.8242,-3.7105,-3.6387,-3.6148,-3.5744,-3.5489,-3.5489,-3.5504,-3.5489,-3.5489,-3.5489,-3.5489,-3.5489,-3.5489,-3.5489,-3.5489,-3.5489,-3.5489,-3.5489,-3.5489,-3.5385,-3.519,-3.519,-3.5085,-3.4831,-3.4876,-3.4666,-3.4309,-3.4173,-3.4173,-3.4219,-3.4369,-3.4726,-3.513,-3.5355,-3.5489,-3.5489,-3.5489,-3.5489,-3.5489,-3.5489,-3.5489,-3.5489,-3.5489,-3.5489,-3.5459,-3.534,-3.4981,-3.4548,-3.3888,-3.3499,-3.32,-3.2766,-3.2213,-3.1645,-3.1496,-3.1496,-3.1496,-3.1496,-3.1496,-3.1496,-3.1496,-3.1496,-3.1496,-3.1496,-3.1496,-3.1451,-3.1212,-3.1077,-3.0703,-3.0238,-2.982,-2.9561,-2.9593,-2.9534,-2.9643,-3.0006,-3.0342,-3.0489,-3.0489,-3.0489,-3.0489,-3.0489,-3.0489,-3.0489,-3.0489,-3.0489,-3.0489,-3.0489,-3.0489,-4.3305,-4.3305,-4.3305,-4.3305,-4.3215,-4.2641,-4.2246,-4.1901,-4.0876,-4.0262,-3.9978,-3.9619,-3.9388,-3.9388,-3.9388,-3.9388,-3.9388,-3.9388,-3.9388,-3.9388,-3.9388,-3.9388,-3.9388,-3.9388,-3.905,-3.8377,-3.7584,-3.706,-3.6791,-3.6207,-3.5863,-3.5863,-3.5639,-3.5489,-3.5489,-3.5489,-3.5489,-3.5489,-3.5489,-3.5489,-3.5489,-3.5489,-3.5489,-3.5489,-3.5489,-3.5489,-3.5489,-3.5489,-3.5489,-3.5489,-3.5489,-3.528,-3.4891,-3.4846,-3.4861,-3.4893,-3.4876,-3.5055,-3.5444,-3.5474,-3.5489,-3.5489,-3.5489,-3.5489,-3.5489,-3.5489,-3.5489,-3.5489,-3.5489,-3.5489,-3.5489,-3.5489,-3.528,-3.4921,-3.4547,-3.4143,-3.3844,-3.3051,-3.2422,-3.1944,-3.169,-3.154,-3.1496,-3.1496,-3.1496,-3.1496,-3.1496,-3.1496,-3.1496,-3.1496,-3.1496,-3.1496,-3.1421,-3.1376,-3.1391,-3.0928,-3.0372,-3.0008,-2.9747,-2.9525,-2.9391,-3.0017,-3.0489,-3.0489,-3.0489,-3.0489,-3.0489,-3.0489,-3.0489,-3.0489,-3.0489,-3.0489,-3.0489,-3.0489,-3.0489,-4.3305,-4.3305,-4.3305,-4.3305,-4.3215,-4.2641,-4.2066,-4.1407,-4.0696,-4.0053,-3.9523,-3.9418,-3.9388,-3.9388,-3.9388,-3.9388,-3.9388,-3.9388,-3.9388,-3.9388,-3.9388,-3.9388,-3.9388,-3.9388,-3.911,-3.8601,-3.8347,-3.7988,-3.7464,-3.6836,-3.6537,-3.6477,-3.5953,-3.5579,-3.5624,-3.5549,-3.5489,-3.5489,-3.5489,-3.5489,-3.5489,-3.5489,-3.5489,-3.5489,-3.5489,-3.5489,-3.5489,-3.5489,-3.5489,-3.5489,-3.5489,-3.5474,-3.5459,-3.5489,-3.5429,-3.5415,-3.5489,-3.5444,-3.5489,-3.5489,-3.5489,-3.5489,-3.5489,-3.5489,-3.5489,-3.5489,-3.5489,-3.5489,-3.5489,-3.5489,-3.5489,-3.5489,-3.5459,-3.5489,-3.5295,-3.5011,-3.4488,-3.3335,-3.2647,-3.2348,-3.1929,-3.1496,-3.1496,-3.1496,-3.1496,-3.1496,-3.1496,-3.1496,-3.1496,-3.1496,-3.1496,-3.1496,-3.1496,-3.1496,-3.1466,-3.1286,-3.0731,-3.0353,-3.0129,-2.995,-2.9612,-3.0131,-3.0513,-3.0497,-3.0513,-3.0518,-3.0489,-3.0489,-3.0489,-3.0489,-3.0489,-3.0489,-3.0489,-3.0489,-3.0489,-4.3305,-4.3305,-4.3305,-4.3305,-4.32,-4.2626,-4.2036,-4.1377,-4.0681,-4.0038,-3.9508,-3.9388,-3.9388,-3.9388,-3.9388,-3.9388,-3.9388,-3.9388,-3.9388,-3.9388,-3.9388,-3.9388,-3.9388,-3.9388,-3.9298,-3.908,-3.8661,-3.8302,-3.8093,-3.7494,-3.718,-3.715,-3.6552,-3.6222,-3.6193,-3.5804,-3.5519,-3.5489,-3.5519,-3.5504,-3.5489,-3.5489,-3.5489,-3.5489,-3.5519,-3.5519,-3.5504,-3.5489,-3.5489,-3.5489,-3.5489,-3.5489,-3.5489,-3.5489,-3.5489,-3.5489,-3.5489,-3.5489,-3.5489,-3.5489,-3.5489,-3.5489,-3.5489,-3.5489,-3.5489,-3.5489,-3.5489,-3.5489,-3.5489,-3.5489,-3.5489,-3.5489,-3.5489,-3.5489,-3.5489,-3.525,-3.4562,-3.3769,-3.3066,-3.2557,-3.1944,-3.163,-3.1511,-3.1496,-3.1496,-3.1496,-3.1496,-3.1496,-3.1496,-3.1496,-3.1496,-3.1496,-3.1496,-3.1496,-3.1466,-3.1361,-3.1091,-3.0666,-3.057,-3.0694,-3.042,-3.0449,-3.0559,-3.0545,-3.0552,-3.0552,-3.0509,-3.0489,-3.0489,-3.0489,-3.0489,-3.0489,-3.0489,-3.0489,-3.0489,-4.3305,-4.3305,-4.3305,-4.3305,-4.3215,-4.2626,-4.2186,-4.1692,-4.0786,-4.0217,-3.9828,-3.9514,-3.9388,-3.9388,-3.9388,-3.9388,-3.9388,-3.9388,-3.9388,-3.9388,-3.9388,-3.9388,-3.9388,-3.9388,-3.9388,-3.9343,-3.902,-3.8856,-3.8706,-3.8153,-3.7853,-3.7704,-3.718,-3.6881,-3.6851,-3.6537,-3.6148,-3.5983,-3.5908,-3.5818,-3.5534,-3.5489,-3.5489,-3.5564,-3.5729,-3.5923,-3.5908,-3.5669,-3.5504,-3.5489,-3.5489,-3.5489,-3.5489,-3.5489,-3.5489,-3.5489,-3.5489,-3.5489,-3.5489,-3.5489,-3.5489,-3.5489,-3.5489,-3.5489,-3.5489,-3.5489,-3.5489,-3.5489,-3.5489,-3.5489,-3.5489,-3.5489,-3.5489,-3.5489,-3.5489,-3.534,-3.4921,-3.4369,-3.3649,-3.3006,-3.2348,-3.178,-3.1585,-3.1525,-3.1511,-3.1496,-3.1496,-3.1496,-3.1496,-3.1496,-3.1496,-3.1496,-3.1496,-3.1496,-3.1496,-3.1421,-3.1391,-3.1012,-3.093,-3.1089,-3.0949,-3.0744,-3.0592,-3.0561,-3.0598,-3.0576,-3.0471,-3.0429,-3.0489,-3.0489,-3.0489,-3.0522,-3.0555,-3.0803,-3.0754,-4.3305,-4.3305,-4.3305,-4.3305,-4.3215,-4.2716,-4.2396,-4.2036,-4.1078,-4.0412,-4.0113,-3.9612,-3.9403,-3.9388,-3.9388,-3.9388,-3.9388,-3.9388,-3.9388,-3.9388,-3.9388,-3.9388,-3.9388,-3.9388,-3.9388,-3.9373,-3.9388,-3.9328,-3.9185,-3.8721,-3.8527,-3.8347,-3.7838,-3.7539,-3.7449,-3.7375,-3.709,-3.6671,-3.6582,-3.6372,-3.6013,-3.5938,-3.5953,-3.6013,-3.6327,-3.6552,-3.6447,-3.6133,-3.5818,-3.5729,-3.5579,-3.5504,-3.5504,-3.5519,-3.5639,-3.5729,-3.5804,-3.5848,-3.5639,-3.5699,-3.5564,-3.5534,-3.5489,-3.5489,-3.5489,-3.5489,-3.5489,-3.5489,-3.5489,-3.5489,-3.5489,-3.5489,-3.5489,-3.5489,-3.5489,-3.5489,-3.5385,-3.4891,-3.4233,-3.3679,-3.3021,-3.2348,-3.1929,-3.1645,-3.163,-3.1824,-3.1705,-3.1496,-3.1496,-3.1496,-3.1496,-3.1496,-3.1496,-3.1496,-3.1496,-3.1481,-3.1481,-3.136,-3.13,-3.1328,-3.1167,-3.0954,-3.0691,-3.0608,-3.0896,-3.0742,-3.0315,-3.0337,-3.0599,-3.0737,-3.0903,-3.0803,-3.0737,-3.1205,-3.1371,-4.3305,-4.3305,-4.3305,-4.3305,-4.3275,-4.3125,-4.2551,-4.1624,-4.1324,-4.0606,-3.9813,-3.9463,-3.9388,-3.9388,-3.9388,-3.9388,-3.9388,-3.9388,-3.9388,-3.9388,-3.9388,-3.9388,-3.9388,-3.9388,-3.9388,-3.9388,-3.9388,-3.9388,-3.9298,-3.9224,-3.9149,-3.9065,-3.8527,-3.8182,-3.8138,-3.7778,-3.7375,-3.7225,-3.7225,-3.712,-3.6941,-3.6881,-3.6911,-3.6956,-3.709,-3.7165,-3.721,-3.709,-3.7,-3.6761,-3.6133,-3.5654,-3.5729,-3.6058,-3.6252,-3.6357,-3.6686,-3.6746,-3.6387,-3.6252,-3.6058,-3.5684,-3.5669,-3.5489,-3.5504,-3.5579,-3.5564,-3.5504,-3.5489,-3.5624,-3.5579,-3.5519,-3.5489,-3.5489,-3.5489,-3.5489,-3.5385,-3.4906,-3.4503,-3.4158,-3.3694,-3.323,-3.3036,-3.2452,-3.2273,-3.2198,-3.1899,-3.1555,-3.1496,-3.1496,-3.1496,-3.1496,-3.1496,-3.1496,-3.1496,-3.1496,-3.1496,-3.1496,-3.1496,-3.1495,-3.1353,-3.1213,-3.0948,-3.1046,-3.1358,-3.1019,-3.0567,-3.0986,-3.1416,-3.1383,-3.1366,-3.1366,-3.147,-3.1802,-3.1901,-4.3305,-4.3305,-4.3305,-4.3305,-4.3305,-4.329,-4.2901,-4.2252,-4.1647,-4.0995,-4.0307,-3.9753,-3.9388,-3.9388,-3.9388,-3.9388,-3.9388,-3.9388,-3.9388,-3.9388,-3.9388,-3.9388,-3.9388,-3.9388,-3.9388,-3.9388,-3.9388,-3.9388,-3.9388,-3.9388,-3.9358,-3.9388,-3.9035,-3.8901,-3.8871,-3.8497,-3.8212,-3.7913,-3.7868,-3.7734,-3.7464,-3.7404,-3.7629,-3.7704,-3.7614,-3.7509,-3.7823,-3.7524,-3.7419,-3.724,-3.6791,-3.6402,-3.6417,-3.6731,-3.6896,-3.6985,-3.7165,-3.7285,-3.6985,-3.6896,-3.6776,-3.6417,-3.6402,-3.6387,-3.6387,-3.6402,-3.6222,-3.6118,-3.6193,-3.6327,-3.5998,-3.5609,-3.5549,-3.5489,-3.5504,-3.5489,-3.5444,-3.516,-3.4818,-3.4593,-3.4189,-3.3784,-3.3455,-3.3036,-3.2647,-3.2392,-3.1809,-3.1496,-3.1496,-3.1496,-3.1496,-3.1496,-3.1496,-3.1496,-3.1496,-3.1496,-3.1496,-3.1496,-3.1496,-3.1496,-3.1441,-3.1324,-3.1204,-3.1382,-3.1552,-3.1444,-3.1158,-3.1701,-3.2111,-3.2116,-3.2116,-3.2116,-3.2199,-3.2381,-3.2381,-4.3305,-4.3305,-4.3305,-4.3305,-4.3305,-4.329,-4.311,-4.2737,-4.1878,-4.1145,-4.0891,-3.9858,-3.9388,-3.9388,-3.9388,-3.9388,-3.9388,-3.9388,-3.9388,-3.9388,-3.9388,-3.9388,-3.9388,-3.9388,-3.9388,-3.9388,-3.9388,-3.9388,-3.9388,-3.9388,-3.9388,-3.9409,-3.9373,-3.9305,-3.9364,-3.9379,-3.905,-3.8601,-3.8542,-3.8377,-3.7973,-3.7883,-3.8138,-3.8347,-3.8182,-3.8123,-3.8377,-3.8153,-3.7808,-3.7719,-3.7719,-3.7719,-3.7689,-3.7569,-3.7554,-3.7569,-3.7749,-3.7778,-3.7629,-3.7554,-3.7509,-3.7464,-3.736,-3.736,-3.7315,-3.7225,-3.7015,-3.6926,-3.6911,-3.7045,-3.6656,-3.6118,-3.5789,-3.5669,-3.5609,-3.5504,-3.5489,-3.5489,-3.5175,-3.4878,-3.4696,-3.4502,-3.3933,-3.3425,-3.2991,-3.2512,-3.1929,-3.1496,-3.1496,-3.1496,-3.1496,-3.1496,-3.1496,-3.1496,-3.1496,-3.1496,-3.1496,-3.1496,-3.1496,-3.1496,-3.1496,-3.1431,-3.1358,-3.1479,-3.1553,-3.1611,-3.1926,-3.2432,-3.2749,-3.2823,-3.2868,-3.2862,-3.2895,-3.2967,-3.2967,-4.3305,-4.3305,-4.3305,-4.3305,-4.3305,-4.3305,-4.2746,-4.1773,-4.1534,-4.0741,-3.9843,-3.9493,-3.9388,-3.9388,-3.9388,-3.9388,-3.9388,-3.9388,-3.9388,-3.9388,-3.9388,-3.9388,-3.9388,-3.9388,-3.9388,-3.9388,-3.9388,-3.9388,-3.9388,-3.9388,-3.9388,-3.9388,-3.9388,-3.9388,-3.9388,-3.9388,-3.9328,-3.9155,-3.9125,-3.9005,-3.8931,-3.8901,-3.8931,-3.914,-3.8916,-3.899,-3.9074,-3.9089,-3.9044,-3.9059,-3.908,-3.905,-3.8856,-3.8467,-3.8257,-3.8317,-3.8631,-3.8661,-3.8317,-3.8227,-3.7928,-3.7584,-3.7539,-3.7509,-3.7494,-3.7494,-3.7569,-3.7434,-3.736,-3.7345,-3.727,-3.6701,-3.6387,-3.6207,-3.5878,-3.5579,-3.5564,-3.5504,-3.5474,-3.5205,-3.522,-3.519,-3.4577,-3.3963,-3.344,-3.2901,-3.2228,-3.172,-3.1496,-3.1496,-3.1496,-3.1496,-3.1496,-3.1496,-3.1496,-3.1496,-3.1496,-3.1496,-3.1496,-3.1496,-3.1496,-3.1496,-3.1531,-3.1741,-3.211,-3.2436,-3.2793,-3.3126,-3.3336,-3.3406,-3.3515,-3.3607,-3.3696,-3.374,-3.3839,-4.3305,-4.3305,-4.3305,-4.3305,-4.3305,-4.3305,-4.2791,-4.1961,-4.1557,-4.0846,-4.0053,-3.9553,-3.9388,-3.9388,-3.9388,-3.9388,-3.9388,-3.9388,-3.9388,-3.9388,-3.9388,-3.9388,-3.9388,-3.9388,-3.9388,-3.9388,-3.9388,-3.9388,-3.9388,-3.9388,-3.9388,-3.9388,-3.9388,-3.9388,-3.9388,-3.9388,-3.9388,-3.9388,-3.9388,-3.9388,-3.9388,-3.9388,-3.9388,-3.9388,-3.9388,-3.9388,-3.9388,-3.9388,-3.9373,-3.9358,-3.9373,-3.9388,-3.9284,-3.9119,-3.8901,-3.896,-3.923,-3.932,-3.899,-3.8916,-3.8766,-3.8556,-3.8422,-3.8437,-3.8452,-3.8476,-3.8342,-3.8272,-3.7629,-3.7554,-3.7853,-3.733,-3.703,-3.6866,-3.6387,-3.6043,-3.5923,-3.5684,-3.5564,-3.5489,-3.5429,-3.534,-3.528,-3.4637,-3.3978,-3.329,-3.2617,-3.2079,-3.1645,-3.16,-3.163,-3.1496,-3.1496,-3.1496,-3.1496,-3.1496,-3.1496,-3.1496,-3.1481,-3.1481,-3.1406,-3.1361,-3.1764,-3.2182,-3.2598,-3.2619,-3.3029,-3.3118,-3.3558,-3.3964,-3.405,-3.4129,-3.4372,-3.4535,-3.4478,-4.3305,-4.3305,-4.3305,-4.3305,-4.3305,-4.3305,-4.2955,-4.2381,-4.1871,-4.1272,-4.0576,-4.0098,-3.9798,-3.9619,-3.9463,-3.9388,-3.9388,-3.9388,-3.9388,-3.9388,-3.9388,-3.9388,-3.9388,-3.9388,-3.9388,-3.9388,-3.9388,-3.9388,-3.9388,-3.9388,-3.9388,-3.9388,-3.9388,-3.9388,-3.9388,-3.9388,-3.9388,-3.9388,-3.9388,-3.9388,-3.9388,-3.9388,-3.9388,-3.9388,-3.9388,-3.9388,-3.9388,-3.9388,-3.9388,-3.9388,-3.9388,-3.9388,-3.9388,-3.9388,-3.9388,-3.9388,-3.9388,-3.9388,-3.9358,-3.9379,-3.9239,-3.9149,-3.9313,-3.9343,-3.9313,-3.9164,-3.9254,-3.9179,-3.8631,-3.8093,-3.8452,-3.8003,-3.7689,-3.7434,-3.6971,-3.6432,-3.6222,-3.5953,-3.5549,-3.5489,-3.5489,-3.5459,-3.5385,-3.4936,-3.4188,-3.3873,-3.32,-3.2542,-3.2108,-3.1914,-3.1839,-3.1585,-3.1496,-3.1496,-3.1496,-3.1496,-3.1496,-3.1496,-3.1451,-3.1406,-3.1286,-3.1182,-3.1581,-3.1817,-3.1796,-3.1863,-3.245,-3.3097,-3.3435,-3.3792,-3.4276,-3.4472,-3.4374,-3.4454,-3.4478,-4.3305,-4.3305,-4.3305,-4.3305,-4.3305,-4.3305,-4.297,-4.241,-4.2276,-4.1916,-4.1227,-4.1115,-4.0741,-4.0292,-3.9723,-3.9514,-3.9478,-3.9568,-3.9627,-3.9642,-3.9649,-3.9649,-3.9463,-3.9388,-3.9508,-3.9493,-3.9433,-3.9388,-3.9388,-3.9388,-3.9388,-3.9388,-3.9388,-3.9388,-3.9388,-3.9388,-3.9388,-3.9388,-3.9388,-3.9388,-3.9388,-3.9388,-3.9388,-3.9388,-3.9388,-3.9388,-3.9388,-3.9388,-3.9388,-3.9388,-3.9388,-3.9388,-3.9388,-3.9388,-3.9388,-3.9388,-3.9388,-3.9388,-3.9388,-3.9388,-3.9388,-3.9388,-3.9388,-3.9388,-3.9388,-3.9388,-3.9388,-3.9388,-3.9104,-3.9014,-3.902,-3.8646,-3.8377,-3.7928,-3.7404,-3.6821,-3.6462,-3.6178,-3.5774,-3.54,-3.537,-3.5444,-3.5444,-3.4921,-3.4444,-3.4158,-3.3799,-3.3125,-3.2452,-3.2153,-3.1899,-3.1615,-3.1256,-3.1212,-3.1197,-3.1241,-3.1137,-3.1241,-3.1271,-3.1197,-3.1002,-3.0808,-3.0776,-3.0943,-3.0985,-3.1356,-3.2091,-3.2707,-3.3151,-3.3449,-3.3681,-3.3901,-3.4093,-3.4234,-3.4431,-4.3305,-4.3305,-4.3305,-4.3305,-4.3305,-4.3305,-4.297,-4.2485,-4.2381,-4.2036,-4.1512,-4.1422,-4.1257,-4.0905,-4.0621,-4.0561,-4.0531,-4.0487,-4.0531,-4.0472,-4.0472,-4.0487,-4.0457,-4.0172,-3.9978,-3.9903,-3.9634,-3.9388,-3.9388,-3.9403,-3.9388,-3.9388,-3.9388,-3.9388,-3.9388,-3.9388,-3.9388,-3.9388,-3.9388,-3.9388,-3.9388,-3.9388,-3.9388,-3.9388,-3.9403,-3.9403,-3.9388,-3.9388,-3.9388,-3.9388,-3.9388,-3.9388,-3.9388,-3.9388,-3.9388,-3.9388,-3.9388,-3.9388,-3.9388,-3.9373,-3.9388,-3.9388,-3.9388,-3.9388,-3.9388,-3.9388,-3.9388,-3.9388,-3.9388,-3.9388,-3.9388,-3.9155,-3.905,-3.8646,-3.7943,-3.7389,-3.6881,-3.6372,-3.6013,-3.5609,-3.5235,-3.5295,-3.5385,-3.522,-3.4801,-3.4518,-3.4158,-3.3604,-3.2751,-3.1974,-3.175,-3.1555,-3.1152,-3.0823,-3.0821,-3.0806,-3.0477,-3.0537,-3.0761,-3.0687,-3.0552,-3.0432,-3.0372,-3.0552,-3.0833,-3.1273,-3.1847,-3.2238,-3.2676,-3.2868,-3.2986,-3.3371,-3.3764,-3.4109,-3.4358,-4.3305,-4.3305,-4.3305,-4.3305,-4.3305,-4.3305,-4.306,-4.2641,-4.2665,-4.2342,-4.1923,-4.1758,-4.1677,-4.1549,-4.1452,-4.1272,-4.1362,-4.1422,-4.1422,-4.1422,-4.1422,-4.1347,-4.1115,-4.0816,-4.0651,-4.0651,-4.0322,-3.9978,-3.9753,-3.9679,-3.9649,-3.9403,-3.9388,-3.9388,-3.9388,-3.9388,-3.9388,-3.9388,-3.9388,-3.9388,-3.9388,-3.9388,-3.9388,-3.9433,-3.9508,-3.9589,-3.9469,-3.9664,-3.9709,-3.9388,-3.9388,-3.9388,-3.9388,-3.9388,-3.926,-3.923,-3.9194,-3.929,-3.9245,-3.9245,-3.9343,-3.9388,-3.9388,-3.9388,-3.9388,-3.9388,-3.9388,-3.9388,-3.9388,-3.9388,-3.9388,-3.9394,-3.9298,-3.9095,-3.8676,-3.8093,-3.7479,-3.6821,-3.6163,-3.5639,-3.5295,-3.507,-3.519,-3.54,-3.522,-3.4893,-3.4488,-3.4008,-3.3125,-3.2093,-3.1511,-3.1301,-3.0972,-3.0567,-3.0328,-3.0223,-2.9924,-2.9894,-3.0133,-3.0088,-2.9924,-2.9968,-2.9998,-3.0283,-3.0658,-3.1069,-3.1513,-3.185,-3.2142,-3.2041,-3.2125,-3.295,-3.3491,-3.3818,-3.4251,-4.3305,-4.3305,-4.3305,-4.3305,-4.3305,-4.3305,-4.326,-4.314,-4.3185,-4.3125,-4.294,-4.2596,-4.2336,-4.2231,-4.1833,-4.1579,-4.1512,-4.1437,-4.1602,-4.1587,-4.1452,-4.1617,-4.1549,-4.1489,-4.1309,-4.1309,-4.101,-4.0696,-4.0457,-4.0337,-3.9978,-3.9463,-3.9478,-3.9418,-3.9493,-3.9642,-3.9642,-3.9627,-3.9597,-3.9568,-3.9582,-3.9582,-3.9604,-3.9694,-3.9978,-4.0068,-3.9514,-4.0023,-4.0172,-3.9672,-3.9687,-3.9553,-3.9634,-3.9604,-3.9379,-3.8856,-3.917,-3.9125,-3.8871,-3.9125,-3.9358,-3.9388,-3.9388,-3.9388,-3.9388,-3.9388,-3.9388,-3.9388,-3.9388,-3.9388,-3.9388,-3.9388,-3.9388,-3.9254,-3.8931,-3.8392,-3.7734,-3.703,-3.6387,-3.5744,-3.5295,-3.4981,-3.4741,-3.4891,-3.51,-3.4803,-3.4502,-3.4068,-3.329,-3.2332,-3.1436,-3.0972,-3.0731,-3.0342,-2.9849,-2.9744,-2.9879,-2.9789,-2.9834,-2.9564,-2.9235,-2.934,-2.9337,-3.0118,-3.0552,-3.0881,-3.121,-3.1545,-3.1615,-3.1097,-3.1261,-3.2242,-3.2956,-3.3292,-3.3885,-4.3305,-4.3305,-4.3305,-4.3305,-4.3305,-4.3305,-4.3305,-4.3305,-4.3305,-4.3305,-4.3275,-4.3075,-4.297,-4.2865,-4.2791,-4.2581,-4.2581,-4.2581,-4.2536,-4.2566,-4.2581,-4.2581,-4.2491,-4.2177,-4.2021,-4.1946,-4.1677,-4.1362,-4.104,-4.101,-4.092,-4.0531,-3.9918,-4.0113,-4.0232,-4.0232,-4.0232,-4.0382,-4.0262,-4.0172,-4.0606,-4.0621,-4.0621,-4.0666,-4.0771,-4.0891,-4.0711,-4.0861,-4.0801,-4.0636,-4.0516,-4.0292,-4.0008,-3.9978,-3.9439,-3.8676,-3.911,-3.899,-3.8661,-3.899,-3.9373,-3.9388,-3.9388,-3.9388,-3.9388,-3.9388,-3.9388,-3.9388,-3.9388,-3.9388,-3.9388,-3.9388,-3.9373,-3.9313,-3.908,-3.8616,-3.7943,-3.724,-3.6567,-3.5908,-3.5235,-3.4728,-3.4487,-3.4322,-3.4547,-3.4666,-3.4412,-3.4038,-3.323,-3.2467,-3.1511,-3.0883,-3.0657,-3.0417,-2.9968,-2.9939,-2.9968,-2.9789,-2.9621,-2.9445,-2.9146,-2.8319,-2.8483,-2.943,-3.0357,-3.0612,-3.0926,-3.1256,-3.1241,-3.1016,-3.1185,-3.1759,-3.2304,-3.2741,-3.321,-4.3305,-4.3305,-4.3305,-4.3305,-4.3305,-4.3305,-4.3305,-4.3305,-4.3305,-4.3305,-4.3305,-4.3305,-4.3305,-4.3305,-4.3275,-4.3245,-4.3185,-4.32,-4.3245,-4.3215,-4.3185,-4.3305,-4.318,-4.294,-4.268,-4.2521,-4.2267,-4.1968,-4.1669,-4.1683,-4.1639,-4.1294,-4.0681,-4.0786,-4.0935,-4.101,-4.0935,-4.1115,-4.1055,-4.0861,-4.1309,-4.1362,-4.1347,-4.1354,-4.1504,-4.1317,-4.1153,-4.104,-4.095,-4.0801,-4.0711,-4.0756,-4.0561,-4.0247,-3.9753,-3.929,-3.902,-3.908,-3.8781,-3.8975,-3.9358,-3.9388,-3.9388,-3.9388,-3.9388,-3.9388,-3.9388,-3.9388,-3.9388,-3.9388,-3.9388,-3.9388,-3.9388,-3.9343,-3.9358,-3.896,-3.8108,-3.736,-3.6716,-3.6073,-3.5429,-3.4878,-3.4369,-3.4143,-3.4008,-3.4173,-3.4023,-3.3634,-3.3006,-3.2243,-3.1481,-3.0957,-3.0687,-3.0447,-3.0223,-3.0058,-2.9894,-2.9744,-2.9636,-2.9729,-2.9352,-2.8528,-2.8528,-2.9849,-3.0507,-3.0432,-3.0776,-3.1316,-3.1316,-3.1137,-3.136,-3.1546,-3.1647,-3.206,-3.2242,-4.3305,-4.3305,-4.3305,-4.3305,-4.3305,-4.3305,-4.3305,-4.3305,-4.3305,-4.3305,-4.3305,-4.3305,-4.3305,-4.3305,-4.3305,-4.3305,-4.3305,-4.3305,-4.3305,-4.3305,-4.3305,-4.3305,-4.3275,-4.3185,-4.3105,-4.3245,-4.2991,-4.2671,-4.2381,-4.2342,-4.2381,-4.2081,-4.1429,-4.1205,-4.1369,-4.1407,-4.1407,-4.1399,-4.1429,-4.1354,-4.1609,-4.1683,-4.1698,-4.1818,-4.2117,-4.1908,-4.1362,-4.1437,-4.116,-4.0472,-4.0741,-4.0786,-4.0606,-4.0546,-4.0098,-3.9424,-3.9328,-3.9095,-3.8571,-3.911,-3.9328,-3.9388,-3.9388,-3.9388,-3.9388,-3.9388,-3.9388,-3.9388,-3.9388,-3.9388,-3.9388,-3.9388,-3.9388,-3.9358,-3.9343,-3.9035,-3.8182,-3.7539,-3.6896,-3.6342,-3.5818,-3.5235,-3.4562,-3.4023,-3.3679,-3.3574,-3.3544,-3.32,-3.2691,-3.2079,-3.1406,-3.1197,-3.0898,-3.0776,-3.0537,-3.0058,-2.9804,-2.9669,-2.9744,-2.9983,-3.0028,-2.9636,-2.9909,-3.0642,-3.0702,-3.0672,-3.1017,-3.1496,-3.1346,-3.121,-3.1167,-3.1282,-3.1325,-3.1311,-3.1465,-4.3305,-4.3305,-4.3305,-4.3305,-4.3305,-4.3305,-4.3305,-4.3305,-4.3305,-4.3305,-4.3305,-4.3305,-4.3305,-4.3305,-4.3305,-4.3305,-4.3305,-4.3305,-4.3305,-4.3305,-4.3305,-4.3305,-4.3305,-4.3305,-4.3305,-4.3305,-4.3275,-4.323,-4.3,-4.294,-4.2671,-4.2366,-4.1938,-4.1683,-4.1811,-4.1788,-4.1683,-4.2312,-4.2043,-4.1728,-4.2521,-4.2626,-4.2611,-4.2596,-4.2836,-4.2462,-4.1632,-4.1826,-4.1347,-4.0636,-4.101,-4.1265,-4.104,-4.095,-4.0502,-3.9738,-3.9439,-3.9349,-3.9125,-3.9313,-3.9373,-3.9388,-3.9388,-3.9388,-3.9388,-3.9388,-3.9388,-3.9388,-3.9388,-3.9388,-3.9388,-3.9388,-3.9358,-3.929,-3.9155,-3.8751,-3.8123,-3.7659,-3.712,-3.6641,-3.6118,-3.5444,-3.4788,-3.4309,-3.3919,-3.338,-3.3305,-3.2976,-3.2467,-3.1989,-3.1436,-3.1421,-3.1271,-3.1122,-3.0883,-3.0582,-3.0522,-3.0597,-3.0522,-3.0522,-3.0507,-3.0417,-3.0612,-3.0943,-3.0928,-3.0928,-3.1241,-3.1481,-3.1421,-3.1326,-3.1248,-3.1177,-3.1152,-3.0911,-3.0559,-4.3305,-4.3305,-4.3305,-4.3305,-4.3305,-4.3305,-4.3305,-4.3305,-4.3305,-4.3305,-4.3305,-4.3305,-4.3305,-4.3305,-4.3305,-4.3305,-4.3305,-4.3305,-4.3305,-4.3305,-4.3305,-4.3305,-4.3305,-4.3305,-4.3305,-4.3305,-4.3305,-4.3275,-4.323,-4.3275,-4.312,-4.2731,-4.2267,-4.2417,-4.2447,-4.2282,-4.2073,-4.2566,-4.2327,-4.2506,-4.3006,-4.3215,-4.323,-4.3215,-4.3155,-4.2865,-4.2267,-4.1931,-4.1647,-4.1287,-4.1377,-4.1707,-4.1309,-4.1115,-4.0756,-4.0083,-3.9514,-3.9469,-3.9358,-3.9358,-3.9388,-3.9388,-3.9388,-3.9388,-3.9388,-3.9388,-3.9388,-3.9388,-3.9388,-3.9388,-3.9388,-3.9388,-3.9328,-3.9245,-3.8886,-3.8497,-3.8197,-3.7719,-3.718,-3.6716,-3.6312,-3.5639,-3.5058,-3.4623,-3.4219,-3.365,-3.308,-3.2736,-3.2378,-3.1929,-3.1555,-3.1481,-3.1481,-3.1331,-3.1286,-3.1271,-3.1271,-3.1466,-3.1271,-3.0987,-3.1032,-3.0972,-3.1122,-3.1227,-3.1197,-3.1227,-3.1361,-3.1481,-3.1436,-3.1361,-3.1282,-3.1177,-3.1065,-3.0694,-3.0247,-4.3305,-4.3305,-4.3305,-4.3305,-4.3305,-4.3305,-4.3305,-4.3305,-4.3305,-4.3305,-4.3305,-4.3305,-4.3305,-4.3305,-4.3305,-4.3305,-4.3305,-4.3305,-4.3305,-4.3305,-4.3305,-4.3305,-4.3305,-4.3305,-4.3305,-4.3305,-4.3305,-4.3305,-4.329,-4.315,-4.312,-4.3021,-4.2566,-4.2581,-4.2476,-4.2357,-4.2306,-4.2611,-4.2776,-4.2925,-4.323,-4.3305,-4.32,-4.3155,-4.306,-4.2432,-4.1788,-4.1294,-4.0666,-4.0442,-4.0636,-4.0756,-4.0846,-4.1025,-4.0801,-4.0367,-3.9679,-3.9478,-3.9388,-3.9388,-3.9388,-3.9388,-3.9388,-3.9388,-3.9388,-3.9388,-3.9388,-3.9388,-3.9388,-3.9388,-3.9388,-3.9358,-3.9328,-3.908,-3.8721,-3.8422,-3.8182,-3.7719,-3.7165,-3.6731,-3.6402,-3.5893,-3.54,-3.4951,-3.4593,-3.4159,-3.3589,-3.3066,-3.2662,-3.2093,-3.1735,-3.1496,-3.1496,-3.1496,-3.1496,-3.1496,-3.1496,-3.1496,-3.1496,-3.1316,-3.1406,-3.1406,-3.1376,-3.1376,-3.1451,-3.1496,-3.1496,-3.1496,-3.1496,-3.1406,-3.1331,-3.1269,-3.1164,-3.0702,-3.0338,-4.3305,-4.3305,-4.3305,-4.3305,-4.3305,-4.3305,-4.3305,-4.3305,-4.3305,-4.3305,-4.3305,-4.3305,-4.3305,-4.3305,-4.3305,-4.3305,-4.3305,-4.3305,-4.3305,-4.3305,-4.3305,-4.3305,-4.3305,-4.3305,-4.3305,-4.3305,-4.3305,-4.329,-4.3185,-4.3,-4.2731,-4.2566,-4.2177,-4.1968,-4.1983,-4.1841,-4.2327,-4.2701,-4.2836,-4.2985,-4.3155,-4.3215,-4.3045,-4.2761,-4.2656,-4.1923,-4.11,-4.0786,-4.0202,-3.9843,-4.0262,-4.0502,-4.0516,-4.0561,-4.0382,-3.9798,-3.9463,-3.9388,-3.9388,-3.9388,-3.9388,-3.9388,-3.9388,-3.9388,-3.9388,-3.9388,-3.9388,-3.9388,-3.9388,-3.9388,-3.9388,-3.9373,-3.9275,-3.896,-3.8586,-3.8227,-3.7958,-3.7554,-3.7015,-3.6626,-3.6312,-3.5893,-3.5459,-3.537,-3.4981,-3.4653,-3.4219,-3.3649,-3.3095,-3.2557,-3.2019,-3.1765,-3.163,-3.1675,-3.154,-3.1496,-3.1496,-3.1496,-3.1496,-3.1496,-3.1466,-3.1466,-3.1481,-3.1496,-3.1496,-3.1496,-3.1496,-3.1496,-3.1496,-3.1496,-3.1436,-3.1361,-3.1227,-3.0853,-3.0687,-4.3305,-4.3305,-4.3305,-4.3305,-4.3305,-4.3305,-4.3305,-4.3305,-4.3305,-4.3305,-4.3305,-4.3305,-4.3305,-4.3305,-4.3305,-4.3305,-4.3305,-4.3305,-4.3305,-4.3305,-4.3305,-4.3305,-4.3305,-4.3305,-4.3305,-4.3305,-4.3305,-4.3305,-4.3185,-4.3045,-4.2791,-4.2776,-4.1803,-4.1863,-4.2147,-4.2402,-4.2462,-4.2731,-4.2851,-4.2851,-4.288,-4.294,-4.2536,-4.2156,-4.2021,-4.1324,-4.0546,-4.0382,-4.0038,-3.9619,-4.0068,-4.0232,-4.0127,-3.9978,-3.9948,-3.9448,-3.9418,-3.9388,-3.9388,-3.9388,-3.9388,-3.9388,-3.9388,-3.9388,-3.9388,-3.9388,-3.9388,-3.9388,-3.9388,-3.9388,-3.9388,-3.9343,-3.914,-3.8871,-3.8437,-3.7988,-3.7644,-3.7315,-3.6911,-3.6507,-3.6103,-3.5699,-3.5489,-3.5489,-3.5444,-3.513,-3.4861,-3.4502,-3.3888,-3.3275,-3.2662,-3.2153,-3.1989,-3.1899,-3.1735,-3.154,-3.1496,-3.1496,-3.1496,-3.1496,-3.1496,-3.1496,-3.1496,-3.1496,-3.1496,-3.1496,-3.1496,-3.1496,-3.1496,-3.1496,-3.1496,-3.1451,-3.1406,-3.1316,-3.1241,-4.3305,-4.3305,-4.3305,-4.3305,-4.3305,-4.3305,-4.3305,-4.3305,-4.3305,-4.3305,-4.3305,-4.3305,-4.3305,-4.3305,-4.3305,-4.3305,-4.3305,-4.3305,-4.3305,-4.3305,-4.3305,-4.3305,-4.3305,-4.3305,-4.3305,-4.3305,-4.3305,-4.3305,-4.3305,-4.317,-4.3125,-4.329,-4.2961,-4.2865,-4.2916,-4.2821,-4.2776,-4.2761,-4.2821,-4.2791,-4.2372,-4.2246,-4.2021,-4.1429,-4.122,-4.095,-4.0457,-4.0187,-4.0053,-3.9843,-3.9798,-3.9933,-3.9672,-3.9478,-3.9433,-3.9418,-3.9388,-3.9388,-3.9388,-3.9388,-3.9388,-3.9388,-3.9388,-3.9388,-3.9388,-3.9388,-3.9388,-3.9388,-3.9388,-3.9388,-3.9388,-3.9358,-3.92,-3.8945,-3.8586,-3.8123,-3.7704,-3.7225,-3.6596,-3.6222,-3.5878,-3.5519,-3.5489,-3.5489,-3.5489,-3.5429,-3.531,-3.5055,-3.4711,-3.4053,-3.341,-3.2751,-3.2348,-3.2153,-3.1884,-3.1705,-3.154,-3.1496,-3.1511,-3.1496,-3.1496,-3.1496,-3.1496,-3.1496,-3.1496,-3.1496,-3.1496,-3.1496,-3.1496,-3.1496,-3.1496,-3.1496,-3.1496,-3.1496,-3.1496,-4.3305,-4.3305,-4.3305,-4.3305,-4.3305,-4.3305,-4.3305,-4.3305,-4.3305,-4.3305,-4.3305,-4.3305,-4.3305,-4.3305,-4.3305,-4.3305,-4.3305,-4.3305,-4.3305,-4.3305,-4.3305,-4.3305,-4.3305,-4.3305,-4.3305,-4.3305,-4.3305,-4.3305,-4.3305,-4.3305,-4.3275,-4.323,-4.3045,-4.2955,-4.3245,-4.303,-4.2806,-4.2821,-4.2671,-4.2342,-4.1713,-4.1572,-4.1362,-4.0846,-4.0576,-4.0322,-3.9918,-3.9642,-3.9568,-3.9463,-3.9544,-3.9544,-3.9388,-3.9388,-3.9388,-3.9388,-3.9388,-3.9388,-3.9388,-3.9388,-3.9388,-3.9388,-3.9388,-3.9388,-3.9388,-3.9388,-3.9388,-3.9388,-3.9388,-3.9388,-3.9373,-3.9328,-3.9254,-3.902,-3.8706,-3.8242,-3.7764,-3.7045,-3.6327,-3.5953,-3.5624,-3.5534,-3.5504,-3.5489,-3.5489,-3.5489,-3.5474,-3.537,-3.5325,-3.4876,-3.4292,-3.3604,-3.2781,-3.2467,-3.2183,-3.1929,-3.1795,-3.16,-3.157,-3.154,-3.1511,-3.1496,-3.1496,-3.1496,-3.1496,-3.1496,-3.1496,-3.1496,-3.1496,-3.1496,-3.1496,-3.1496,-3.1496,-3.1496,-3.1496,-4.3305,-4.3305,-4.3305,-4.3305,-4.3305,-4.3305,-4.3305,-4.3305,-4.3305,-4.3305,-4.3305,-4.3305,-4.3305,-4.3305,-4.3305,-4.3305,-4.3305,-4.3305,-4.3305,-4.3305,-4.3305,-4.3305,-4.3305,-4.3305,-4.3305,-4.3305,-4.3305,-4.3305,-4.3349,-4.3305,-4.3275,-4.3245,-4.294,-4.2925,-4.3245,-4.2985,-4.2791,-4.2851,-4.256,-4.1946,-4.116,-4.092,-4.0621,-4.0172,-3.9903,-3.9672,-3.9597,-3.9388,-3.9388,-3.9388,-3.9418,-3.9433,-3.9388,-3.9388,-3.9388,-3.9388,-3.9388,-3.9388,-3.9388,-3.9388,-3.9388,-3.9388,-3.9388,-3.9388,-3.9388,-3.9388,-3.9388,-3.9388,-3.9388,-3.9388,-3.9388,-3.9358,-3.9328,-3.9185,-3.8661,-3.8123,-3.7479,-3.6731,-3.6148,-3.5714,-3.5519,-3.5519,-3.5489,-3.5489,-3.5489,-3.5489,-3.5489,-3.5489,-3.5489,-3.5489,-3.4966,-3.4487,-3.3679,-3.3125,-3.2931,-3.2542,-3.2108,-3.1899,-3.178,-3.163,-3.1615,-3.154,-3.1496,-3.166,-3.166,-3.1496,-3.1496,-3.163,-3.154,-3.1496,-3.1496,-3.1496,-3.1496,-3.1496,-3.1496,-4.3305,-4.3305,-4.3305,-4.3305,-4.3305,-4.3305,-4.3305,-4.3305,-4.3305,-4.3305,-4.3305,-4.3305,-4.3305,-4.3305,-4.3305,-4.3305,-4.3305,-4.3305,-4.3305,-4.3305,-4.3305,-4.3305,-4.3305,-4.3305,-4.3394,-4.3409,-4.3379,-4.3454,-4.3544,-4.3409,-4.3305,-4.3305,-4.3305,-4.3305,-4.3305,-4.323,-4.3135,-4.2806,-4.241,-4.1713,-4.104,-4.0412,-4.0053,-3.9709,-3.9388,-3.9388,-3.9388,-3.9388,-3.9388,-3.9388,-3.9388,-3.9388,-3.9388,-3.9388,-3.9388,-3.9388,-3.9388,-3.9388,-3.9388,-3.9388,-3.9388,-3.9388,-3.9388,-3.9388,-3.9388,-3.9388,-3.9388,-3.9388,-3.9388,-3.9388,-3.9388,-3.9388,-3.9358,-3.9224,-3.8676,-3.8167,-3.7419,-3.6705,-3.6133,-3.5669,-3.5564,-3.5564,-3.5489,-3.5489,-3.5489,-3.5489,-3.5489,-3.5489,-3.5489,-3.5489,-3.525,-3.504,-3.4637,-3.4158,-3.3709,-3.3155,-3.2647,-3.2587,-3.2452,-3.2034,-3.1824,-3.2108,-3.2198,-3.2019,-3.1974,-3.2034,-3.1914,-3.1974,-3.1824,-3.1705,-3.1511,-3.1511,-3.1496,-3.1496,-3.1496,-4.3305,-4.3305,-4.3305,-4.3305,-4.3305,-4.3305,-4.3305,-4.3305,-4.3305,-4.3305,-4.3305,-4.3305,-4.3305,-4.3305,-4.3305,-4.3305,-4.3305,-4.3305,-4.3305,-4.3305,-4.3305,-4.3305,-4.3424,-4.3648,-4.3693,-4.3738,-4.3738,-4.3633,-4.3723,-4.3499,-4.3305,-4.3305,-4.3305,-4.3305,-4.3305,-4.326,-4.32,-4.294,-4.2566,-4.2051,-4.1369,-4.0726,-4.0038,-3.9694,-3.9388,-3.9388,-3.9388,-3.9388,-3.9388,-3.9388,-3.9388,-3.9388,-3.9388,-3.9388,-3.9388,-3.9388,-3.9388,-3.9388,-3.9388,-3.9388,-3.9388,-3.9388,-3.9388,-3.9388,-3.9388,-3.9388,-3.9388,-3.9388,-3.9388,-3.9388,-3.9388,-3.9388,-3.9358,-3.9194,-3.8811,-3.8497,-3.7973,-3.7195,-3.6522,-3.6118,-3.5833,-3.5699,-3.5489,-3.5489,-3.5489,-3.5489,-3.5489,-3.5489,-3.5489,-3.5489,-3.5489,-3.54,-3.528,-3.4951,-3.4397,-3.3754,-3.3305,-3.3245,-3.3125,-3.2796,-3.2751,-3.308,-3.308,-3.2736,-3.2856,-3.3021,-3.2856,-3.2452,-3.2392,-3.2258,-3.1735,-3.1525,-3.154,-3.1615,-3.172]},{"header":{"parameterUnit":"m.s-1","parameterCategory":1,"la1":31.0,"la2":29.5877,"lo1":-88.7671,"lo2":-86.6584,"dy":0.0162,"dx":0.0185,"nx":115,"ny":88,"refTime":"2026-03-06T12:00:00:Z","depth":0,"parameterNumber":3,"parameterNumberName":"V-component_of_WINDS"},"data":[0.0,0.0,0.0,0.0,0.0,0.0,0.0,0.0,0.0,0.0,0.0,0.0,0.0,0.0,0.0,0.0,0.0,0.0,0.0,0.0,0.0,0.0,0.0,0.0,0.0,0.0,0.0,0.0,0.0,0.0,0.0,0.0,0.0,0.0,0.0,0.0,0.0,0.0,0.0,0.0,0.0,0.0,0.0,0.0,0.0,0.0,0.0,0.0,0.0,0.0,0.0,0.0,0.0,0.0,0.0,0.0,0.0,0.0,0.0,0.0,0.0,0.0,0.0,0.0,0.0,0.0,0.0,0.0,0.0,0.0,0.0,0.0,0.0,0.0,0.0,0.0,0.0,0.0,0.0,0.0,0.0,0.0,0.0,0.0,0.0,0.0,0.0,0.0,0.0,0.0,0.0,0.0,0.0,0.0,0.0,0.0,0.0,0.0,0.0,0.0,0.0,0.0,0.0,0.0,0.0,0.0,0.0,0.0,0.0,0.0,0.0,0.0,0.0,0.0,0.0,0.0,0.0,0.0,0.0,0.0,0.0,0.0,0.0,0.0,0.0,0.0,0.0,0.0,0.0,0.0,0.0,0.0,0.0,0.0,0.0,0.0,0.0,0.0,0.0,0.0,0.0,0.0,0.0,0.0,0.0,0.0,0.0,0.0,0.0,0.0,0.0,0.0,0.0,0.0,0.0,0.0,0.0,0.0,0.0,0.0,0.0,0.0,0.0,0.0,0.0,0.0,0.0,0.0,0.0,0.0,0.0,0.0,0.0,0.0,0.0,0.0,0.0,0.0,0.0,0.0,0.0,0.0,0.0,0.0,0.0,0.0,0.0,0.0,0.0,0.0,0.0,0.0,0.0,0.0,0.0,0.0,0.0,0.0,0.0,0.0,0.0,0.0,0.0,0.0,0.0,0.0,0.0,0.0,0.0,0.0,0.0,0.0,0.0,0.0,0.0,0.0,0.0,0.0,0.0,0.0,0.0,0.0,0.0,0.0,0.0,0.0,0.0,0.0,0.0,0.0,0.0,0.0,0.0,0.0,0.0,0.0,0.0,0.0,0.0,0.0,0.0,0.0,0.0,0.0,0.0,0.0,0.0,0.0,0.0,0.0,0.0,0.0,0.0,0.0,0.0,0.0,0.0,0.0,0.0,0.0,0.0,0.0,0.0,0.0,0.0,0.0,0.0,0.0,0.0,0.0,0.0,0.0,0.0,0.0,0.0,0.0,0.0,0.0,0.0,0.0,0.0,0.0,0.0,0.0,0.0,0.0,0.0,0.0,0.0,0.0,0.0,0.0,0.0,0.0,0.0,0.0,0.0,0.0,0.0,0.0,0.0,0.0,0.0,0.0,0.0,0.0,0.0,0.0,0.0,0.0,0.0,0.0,0.0,0.0,0.0,0.0,0.0,0.0,0.0,0.0,0.0,0.0,0.0,0.0,0.0,0.0,0.0,0.0,0.0,0.0,0.0,0.0,0.0,0.0,0.0,0.0,0.0,0.0,0.0,0.0,0.0,0.0,0.0,0.0,0.0,0.0,0.0,0.0,0.0,0.0,0.0,0.0,0.0,0.0,0.0,0.0,0.0,0.0,0.0,0.0,0.0,0.0,0.0,0.0,0.0,0.0,0.0,0.0,0.0,0.0,0.0,0.0,0.0,0.0,0.0,0.0,0.0,0.0,0.0,0.0,0.0,0.0,0.0,0.0,0.0,0.0,0.0,0.0,0.0,0.0,0.0,0.0,0.0,0.0,0.0,0.0,0.0,0.0,0.0,0.0,0.0,0.0,0.0,0.0,0.0,0.0,0.0,0.0,0.0,0.0,0.0,0.0,0.0,0.0,0.0,0.0,0.0,0.0,0.0,0.0,0.0,0.0,0.0,0.0,0.0,0.0,0.0,0.0,0.0,0.0,0.0,0.0,0.0,0.0,0.0,0.0,0.0,0.0,0.0,0.0,0.0,0.0,0.0,0.0,0.0,0.0,0.0,0.0,0.0,0.0,0.0,0.0,0.0,0.0,0.0,0.0,0.0,0.0,0.0,0.0,0.0,0.0,0.0,0.0,0.0,0.0,0.0,0.0,0.0,0.0,0.0,0.0,0.0,0.0,0.0,0.0,0.0,0.0,0.0,0.0,0.0,0.0,0.0,0.0,0.0,0.0,0.0,0.0,0.0,0.0,0.0,0.0,0.0,0.0,0.0,0.0,0.0,0.0,0.0,0.0,0.0,0.0,0.0,0.0,0.0,0.0,0.0,0.0,0.0,0.0,0.0,0.0,0.0,0.0,0.0,0.0,0.0,0.0,0.0,0.0,0.0,0.0,0.0,0.0,0.0,0.0,0.0,0.0,0.0,0.0,0.0,0.0,0.0,0.0,0.0,0.0,0.0,0.0,0.0,0.0,0.0,0.0,0.0,0.0,0.0,0.0,0.0,0.0,0.0,0.0,0.0,0.0,0.0,0.0,0.0,0.0,0.0,0.0,0.0,0.0,0.0,0.0,0.0,0.0,0.0,0.0,0.0,0.0,0.0,0.0,0.0,0.0,0.0,0.0,0.0,0.0,0.0,0.0,0.0,0.0,0.0,0.0,0.0,0.0,0.0,0.0,0.0,0.0,0.0,0.0,0.0,0.0,0.0,0.0,0.0,0.0,0.0,0.0,0.0,0.0,0.0,0.0,0.0,0.0,0.0,0.0,0.0,0.0,0.0,0.0,0.0,0.0,0.0,0.0,0.0,0.0,0.0,0.0,0.0,0.0,0.0,0.0,0.0,0.0,0.0,0.0,0.0,0.0,0.0,0.0,0.0,0.0,0.0,0.0,0.0,0.0,0.0,0.0,0.0,0.0,0.0,0.0,0.0,0.0,0.0,0.0,0.0,0.0,0.0,0.0,0.0,0.0,0.0,0.0,0.0,0.0,0.0,0.0,0.0,0.0,0.0,0.0,0.0,0.0,0.0,0.0,0.0,0.0,0.0,0.0,0.0,0.0,0.0,0.0,0.0,0.0,0.0,0.0,0.0,0.0,0.0,0.0,0.0,0.0,0.0,0.0,0.0,0.0,0.0,0.0,0.0,0.0,0.0,0.0,0.0,0.0,0.0,0.0,0.0,0.0,0.0,0.0,0.0,0.0,0.0,0.0,0.0,0.0,0.0,0.0,0.0,0.0,0.0,0.0,0.0,0.0,0.0,0.0,0.0,0.0,0.0,0.0,0.0,0.0,0.0,0.0,0.0,0.0,0.0,0.0,0.0,0.0,0.0,0.0,0.0,0.0,0.0,0.0,0.0,0.0,0.0,0.0,0.0,0.0,0.0,0.0,0.0,0.0,0.0,0.0,0.0,0.0,0.0,0.0,0.0,0.0,0.0,0.0,0.0,0.0,0.0,0.0,0.0,0.0,0.0,0.0,0.0,0.0,0.0,0.0,0.0,0.0,0.0,0.0,0.0,0.0,0.0,0.0,0.0,0.0,0.0,0.0,0.0,0.0,0.0,0.0,0.0,0.0,0.0,0.0,0.0,0.0,0.0,0.0,0.0,0.0,0.0,0.0,0.0,0.0,0.0,0.0,0.0,0.0,0.0,0.0,0.0,0.0,0.0,0.0,0.0,0.0,0.0,0.0,0.0,0.0,0.0,0.0,0.0,0.0,0.0,0.0,0.0,0.0,0.0,0.0,0.0,0.0,0.0,0.0,0.0,0.0,0.0,0.0,0.0,0.0,0.0,0.0,0.0,0.0,0.0,0.0,0.0,0.0,0.0,0.0,0.0,0.0,0.0,0.0,0.0,0.0,0.0,0.0,0.0,0.0,0.0,0.0,0.0,0.0,0.0,0.0,0.0,0.0,0.0,0.0,0.0,0.0,0.0,0.0,0.0,0.0,0.0,0.0,0.0,0.0,0.0,0.0,0.0,0.0,0.0,0.0,0.0,0.0,0.0,0.0,0.0,0.0,0.0,0.0,0.0,0.0,0.0,0.0,0.0,0.0,0.0,0.0,0.0,0.0,0.0,0.0,0.0,0.0,0.0,0.0,0.0,0.0,0.0,0.0,0.0,0.0,0.0,0.0,0.0,0.0,0.0,0.0,0.0,0.0,0.0,0.0,0.0,0.0,0.0,0.0,0.0,0.0,0.0,0.0,0.0,0.0,0.0,0.0,0.0,0.0,0.0,0.0,0.0,0.0,0.0,0.0,0.0,0.0,0.0,0.0,0.0,0.0,0.0,0.0,0.0,0.0,0.0,0.0,0.0,0.0,0.0,0.0,0.0,0.0,0.0,0.0,0.0,0.0,0.0,0.0,0.6081,0.0,0.0,0.0,0.0,0.0,0.0,0.0,0.0,0.0,0.0,0.0,0.0,0.0,0.0,0.0,0.0,0.0,0.0,0.0,0.0,0.0,0.0,0.0,0.0,0.0,0.0,0.0,0.0,0.0,0.0,0.0,0.0,0.0,0.0,0.0,0.0,0.0,0.0,0.0,0.0,0.0,0.0,0.0,0.0,0.0,0.0,0.0,0.0,0.0,0.0,0.0,0.0,0.0,0.0,0.0,0.0,0.0,0.0,0.0,0.0,0.0,0.0,0.0,0.0,0.0,0.0,0.0,0.0,0.0,0.0,0.0,0.0,0.0,0.0,0.0,0.0,0.0,0.0,0.0,0.0,0.0,0.0,0.0,0.0,0.0,0.0,0.0,0.0,0.0,0.0,0.0,0.0,0.0,0.0,0.0,0.0,0.0,0.0,0.0,0.0,0.0,0.0,0.0,0.0,0.0,0.0,0.0,0.0,0.0,0.0,0.626,0.6244,0.6143,0.6026,0.5893,0.0,0.0,0.0,0.0,0.0,0.0,0.0,0.0,0.0,0.0,0.0,0.0,0.0,0.0,0.0,0.0,0.0,0.0,0.0,0.0,0.0,0.0,0.0,0.0,0.0,0.0,0.0,0.0,0.0,0.0,0.0,0.0,0.0,0.0,0.0,0.0,0.0,0.0,0.0,0.0,0.0,0.0,0.0,0.0,0.0,0.0,0.0,0.0,0.0,0.0,0.0,0.0,0.0,0.0,0.0,0.0,0.0,0.0,0.0,0.0,0.0,0.0,0.0,0.0,0.0,0.0,0.0,0.0,0.0,0.0,0.0,0.0,0.0,0.0,0.0,0.0,0.0,0.0,0.0,0.0,0.0,0.0,0.0,0.0,0.0,0.0,0.0,0.0,0.0,0.0,0.0,0.0,0.0,0.0,0.0,0.0,0.0,0.0,0.0,0.0,0.0,0.0,0.0,0.0,0.0,0.0,0.0,0.0,0.0,0.0,0.0,0.0,0.614,0.6015,0.5782,0.0,0.0,0.0,0.0,0.0,0.0,0.0,0.0,0.0,0.0,0.0,0.0,0.0,0.0,0.0,0.0,0.0,0.0,0.0,0.0,0.0,0.0,0.0,0.0,0.0,0.0,0.0,0.0,0.0,0.0,0.0,0.0,0.0,0.0,0.0,0.0,0.0,0.0,0.0,0.0,0.0,0.0,0.0,0.0,0.0,0.0,0.0,0.0,0.0,0.0,0.0,0.0,0.0,0.0,0.0,0.0,0.0,0.0,0.0,0.0,0.0,0.0,0.0,0.0,0.0,0.0,0.0,0.0,0.0,0.0,0.0,0.0,0.0,0.0,0.0,0.0,0.0,0.0,0.0,0.0,0.0,0.0,0.0,0.0,0.0,0.0,0.0,0.0,0.0,0.0,0.0,0.0,0.0,0.0,0.0,0.0,0.0,0.0,0.0,0.0,0.0,0.0,0.0,0.0,0.0,0.0,0.0,0.0,0.0,0.0,0.6083,0.6341,0.6301,0.0,0.5904,0.0,0.0,0.0,0.0,0.0,0.0,0.0,0.0,0.0,0.0,0.0,0.0,0.0,0.0,0.0,0.0,0.0,0.0,0.0,0.0,0.0,0.0,0.0,0.0,0.0,0.0,0.0,0.0,0.0,0.0,0.0,0.0,0.0,0.0,0.0,0.0,0.0,0.0,0.0,0.0,0.0,0.0,0.0,0.0,0.0,0.0,0.0,0.0,0.0,0.0,0.0,0.0,0.0,0.0,0.0,0.0,0.0,0.0,0.0,0.0,0.0,0.0,0.0,0.0,0.0,0.0,0.0,0.0,0.0,0.0,0.0,0.0,0.0,0.0,0.0,0.0,0.0,0.0,0.0,0.0,0.0,0.0,0.0,0.0,0.0,0.0,0.0,0.0,0.0,0.0,0.0,0.0,0.0,0.0,0.0,0.0,0.0,0.0,0.0,0.0,0.0,0.0,0.0,0.0,0.0,0.0,0.0,0.0,0.0,0.0,0.6295,0.6227,0.6051,0.5904,0.0,0.0,0.0,0.0,0.0,0.0,0.0,0.0,0.0,0.0,0.0,0.0,0.0,0.0,0.0,0.0,0.0,0.0,0.0,0.0,0.0,0.0,0.0,0.0,0.0,0.0,0.0,0.0,0.0,0.0,0.0,0.0,0.0,0.0,0.0,0.0,0.0,0.0,0.0,0.0,0.0,0.0,0.0,0.0,0.0,0.0,0.0,0.0,0.0,0.0,0.0,0.0,0.0,0.0,0.0,0.0,0.0,0.0,0.0,0.0,0.0,0.0,0.0,0.0,0.0,0.0,0.0,0.0,0.0,0.0,0.0,0.0,0.0,0.0,0.0,0.0,0.0,0.0,0.0,0.0,0.0,0.0,0.0,0.0,0.0,0.0,0.0,0.0,0.0,0.0,0.0,0.0,0.0,0.0,0.0,0.0,0.0,0.0,0.0,0.0,0.0,0.0,0.0,0.0,0.0,0.0,0.0,0.0,0.0,0.0,0.6493,0.6427,0.618,0.5972,0.5803,0.5638,0.0,0.0,0.0,0.0,0.0,0.0,0.0,0.0,0.0,0.0,0.0,0.0,0.0,0.0,0.0,0.0,0.0,0.0,0.0,0.0,0.0,0.0,0.0,0.0,0.0,0.0,0.0,0.0,0.0,0.0,0.0,0.0,0.0,0.0,0.0,0.0,0.0,0.0,0.0,0.0,0.0,0.0,0.0,0.0,0.0,0.0,0.0,0.0,0.0,0.0,0.0,0.0,0.0,0.0,0.0,0.0,0.0,0.0,0.0,0.0,0.0,0.0,0.0,0.0,0.0,0.0,0.0,0.0,0.0,0.0,0.0,0.0,0.0,0.0,0.0,0.0,0.0,0.0,0.0,0.0,0.0,0.0,0.0,0.0,0.0,0.0,0.0,0.0,0.0,0.0,0.0,0.0,0.0,0.0,0.0,0.0,0.0,0.0,0.0,0.0,0.0,0.0,0.0,0.0,0.0,0.0,0.0,0.0,0.71,0.6669,0.6379,0.6306,0.6298,0.6021,0.0,0.0,0.0,0.0,0.0,0.0,0.0,0.0,0.0,0.0,0.0,0.0,0.0,0.0,0.0,0.0,0.0,0.0,0.0,0.0,0.0,0.0,0.0,0.0,0.0,0.0,0.0,0.0,0.0,0.0,0.0,0.0,0.0,0.0,0.0,0.0,0.0,0.0,0.0,0.0,0.0,0.0,0.0,0.0,0.0,0.0,0.0,0.0,0.0,0.0,0.0,0.0,0.0,0.0,0.0,0.0,0.0,0.0,0.0,0.0,0.0,0.0,0.0,0.0,0.0,0.0,0.0,0.0,0.0,0.0,0.0,0.0,0.0,0.0,0.0,0.0,0.0,0.0,0.0,0.0,0.0,0.0,0.0,0.0,0.0,0.0,0.0,0.0,0.0,0.0,0.0,0.0,0.0,0.0,0.0,0.0,0.0,0.0,0.0,0.0,0.0,0.0,0.0,0.0,0.0,0.0,0.0,0.0,0.0,0.6646,0.631,0.6247,0.6453,0.5977,0.5742,0.0,0.0,0.0,0.0,0.0,0.0,0.0,0.0,0.0,0.0,0.0,0.0,0.0,0.0,0.0,0.0,0.0,0.0,0.0,0.0,0.0,0.0,0.0,0.0,0.0,0.0,0.0,0.0,0.0,0.0,0.0,0.0,0.0,0.0,0.0,0.0,0.0,0.0,0.0,0.0,0.0,0.0,0.0,0.0,0.0,0.0,0.0,0.0,0.0,0.0,0.0,0.0,0.0,0.0,0.0,0.0,0.0,0.0,0.0,0.0,0.0,0.0,0.0,0.0,0.0,0.0,0.0,0.0,0.0,0.0,0.0,0.0,0.0,0.0,0.0,0.0,0.0,0.0,0.0,0.0,0.0,0.0,0.0,0.0,0.0,0.0,0.0,0.0,0.0,0.0,0.0,0.0,0.0,0.0,0.0,0.0,0.0,0.0,0.0,0.0,0.0,0.0,0.0,0.0,0.0,0.0,0.0,0.0,0.0,0.7076,0.0,0.7408,0.7036,0.6557,0.6037,0.0,0.0,0.0,0.0,0.0,0.0,0.0,0.0,0.0,0.0,0.0,0.0,0.0,0.0,0.0,0.0,0.0,0.0,0.0,0.0,0.0,0.0,0.0,0.0,0.0,0.0,0.0,0.0,0.0,0.0,0.0,0.0,0.0,0.0,0.0,0.0,0.0,0.0,0.0,0.0,0.0,0.0,0.0,0.0,0.0,0.0,0.0,0.0,0.0,0.0,0.0,0.0,0.0,0.0,0.0,0.0,0.0,0.0,0.0,0.0,0.0,0.0,0.0,0.0,0.0,0.0,0.0,0.0,0.0,0.0,0.0,0.0,0.0,0.0,0.0,0.0,0.0,0.0,0.0,0.0,0.0,0.0,0.0,0.0,0.0,0.0,0.0,0.0,0.0,0.0,0.0,0.0,0.0,0.0,0.0,0.0,0.0,0.0,0.0,0.0,0.0,0.0,0.0,0.0,0.0,0.0,0.0,0.0,0.7415,0.8648,1.0068,0.9875,0.8037,0.797,0.7024,0.0,0.0,0.0,0.0,0.0,0.0,0.0,0.0,0.0,0.0,0.0,0.0,0.0,0.0,0.0,0.0,0.0,0.0,0.0,0.0,0.0,0.0,0.0,0.0,0.0,0.0,0.0,0.0,0.0,0.0,0.0,0.0,0.0,0.0,0.0,0.0,0.0,0.0,0.0,0.0,0.0,0.0,0.0,0.0,0.0,0.0,0.0,0.0,0.0,0.0,0.0,0.0,0.0,0.0,0.0,0.0,0.0,0.0,0.0,0.0,0.0,0.0,0.0,0.0,0.0,0.0,0.0,0.0,0.0,0.0,0.0,0.0,0.0,0.0,0.0,0.0,0.0,0.0,0.0,0.0,0.0,0.0,0.0,0.0,0.0,0.0,0.0,0.0,0.0,0.0,0.0,0.0,0.0,0.0,0.0,0.0,0.0,0.0,0.0,0.0,0.0,0.0,0.0,0.0,0.0,0.0,0.0,0.0,0.0,0.7349,0.9633,1.0193,0.886,0.8512,0.793,0.0,0.0,0.0,0.0,0.0,0.0,0.0,0.0,0.0,0.0,0.0,0.0,0.0,0.0,0.0,0.0,0.0,0.0,0.0,0.0,0.0,0.0,0.0,0.0,0.0,0.0,0.0,0.0,0.0,0.0,0.0,0.0,0.0,0.0,0.0,0.0,0.0,0.0,0.0,0.0,0.0,0.0,0.0,0.0,0.0,0.0,0.0,0.0,0.0,0.0,0.0,0.0,0.0,0.0,0.0,0.0,0.0,0.0,0.0,0.0,0.0,0.0,0.0,0.0,0.0,0.0,0.0,0.0,0.0,0.0,0.0,0.0,0.0,0.0,0.0,0.0,0.0,0.0,0.0,0.0,0.0,0.0,0.0,0.0,0.0,0.0,0.0,0.0,0.0,0.0,0.0,0.0,0.0,0.0,0.0,0.0,0.0,0.0,0.0,0.0,0.0,0.0,0.0,0.0,0.0,0.0,0.0,0.0,0.0,0.8898,1.1414,1.2142,1.0553,1.0094,0.9276,0.8008,0.0,0.0,0.0,0.0,0.0,0.0,0.0,0.0,0.0,0.0,0.0,0.0,0.0,0.0,0.0,0.0,0.0,0.0,0.0,0.0,0.0,0.0,0.0,0.0,0.0,0.0,0.0,0.0,0.0,0.0,0.0,0.0,0.0,0.0,0.0,0.0,0.0,0.0,0.0,0.0,0.0,0.0,0.0,0.0,0.0,0.0,0.0,0.0,0.0,0.0,0.0,0.0,0.0,0.0,0.0,0.0,0.0,0.0,0.0,0.0,0.0,0.0,0.0,0.0,0.0,0.0,0.0,0.0,0.0,0.0,0.0,0.0,0.0,0.0,0.0,0.0,0.0,0.0,0.0,0.0,0.0,0.0,0.0,0.0,0.0,0.0,0.0,0.0,0.0,0.0,0.0,0.0,0.0,0.0,0.0,0.0,0.0,0.0,0.0,0.0,0.0,0.0,0.0,0.0,0.0,0.0,0.0,0.0,1.2277,1.501,1.527,1.2964,1.2507,1.1048,0.0,0.0,0.0,0.0,0.0,0.0,0.0,0.0,0.0,0.0,0.0,0.0,0.0,0.0,0.0,0.0,0.0,0.0,0.0,0.0,0.0,0.0,0.0,0.0,0.0,0.0,0.0,0.0,0.0,0.0,0.0,0.0,0.0,0.0,0.0,0.0,0.0,0.0,0.0,0.0,0.0,0.0,0.0,0.0,0.0,0.0,0.0,0.0,0.0,0.0,0.0,0.0,0.0,0.0,0.0,0.0,0.0,0.0,0.0,0.0,0.0,0.0,0.0,0.0,0.0,0.0,0.0,0.0,0.0,0.0,0.0,0.0,0.0,0.0,0.0,0.0,0.0,0.0,0.0,0.0,0.0,0.0,0.0,0.0,0.0,0.0,0.0,0.0,0.0,0.0,0.0,0.0,0.0,0.0,0.0,0.0,0.0,0.0,0.0,0.0,0.0,0.0,0.0,0.0,0.0,0.0,0.0,0.0,0.0,1.4918,1.6607,1.6493,1.4489,1.3903,1.272,0.0,0.0,0.0,0.0,0.0,0.0,0.0,0.0,0.0,0.0,0.0,0.0,0.0,0.0,0.0,0.0,0.0,0.0,0.0,0.0,0.0,0.0,0.0,0.0,0.0,0.0,0.0,0.0,0.0,0.0,0.0,0.0,0.0,0.0,0.0,0.0,0.0,0.0,0.0,0.0,0.0,0.0,0.0,0.0,0.0,0.0,0.0,0.0,0.0,0.0,0.0,0.0,0.0,0.0,0.0,0.0,0.0,0.0,0.0,0.0,0.0,0.0,0.0,0.0,0.0,0.0,0.0,0.0,0.0,0.0,0.0,0.0,0.0,0.0,0.0,0.0,0.0,0.0,0.0,0.0,0.0,0.0,0.0,0.0,0.0,0.0,0.0,0.0,0.0,0.0,0.0,0.0,0.0,0.0,0.0,0.0,0.0,0.0,0.0,0.0,0.0,0.0,0.0,0.0,0.0,0.0,0.0,0.0,1.5101,1.6374,1.7587,1.7577,1.6263,1.5462,1.4164,0.0,0.0,0.0,0.0,0.0,0.0,0.0,0.0,0.0,0.0,0.0,0.0,0.0,0.0,0.0,0.0,0.0,0.0,0.0,0.0,0.0,0.0,0.0,0.0,0.0,0.0,0.0,0.0,0.0,0.0,0.0,0.0,0.0,0.0,0.0,0.0,0.0,0.0,0.0,0.0,0.0,0.0,0.0,0.0,0.0,0.0,0.0,0.0,0.0,0.0,0.0,0.0,0.0,0.0,0.0,0.0,0.0,0.0,0.0,0.0,0.0,0.0,0.0,0.0,0.0,0.0,0.0,0.0,0.0,0.0,0.0,0.0,0.0,0.0,0.0,0.0,0.0,0.0,0.0,0.0,0.0,0.0,0.0,0.0,0.0,0.0,0.0,0.0,0.0,0.0,0.0,0.0,0.0,0.0,0.0,0.0,0.0,0.0,0.0,0.0,0.0,0.0,0.0,0.0,0.0,0.0,0.0,0.0,1.5553,1.7105,1.8179,1.8469,1.7913,1.6899,1.5313,0.0,0.0,0.0,0.0,0.0,0.0,0.0,0.0,0.0,0.0,0.0,0.0,0.0,0.0,0.0,0.0,0.0,0.0,0.0,0.0,0.0,0.0,0.0,0.0,0.0,0.0,0.0,0.0,0.0,0.0,0.0,0.0,0.0,0.0,0.0,0.0,0.0,0.0,0.0,0.0,0.0,0.0,0.0,0.0,0.0,0.0,0.0,0.0,0.0,0.0,0.0,0.0,0.0,0.0,0.0,0.0,0.0,0.0,0.0,0.0,0.0,0.0,0.0,0.0,0.0,0.0,0.0,0.0,0.0,0.0,0.0,0.0,0.0,0.0,0.0,0.0,0.0,0.0,0.0,0.0,0.0,0.0,0.0,0.0,0.0,0.0,0.0,0.0,0.0,0.0,0.0,0.0,0.0,0.0,0.0,0.0,0.0,0.0,0.0,0.0,0.0,0.0,0.0,0.0,0.0,0.0,0.0,0.0,1.6,1.7376,1.8438,1.874,1.8209,1.7177,1.5688,0.0,0.0,0.0,0.0,0.0,0.0,0.0,0.0,0.0,0.0,0.0,0.0,0.0,0.0,0.0,0.0,0.0,0.0,0.0,0.0,0.0,0.0,0.0,0.0,0.0,0.0,0.0,0.0,0.0,0.0,0.0,0.0,0.0,0.0,0.0,0.0,0.0,0.0,0.0,0.0,0.0,0.0,0.0,0.0,0.0,0.0,0.0,0.0,0.5079,0.0,0.0,0.0,0.0,0.0,0.0,0.0,0.0,0.0,0.0,0.0,0.0,0.0,0.0,0.0,0.0,0.0,0.0,0.0,0.0,0.0,0.0,0.0,0.0,0.0,0.0,0.0,0.0,0.0,0.0,0.0,0.0,0.0,0.0,0.0,0.0,0.0,0.0,0.0,0.0,0.0,0.0,0.0,0.0,0.0,0.0,0.0,0.0,0.0,0.0,0.0,0.0,0.0,0.0,0.0,0.0,0.0,0.0,0.0,1.6266,1.7455,1.8402,1.8638,1.8094,1.731,1.6006,0.0,0.0,0.0,0.0,0.0,0.0,0.0,0.0,0.0,0.0,0.0,0.0,0.0,0.0,0.0,0.0,0.0,0.0,0.0,0.0,0.0,0.0,0.0,0.0,0.0,0.0,0.0,0.0,0.0,0.0,0.0,0.0,0.0,0.0,0.0,0.0,0.0,0.0,0.0,0.0,0.0,0.0,0.0,0.0,0.0,0.0,0.0,0.0,0.0,0.0,0.0,0.0,0.0,0.0,0.0,0.0,0.0,0.0,0.0,0.0,0.0,0.0,0.0,0.0,0.0,0.0,0.0,0.0,0.0,0.0,0.0,0.0,0.0,0.0,0.0,0.0,0.0,0.0,0.0,0.0,0.0,0.0,0.0,0.0,0.0,0.0,0.0,0.0,0.0,0.0,0.0,0.0,0.0,0.0,0.0,0.0,0.0,0.0,0.0,0.0,0.0,0.0,0.0,0.0,0.0,0.0,0.0,1.4751,1.6278,1.7505,1.8191,1.8325,1.7941,1.7511,1.6362,1.4502,0.0,0.0,0.0,0.0,0.0,0.0,0.0,0.0,0.0,0.0,0.0,0.0,0.0,0.0,0.0,0.0,0.0,0.0,0.0,0.0,0.0,0.0,0.0,0.0,0.0,0.0,0.0,0.0,0.0,0.0,0.0,0.0,0.0,0.0,0.0,0.0,0.0,0.0,0.5858,0.6709,0.0,0.0,0.0,0.0,0.0,0.0,0.0,0.0,0.5848,0.0,0.0,0.0,0.0,0.0,0.0,0.0,0.0,0.0,0.0,0.0,0.0,0.0,0.0,0.0,0.0,0.0,0.0,0.0,0.0,0.0,0.0,0.0,0.0,0.0,0.0,0.0,0.0,0.0,0.0,0.0,0.0,0.0,0.0,0.0,0.0,0.0,0.0,0.0,0.0,0.0,0.0,0.0,0.0,0.0,0.0,0.0,0.0,0.0,0.0,0.0,0.0,0.0,0.0,0.0,0.0,1.4665,1.4595,1.55,1.7436,1.7608,1.7874,1.818,1.7917,1.6929,1.5091,0.0,0.0,0.0,0.0,0.0,0.0,0.0,0.0,0.0,0.0,0.0,0.0,0.0,0.0,0.0,0.0,0.0,0.0,0.0,0.0,0.0,0.0,0.0,0.0,0.0,0.0,0.0,0.0,0.0,0.0,0.0,0.0,0.0,0.0,0.0,0.0,0.0,0.0,0.0,0.8402,0.8416,0.0,0.0,0.0,0.0,0.0,0.0,0.0,0.0,0.6433,0.0,0.0,0.0,0.0,0.0,0.0,0.0,0.0,0.0,0.0,0.0,0.0,0.0,0.0,0.0,0.0,0.0,0.0,0.0,0.0,0.0,0.0,0.0,0.0,0.0,0.0,0.0,0.0,0.0,0.0,0.0,0.0,0.0,0.0,0.0,0.0,0.0,0.0,0.0,0.0,0.0,0.0,0.0,0.0,0.0,0.0,0.0,0.0,0.0,0.0,0.0,0.0,0.0,0.0,0.0,1.5296,1.6524,1.805,1.975,1.9307,1.9125,1.9422,1.8076,1.6534,0.0,0.0,0.0,0.0,0.0,0.0,0.0,0.0,0.0,0.0,0.0,0.0,0.0,0.0,0.0,0.0,0.0,0.0,0.0,0.0,0.0,0.0,0.0,0.0,0.0,0.0,0.0,0.0,0.0,0.0,0.0,0.0,0.0,0.0,0.0,0.0,0.0,0.0,0.0,0.0,0.9643,0.9764,0.9678,0.0,0.0,0.0,0.0,0.0,0.0,0.7531,0.6967,0.0,0.0,0.0,0.0,0.0,0.0,0.0,0.0,0.0,0.0,0.0,0.0,0.0,0.0,0.0,0.0,0.0,0.0,0.0,0.0,0.0,0.0,0.0,0.0,0.0,0.0,0.0,0.0,0.0,0.0,0.0,0.0,0.0,0.0,0.0,0.0,0.0,0.0,0.0,0.0,0.0,0.0,0.0,0.0,0.0,0.0,0.0,0.0,0.0,0.0,0.0,0.0,0.0,0.0,0.0,1.581,1.8251,2.0255,2.1698,2.0914,2.0538,2.0684,1.8622,1.6753,0.0,0.0,0.0,0.0,0.0,0.0,0.0,0.0,0.0,0.0,0.0,0.0,0.0,0.0,0.0,0.0,0.0,0.0,0.0,0.0,0.0,0.0,0.0,0.0,0.0,0.0,0.0,0.0,0.0,0.0,0.0,0.0,0.0,0.0,0.0,0.0,0.0,0.0,0.0,0.0,0.0,1.114,1.1419,1.0813,0.0,0.0,0.0,0.0,0.9491,0.8648,0.0,0.0,0.0,0.0,0.0,0.0,0.0,0.0,0.0,0.0,0.0,0.0,0.0,0.0,0.0,0.0,0.0,0.0,0.0,0.0,0.0,0.0,0.0,0.0,0.0,0.0,0.0,0.0,0.0,0.0,0.0,0.0,0.0,0.0,0.0,0.0,0.0,0.0,0.0,0.0,0.0,0.0,0.0,0.0,0.0,0.0,0.0,0.0,0.0,0.0,0.0,0.0,0.0,0.0,0.0,0.0,1.627,1.7784,1.9398,2.1104,2.0825,2.0761,2.1222,2.057,1.9028,0.0,0.0,0.0,0.0,0.0,0.0,0.0,0.0,0.0,0.0,0.0,0.0,0.0,0.0,0.0,0.0,0.0,0.0,0.0,0.0,0.0,0.0,0.0,0.0,0.0,0.0,0.0,0.0,0.0,0.0,0.0,0.0,0.0,0.0,0.0,0.0,0.0,0.0,0.0,0.0,0.0,1.2371,1.1172,1.0894,1.0472,0.0,0.0,1.0323,1.0598,1.0937,0.0,0.0,0.0,0.0,0.0,0.0,0.0,0.0,0.0,0.0,0.0,0.0,0.0,0.0,0.0,0.0,0.0,0.0,0.0,0.0,0.0,0.0,0.0,0.0,0.0,0.0,0.0,0.0,0.0,0.0,0.0,0.0,0.0,0.0,0.0,0.0,0.0,0.0,0.0,0.0,0.0,0.0,0.0,0.0,0.0,0.0,0.0,0.0,0.0,0.0,0.0,0.0,0.0,0.0,0.0,1.6259,1.7529,1.9773,2.1707,2.3117,2.2299,2.1988,2.24,2.0533,1.8704,0.0,0.0,0.0,0.0,0.0,0.0,0.0,0.0,0.0,0.0,0.0,0.0,0.0,0.0,0.0,0.0,0.0,0.0,0.0,0.0,0.0,0.0,0.0,0.0,0.0,0.0,0.0,0.0,0.0,0.0,0.0,0.0,0.0,0.0,0.0,0.0,0.0,0.0,0.0,0.0,0.0,0.0,1.2468,1.2376,0.0,0.0,0.0,1.1642,1.1626,0.0,0.0,0.0,0.0,0.0,0.0,0.0,0.0,0.0,0.0,0.0,0.0,0.0,0.0,0.0,0.0,0.0,0.0,0.0,0.0,0.0,0.0,0.0,0.0,0.0,0.0,0.0,0.0,0.0,0.0,0.0,0.0,0.0,0.0,0.0,0.0,0.0,0.0,0.0,0.0,0.0,0.0,0.0,0.0,0.0,0.0,0.0,0.0,0.0,0.0,0.0,0.0,0.0,0.0,0.0,0.0,0.0,1.843,2.1346,2.3398,2.4418,2.3475,2.3006,2.314,2.073,0.0,0.0,0.0,0.0,0.0,0.0,0.0,0.0,0.0,0.0,0.0,0.0,0.0,0.0,0.0,0.0,0.0,0.0,0.0,0.0,0.0,0.0,0.0,0.0,0.0,0.0,0.0,0.8171,0.0,0.0,0.0,0.0,0.0,0.0,0.0,0.0,0.0,0.0,0.0,0.0,0.0,0.0,1.3113,1.3433,1.3497,1.3428,0.0,0.0,1.2716,1.2498,1.2348,1.1833,0.0,0.0,0.0,0.0,0.0,0.0,0.0,0.0,0.0,0.0,0.0,0.0,0.0,0.0,0.0,0.0,0.0,0.0,0.0,0.0,0.0,0.0,0.0,0.0,0.0,0.0,0.0,0.0,0.0,0.0,0.0,0.0,0.0,0.0,0.0,0.0,0.0,0.0,0.0,0.0,0.0,0.0,0.0,0.0,0.0,0.0,0.0,0.0,0.0,0.0,0.0,0.0,0.0,0.0,1.8217,1.8757,2.1432,2.3123,2.3553,2.3478,2.3277,2.2939,2.2017,2.0226,0.0,0.0,0.0,0.0,0.0,0.0,0.0,0.0,0.0,0.0,0.0,0.0,0.0,0.0,0.0,0.0,0.0,0.0,0.0,0.0,0.0,0.0,0.0,0.0,0.0,0.0,0.0,0.0,0.0,0.0,0.0,0.0,0.0,0.0,0.0,0.0,0.0,0.0,0.0,0.0,0.0,1.3236,1.324,1.3543,1.3837,0.0,1.3629,1.3328,1.3254,1.3626,1.3329,1.1528,0.0,0.0,0.0,0.0,0.0,0.0,0.0,0.0,0.0,0.0,0.0,0.0,0.0,0.0,0.0,0.0,0.0,0.0,0.0,0.0,0.0,0.0,0.0,0.0,0.0,0.0,0.0,0.0,0.0,0.0,0.0,0.0,0.0,0.0,0.0,0.0,0.0,0.0,0.0,0.0,0.0,0.0,0.0,0.0,0.0,0.0,0.0,0.0,0.0,0.0,0.0,0.0,0.0,1.7697,1.8366,2.0845,2.2355,2.273,2.2748,2.2675,2.2519,2.1504,1.9998,0.0,0.0,0.0,0.0,0.0,0.0,0.0,0.0,0.0,0.0,0.0,0.0,0.0,0.0,0.0,0.0,0.0,0.0,0.0,0.0,0.0,0.0,0.0,0.0,0.0,0.0,0.0,0.0,1.0988,1.0606,0.9872,0.0,0.0,0.0,0.0,0.0,0.0,0.0,0.0,0.0,0.0,1.4952,1.5421,1.5767,0.0,0.0,1.4922,1.4441,1.3873,1.3635,1.3193,1.2083,1.1346,0.0,0.0,0.0,0.0,0.0,0.0,0.0,0.0,0.0,0.0,0.0,0.0,0.0,0.0,0.0,0.0,0.0,0.0,0.0,0.0,0.0,0.0,0.0,0.0,0.0,0.0,0.0,0.0,0.0,0.0,0.0,0.0,0.0,0.0,0.0,0.0,0.0,0.0,0.0,0.0,0.0,0.0,0.0,0.0,0.0,0.0,0.0,0.0,0.0,0.0,0.0,0.0,1.7409,1.8239,2.0518,2.1883,2.2226,2.2244,2.2189,2.2126,2.1046,1.9824,0.0,0.0,0.0,0.0,0.0,0.0,0.0,0.0,0.0,0.0,0.0,0.0,0.0,0.0,0.0,0.0,0.0,0.0,0.0,0.0,0.0,0.0,0.0,0.0,0.0,0.0,0.0,0.0,1.2177,1.1494,1.0367,0.0,0.0,0.0,0.0,0.0,0.0,0.0,0.0,0.0,0.0,1.5967,1.6725,1.6859,1.6622,1.6033,1.5309,1.4642,1.4038,1.3736,1.3381,1.2762,0.0,0.0,0.0,0.0,0.0,0.0,0.0,0.0,0.0,0.0,0.0,0.0,0.0,0.0,0.0,0.0,0.0,0.0,0.0,0.0,0.0,0.0,0.0,0.0,0.0,0.0,0.0,1.5151,0.0,0.0,1.5186,0.0,0.0,0.0,0.0,0.0,0.0,0.0,0.0,0.0,0.0,0.0,0.0,0.0,0.0,0.0,0.0,0.0,0.0,0.0,0.0,0.0,0.0,1.7603,1.8508,2.0652,2.187,2.2097,2.2106,2.1972,2.1731,2.09,1.9934,1.8725,0.0,0.0,0.0,0.0,0.0,0.0,0.0,0.0,0.0,0.0,0.0,0.0,0.0,0.0,0.0,0.0,0.0,0.0,0.0,0.0,0.0,0.0,0.0,0.0,0.0,0.0,1.2118,1.1644,1.1087,0.0,0.0,0.0,0.0,0.0,0.0,0.0,0.0,0.0,1.3629,1.4864,1.5967,1.6652,1.6247,1.5991,1.5862,1.465,1.3695,1.3702,1.4099,1.4254,0.0,0.0,0.0,0.0,0.0,0.0,0.0,0.0,0.0,0.0,0.0,0.0,0.0,0.0,0.0,0.0,0.0,0.0,0.0,0.0,0.0,0.0,0.0,0.0,0.0,0.0,0.0,1.9111,1.8287,0.0,0.0,0.0,0.0,0.0,0.0,0.0,0.0,0.0,0.0,0.0,2.1012,2.2203,0.0,0.0,0.0,0.0,0.0,0.0,0.0,0.0,0.0,0.0,0.0,0.0,1.7401,1.8315,2.0349,2.1566,2.1895,2.1913,2.1861,2.1764,2.0969,1.9952,1.8601,0.0,0.0,0.0,0.0,0.0,0.0,0.0,0.0,0.0,0.0,0.0,0.0,0.0,0.0,0.0,0.0,0.0,0.0,0.0,0.0,0.0,0.0,0.0,0.0,0.0,1.2677,0.0,0.0,0.0,0.0,0.0,0.0,0.0,0.0,0.0,0.0,0.0,1.4571,1.5809,1.7174,1.8324,1.8931,1.8848,1.8479,0.0,0.0,0.0,0.0,0.0,0.0,0.0,0.0,0.0,0.0,0.0,0.0,0.0,0.0,1.2762,1.0079,0.9484,0.9506,0.9669,0.0,0.0,0.0,0.0,0.0,0.0,0.0,0.0,0.0,0.0,0.0,0.0,0.0,0.0,2.1246,0.0,2.0161,0.0,0.0,0.0,0.0,0.0,0.0,0.0,0.0,2.3744,2.4371,2.3421,2.4591,2.4243,0.0,2.275,2.1308,0.0,0.0,0.0,0.0,0.0,0.0,0.0,0.0,1.7591,1.8806,2.0664,2.1629,2.1716,2.2223,2.234,2.1993,2.1456,2.0639,1.9449,1.884,1.7968,0.0,0.0,0.0,0.0,0.0,0.0,0.0,0.0,0.0,0.0,0.0,0.0,0.0,0.0,0.0,0.0,0.0,0.0,0.0,0.0,0.0,0.0,0.0,1.3489,0.0,0.0,0.0,0.0,0.0,0.0,0.0,0.0,0.0,1.3281,1.4691,1.6217,1.7504,1.8611,1.9505,2.0014,0.0,0.0,0.0,0.0,0.0,0.0,0.0,1.5375,1.5935,1.5455,1.5132,1.5614,1.574,1.5716,1.5638,0.0,0.0,1.2317,1.1493,1.1286,1.1455,1.1458,1.1483,1.1618,1.194,1.2187,0.0,0.0,0.0,0.0,0.0,0.0,0.0,0.0,2.2608,2.2415,0.0,2.1938,0.0,0.0,0.0,0.0,0.0,2.2753,0.0,0.0,2.6492,2.7438,2.697,2.697,2.6669,2.619,2.6621,2.5491,2.2888,2.0115,0.0,0.0,0.0,0.0,0.0,0.0,1.8245,2.0089,2.1642,2.218,2.1661,2.3061,2.3362,2.2361,2.2355,2.1965,2.1188,2.0818,1.9998,1.8672,1.7363,0.0,0.0,0.0,0.0,0.0,0.0,0.0,0.0,0.0,0.0,0.0,0.0,0.0,0.0,0.0,0.0,0.0,0.0,0.0,0.0,1.3895,0.0,0.0,0.0,0.0,0.0,0.0,0.0,0.0,0.0,0.0,1.573,1.6774,1.7837,1.8634,0.0,0.0,0.0,0.0,1.8647,1.8687,1.7711,1.7024,1.7008,1.764,1.8017,1.7689,0.0,0.0,1.7533,1.6867,1.6501,1.6193,1.6446,1.6375,1.5978,1.4893,1.4111,1.4081,1.3267,1.2638,1.2837,1.3102,1.3149,2.9839,0.0,0.0,0.0,0.0,2.6221,2.7144,2.8486,2.7606,2.6808,2.6066,2.555,0.0,0.0,0.0,0.0,0.0,0.0,2.5551,2.6614,2.7747,2.8402,2.8619,2.8619,2.815,2.7284,2.7416,2.6704,2.5171,2.3953,2.133,1.7477,0.0,0.0,0.0,0.0,2.0107,2.0748,2.2391,2.3165,2.3,2.3431,2.3414,2.2841,2.3301,2.3331,2.2759,2.2659,2.2094,2.0886,1.9017,0.0,0.0,0.0,0.0,0.0,0.0,0.0,0.0,0.0,0.0,0.0,0.0,0.0,0.0,0.0,0.0,0.0,0.0,0.0,1.4091,1.4496,1.4516,0.0,0.0,0.0,0.0,0.0,0.0,0.0,0.0,0.0,1.8148,1.854,1.8976,0.0,0.0,2.0236,2.0206,1.9981,1.9736,1.9539,1.927,0.0,1.8656,1.8221,1.8141,1.8684,1.9333,1.9599,1.921,1.9025,1.8898,1.877,1.8852,1.8857,1.8665,1.7086,1.5856,1.571,1.5518,1.5382,1.5498,1.5542,1.5581,3.31,3.0553,2.8905,2.8586,2.9159,2.9248,3.0013,3.1175,3.029,2.9598,2.9052,2.8533,2.7244,2.5436,2.5263,0.0,0.0,0.0,2.7671,2.863,2.9165,2.9577,2.9869,2.9687,2.9181,2.8448,2.8026,2.7444,2.6731,2.6058,2.4074,2.0919,0.0,0.0,1.9321,2.0576,2.1427,2.1911,2.3159,2.3636,2.3367,2.3658,2.3813,2.3925,2.4337,2.4435,2.4179,2.419,2.3804,2.2893,2.0948,1.9471,0.0,0.0,0.0,0.0,0.0,0.0,0.0,0.0,0.0,0.0,0.0,1.2041,1.0839,0.0,0.0,0.0,1.3827,1.4977,1.5435,1.5645,0.0,0.0,0.0,0.0,0.0,0.0,0.0,1.7508,1.8095,1.8672,1.9434,1.9678,1.9893,2.0146,2.0439,2.0566,2.0459,0.0,2.0372,2.0216,2.0177,2.009,1.9841,1.9316,1.9127,1.9717,2.0004,2.0167,2.0177,2.0177,2.0177,2.0177,2.0177,2.0177,2.0177,1.8987,1.7864,1.7372,1.7044,1.6884,1.6853,1.6903,1.6935,3.5682,3.5461,3.3004,3.1954,3.1882,3.187,3.187,3.1834,3.1363,3.1215,3.1254,3.0767,3.0074,2.9234,2.8741,0.0,2.8556,2.9616,3.0084,3.017,3.0663,3.0844,3.0819,3.0327,2.9922,2.961,2.8587,2.7997,2.7767,2.6966,2.6019,2.4998,2.3301,2.2395,2.2201,2.2038,2.2441,2.3525,2.3975,2.3866,2.3217,2.3829,2.4541,2.5204,2.5252,2.5204,2.5252,2.5192,2.4987,2.4438,2.2809,2.1265,2.0011,0.0,0.0,0.0,0.0,0.0,0.0,0.0,0.0,0.0,0.0,0.0,0.0,0.0,0.0,0.0,1.5687,0.0,1.7189,1.7088,0.0,0.0,0.0,1.5836,1.6645,1.7213,1.787,1.8643,0.0,0.0,1.9933,2.0312,2.0615,2.0615,2.0615,2.0615,2.0615,2.0605,2.0615,2.0566,2.0566,2.0615,2.0527,2.0469,2.0459,2.0518,2.0576,2.0498,2.0547,2.0498,2.0556,2.0557,2.0615,2.0566,2.0615,2.0489,2.0245,1.896,1.8123,1.7577,1.7641,1.7649,1.7626,3.6591,3.6137,3.5085,3.4215,3.3444,3.3444,3.3444,3.3432,3.331,3.284,3.2099,3.1976,3.1134,2.9801,2.9677,2.9616,2.9665,3.0318,3.0819,3.1238,3.1373,3.1434,3.1398,3.0881,3.0372,2.9901,2.9187,2.8817,2.8753,2.8144,2.7532,2.6821,2.6018,2.4781,2.3252,2.3623,2.4113,2.4713,2.4907,2.4933,2.4767,2.4933,2.4932,2.4688,2.4699,2.4711,2.4676,2.4338,2.4254,2.4424,2.2973,2.1968,2.1629,1.8688,0.0,0.0,0.0,0.0,0.0,0.0,0.0,0.0,0.0,1.4739,1.3445,0.0,1.6621,0.0,1.7384,1.828,1.839,1.8185,0.0,0.0,1.8335,1.8337,1.8609,1.8978,1.9308,1.9549,1.9785,2.0049,2.04,2.0537,2.0615,2.0615,2.0615,2.0615,2.0615,2.0615,2.0615,2.0615,2.0595,2.0615,2.0586,2.0615,2.0586,2.0605,2.0321,2.0185,2.0537,2.0283,2.0166,2.0527,2.0615,2.0615,2.0586,2.0615,2.0508,2.0157,1.9805,1.9569,1.9569,1.9411,1.9244,3.7394,3.7059,3.6278,3.5583,3.5059,3.4839,3.4686,3.4686,3.444,3.4089,3.3645,3.3251,3.2437,3.1423,3.1386,3.1386,3.1423,3.1709,3.1978,3.2276,3.2288,3.2276,3.2264,3.1675,3.1088,3.0474,2.9918,2.9443,2.9079,2.8889,2.8508,2.7977,2.7434,2.6505,2.5232,2.5157,2.5237,2.5468,2.553,2.5571,2.5571,2.5571,2.5281,2.4657,2.4713,2.457,2.4206,2.4005,2.3851,2.3809,2.2787,2.2077,2.1825,1.9749,1.8531,0.0,0.0,0.0,0.0,0.0,0.0,0.0,0.0,0.0,0.0,0.0,1.7832,1.774,1.9082,2.0038,2.0254,2.0279,2.0401,2.0619,2.0427,2.0374,2.0627,2.0793,2.1016,2.1253,2.1271,2.1213,2.1163,2.1165,2.0982,2.0644,2.0615,2.0615,2.0615,2.0615,2.0615,2.0605,2.0439,2.0195,2.0039,2.0038,2.0028,1.998,1.9795,1.9717,1.9951,1.9805,1.9717,1.9979,2.0028,2.0028,2.0038,2.0038,2.0038,2.0,1.9924,1.9994,2.0333,2.0333,2.0177,3.8002,3.7902,3.687,3.6417,3.6358,3.5895,3.5716,3.5679,3.5211,3.5117,3.5167,3.4297,3.3633,3.3224,3.3149,3.3124,3.3124,3.3124,3.3124,3.3124,3.3124,3.3124,3.3099,3.2491,3.1814,3.1153,3.0565,2.995,2.9182,2.9353,2.9196,2.8636,2.8164,2.7739,2.7394,2.6526,2.6007,2.5923,2.591,2.5898,2.5923,2.5923,2.5546,2.4789,2.4814,2.4511,2.3691,2.368,2.3474,2.2959,2.2513,2.2018,2.1446,2.0527,1.9703,0.0,1.8329,0.0,0.0,0.0,0.0,0.0,0.0,0.0,0.0,1.8721,1.8981,1.946,2.0838,2.188,2.2288,2.2612,2.2765,2.2765,2.2341,2.2147,2.2366,2.2529,2.2731,2.304,2.3069,2.2761,2.1973,2.188,2.1576,2.0876,2.0731,2.0683,2.0654,2.0605,2.0586,2.0546,2.0117,1.9727,1.9443,1.9326,1.9363,1.9307,1.9248,1.9228,1.9326,1.9258,1.9228,1.9297,1.9346,1.9326,1.9297,1.9307,1.9307,1.9346,1.9355,1.957,2.0146,2.0322,2.0312,3.8002,3.7902,3.6822,3.6417,3.6405,3.631,3.6275,3.6216,3.6163,3.5875,3.5374,3.4329,3.3834,3.3709,3.3269,3.3124,3.3124,3.3124,3.3124,3.3124,3.3124,3.3124,3.3086,3.2478,3.1926,3.1333,3.0791,3.0253,2.9675,2.9702,2.9414,2.885,2.8737,2.8461,2.7959,0.0,0.0,0.0,2.6062,2.6062,2.591,2.5923,2.5409,2.4418,2.4017,0.0,2.2861,2.2439,2.2317,2.2492,2.2586,0.0,0.0,0.0,0.0,0.0,0.0,0.0,0.0,0.0,0.0,0.0,1.9966,1.9488,1.9569,2.0698,2.1684,2.221,2.2919,2.3367,2.3472,2.335,2.3259,2.327,2.3639,2.3688,2.315,2.3743,2.4064,2.3478,2.3404,2.3121,2.2472,2.2285,2.1993,2.1262,2.1089,2.1012,2.0858,2.0722,2.0468,2.0098,1.9658,1.9394,1.9297,1.9248,1.9199,1.9248,1.8965,1.8906,1.9141,1.8965,1.8916,1.917,1.9277,1.9258,1.9258,1.9277,1.9228,1.9268,1.9258,1.9372,1.9529,1.9531,1.9502,3.8002,3.7902,3.687,3.6417,0.0,3.6417,3.6417,3.6417,3.6417,3.6056,3.5458,3.4906,3.4412,3.3884,3.3608,3.3332,3.3124,3.3124,3.3124,3.3124,3.3124,3.3124,3.3111,3.278,3.2202,3.1399,3.1122,3.057,2.9817,2.9779,2.9641,2.934,2.9038,2.875,2.8461,2.7959,2.721,2.6236,2.6292,2.6292,2.6223,2.6188,2.5757,2.4884,2.4404,0.0,0.0,0.0,0.0,0.0,0.0,0.0,0.0,0.0,0.0,2.1333,2.115,2.0908,2.0578,2.0871,2.1293,2.1859,2.2117,2.1972,2.1311,2.2445,2.3442,2.3964,2.4268,2.4536,2.4803,2.4701,2.4636,2.4648,2.4932,2.4981,2.4671,2.4969,2.5123,2.4779,2.4671,2.4384,2.3647,2.3537,2.3021,2.2004,2.1787,2.1606,2.1146,2.0775,2.0294,1.9541,1.9157,1.8896,1.8701,1.8662,1.8662,1.8613,1.8477,1.8437,1.8603,1.8442,1.8373,1.8623,1.8662,1.8652,1.8652,1.8652,1.8652,1.8662,1.8652,1.8652,1.8682,1.8984,1.9209,3.7952,3.7776,3.6832,3.6417,3.6417,3.6417,3.6417,3.6417,0.0,0.0,0.0,3.5533,3.4944,3.406,3.3947,3.3596,3.3136,3.3124,3.3124,3.3124,3.3124,3.3124,3.3124,3.3124,3.2478,3.1411,3.1386,3.0834,2.9817,2.9779,2.9779,2.9741,2.9315,2.8988,2.8863,2.8486,2.7758,2.6839,2.6688,2.66,2.6499,2.6487,2.6154,2.5444,2.5031,2.4429,2.3628,2.3263,2.2767,2.211,2.2201,2.2152,2.195,2.2152,2.2399,2.2702,2.2954,2.2868,2.2406,2.2776,2.3065,2.3053,2.3966,2.4119,2.32,2.3931,2.4657,2.5197,2.5234,2.5431,2.5861,2.591,2.5923,2.5923,2.5945,2.5945,2.5945,2.6002,2.5968,2.6015,2.5933,2.5676,2.4886,2.4743,2.4312,2.3058,2.2723,2.2467,2.168,2.0998,2.0199,1.9392,1.9021,1.863,1.8203,1.8149,1.8076,1.8213,1.8149,1.8076,1.8052,1.8042,1.8042,1.8076,1.8008,1.8037,1.8061,1.8076,1.8042,1.8066,1.8066,1.8032,1.8091,1.859,1.8932,3.7726,3.7249,3.6669,3.6417,3.6417,3.6417,3.6417,3.6417,3.6417,3.6367,3.6267,3.5708,3.5157,3.453,3.4123,3.3596,3.3136,3.3124,3.3124,3.3124,3.3124,3.3124,3.3124,3.3124,3.2478,3.1449,3.1386,3.0834,2.9892,2.9779,2.9779,2.9779,2.9716,2.9415,2.8925,2.8813,2.8461,2.7883,2.7406,2.6964,2.6512,2.6487,2.6189,2.559,2.5064,2.4525,2.3967,2.3898,2.3492,2.2816,2.3379,2.3205,2.2201,2.313,2.3454,2.3008,2.3898,2.4429,2.4226,2.4396,2.4498,2.4523,2.5081,2.5211,2.4825,2.4902,2.521,2.5726,2.5775,2.5812,2.591,2.5923,2.5945,2.5923,2.6062,2.6166,2.6166,2.6292,2.6396,2.6383,2.643,2.6107,2.5418,2.5241,2.4945,2.4084,2.3708,2.3609,2.2933,2.1659,2.0498,1.9841,1.9384,1.8958,1.849,1.8414,1.8381,1.8448,1.8424,1.8381,1.8279,1.8236,1.8212,1.8042,1.8042,1.8076,1.8212,1.811,1.8144,1.8313,1.8313,1.8236,1.8236,1.8404,1.8419,3.7412,3.7123,3.6644,3.6417,3.6417,3.6417,3.6417,3.6417,3.6417,3.6417,3.6392,3.6094,3.5529,3.468,3.4462,3.3884,3.3124,3.3124,3.3124,3.3124,3.3124,3.3124,3.3124,3.3124,3.2478,3.1436,3.1386,3.0834,2.9867,2.9779,2.9779,2.9779,2.9779,2.9654,2.9415,2.939,2.9114,2.8561,2.7708,2.7168,2.6939,2.6637,2.6361,2.6097,2.5536,2.5134,2.487,2.4594,2.4299,2.3941,2.4242,2.4186,2.3648,2.4136,2.4267,2.3966,2.4467,2.4788,2.4691,2.5018,2.5372,2.5686,2.5959,2.6029,2.5872,2.585,2.5949,2.6186,2.6223,2.6223,2.6211,2.6223,2.6211,2.6223,2.6327,2.6361,2.6361,2.643,2.6487,2.6487,2.6487,2.6349,2.599,2.5955,2.5629,2.4898,2.442,2.4053,2.3823,2.3081,2.1944,2.0621,1.9836,1.9199,1.8647,1.8482,1.8482,1.8482,1.8482,1.8482,1.8414,1.8414,1.8371,1.8279,1.8245,1.8313,1.8405,1.8347,1.8381,1.8414,1.8482,1.8405,1.8405,1.8337,1.8236,3.7111,3.7008,3.6593,3.6417,3.6417,3.6417,3.6417,3.6417,3.6417,3.6417,3.6417,3.6417,3.583,3.4906,3.4743,3.4186,3.3332,3.3131,3.3124,3.3124,3.3124,3.3124,3.3124,3.3124,3.2478,3.1527,3.1386,3.0846,2.9892,2.9779,2.9779,2.9779,2.9779,2.9779,2.9779,2.9779,2.9566,2.9051,2.8147,2.7532,2.7268,2.6788,2.6487,2.6461,2.6059,2.5787,2.5774,2.541,2.5121,2.4996,2.4996,2.4913,2.48,2.4933,2.4996,2.5008,2.5121,2.5184,2.5222,2.5561,2.5988,2.6449,2.6487,2.6549,2.6663,2.6675,2.6625,2.6524,2.6487,2.6487,2.6452,2.6499,2.6487,2.6487,2.6487,2.6487,2.6487,2.6487,2.6487,2.6487,2.6487,2.6487,2.6487,2.6487,2.6245,2.5629,2.5004,2.466,2.4624,2.4483,2.341,2.1958,2.0764,1.9994,1.9114,1.8898,1.8841,1.8717,1.864,1.864,1.8607,1.8573,1.8549,1.8482,1.8482,1.8516,1.8549,1.8516,1.8549,1.8617,1.8617,1.8573,1.8583,1.8405,1.8245,3.6933,3.6518,3.643,3.6417,3.6417,3.6417,3.6417,3.6417,3.6417,3.6417,3.638,3.6417,3.6006,3.5395,3.4881,3.4374,3.3746,3.3294,3.3124,3.3124,3.3124,3.3124,3.3124,3.3111,3.2478,3.1499,3.1361,3.0809,2.9829,2.9779,2.9779,2.9779,2.9779,2.9779,2.9779,2.9779,2.9767,2.9704,2.9101,2.8285,2.7318,2.6776,2.6487,2.6487,2.6449,2.6424,2.6373,2.6373,2.6097,2.5586,2.5523,2.531,2.4958,2.5272,2.5523,2.5548,2.6034,2.6348,2.6336,2.6386,2.6436,2.6474,2.6549,2.6751,2.719,2.7205,2.7027,2.6675,2.6524,2.6537,2.6487,2.6499,2.6487,2.6487,2.6487,2.6487,2.6487,2.6487,2.6487,2.6487,2.6487,2.6487,2.6487,2.6487,2.6452,2.6302,2.6094,2.5978,2.5951,2.5348,2.4532,2.358,2.2824,2.1654,2.0347,1.9933,1.9584,1.9131,1.9031,1.8931,1.8798,1.8774,1.8751,1.864,1.8549,1.8617,1.8684,1.865,1.865,1.8875,1.8875,1.8741,1.8741,1.8539,1.8269,3.6619,3.6417,3.6417,3.6417,3.6417,3.6417,3.6417,3.6417,3.6417,3.6182,3.5893,3.5881,3.5567,3.5006,3.4813,3.4248,3.342,3.3181,3.3124,3.3124,3.3124,3.3124,3.3056,3.2717,3.2139,3.1411,3.1085,3.0532,2.9905,2.9779,2.9779,2.9779,2.9779,2.9779,2.9779,2.9779,2.9779,2.9767,2.9227,2.8662,2.8247,2.7708,2.7268,2.7027,2.6942,2.6813,2.6537,2.6487,2.6386,2.616,2.6147,2.6047,2.5812,2.6021,2.6135,2.616,2.6361,2.6487,2.6487,2.6788,2.6977,2.6989,2.7291,2.7544,2.7733,2.777,2.767,2.7457,2.7178,2.6977,2.6952,2.6688,2.6487,2.6487,2.6487,2.6487,2.6487,2.6487,2.6487,2.6487,2.6487,2.6487,2.6487,2.6487,2.6487,2.6487,2.6487,2.6487,2.6449,2.6084,2.5448,2.4599,2.4087,2.2798,2.0783,2.0096,1.9813,1.933,1.9098,1.9031,1.8998,1.8965,1.8942,1.8841,1.8841,1.8841,1.8965,1.8942,1.8908,1.9075,1.9075,1.8942,1.8841,1.8674,1.8506,3.6417,3.6417,3.6417,3.6417,3.6417,3.6417,3.6417,3.6417,3.6417,3.6056,3.552,3.5495,3.5107,3.4562,3.45,3.4048,3.3357,3.3187,3.3124,3.3124,3.3124,3.3124,3.3061,3.2478,3.1913,3.1386,3.0871,3.0344,2.9842,2.9779,2.9779,2.9779,2.9779,2.9779,2.9779,2.9779,2.9779,2.9767,2.9365,2.9164,2.9114,2.8775,2.8235,2.7595,2.7507,2.7291,2.6763,2.6713,2.665,2.6512,2.6487,2.6487,2.6487,2.6487,2.6487,2.6512,2.665,2.6713,2.6725,2.7241,2.7507,2.7544,2.7883,2.8172,2.8298,2.8323,2.8411,2.8536,2.8072,2.772,2.7469,2.704,2.6738,2.6713,2.6612,2.6499,2.6487,2.6487,2.6487,2.6487,2.6487,2.6487,2.6487,2.6487,2.6487,2.6487,2.6487,2.6487,2.6449,2.6311,2.5875,2.5146,2.4788,2.3489,2.12,2.0516,2.0128,1.9551,1.932,1.9098,1.9098,1.9098,1.9098,1.8998,1.9065,1.9098,1.9065,1.9065,1.9065,1.9098,1.9098,1.9065,1.8931,1.8831,1.8741,3.6417,3.6417,3.6417,3.6417,3.6417,3.6417,3.6417,3.6405,3.6392,3.6031,3.5495,3.5433,3.4881,3.3947,3.3935,3.3897,3.3759,3.3294,3.3124,3.3124,3.3124,3.3124,3.3074,3.2478,3.1926,3.1386,3.0871,3.0331,2.9817,2.9779,2.9779,2.9779,2.9779,2.9779,2.9779,2.9779,2.9779,2.9767,2.9716,2.9716,2.9729,2.9691,2.9139,2.8222,2.8072,2.7808,2.7318,2.7243,2.7065,2.6524,2.6562,2.6549,2.6524,2.6524,2.6524,2.6575,2.6989,2.7231,2.7306,2.777,2.8072,2.8084,2.8185,2.836,2.8837,2.8863,2.9089,2.9616,2.9089,2.8612,2.816,2.7532,2.7228,2.719,2.6776,2.6524,2.6487,2.6487,2.6487,2.6487,2.6487,2.6487,2.6487,2.6487,2.6487,2.6487,2.6487,2.6487,2.6436,2.6059,2.5711,2.541,2.4738,2.3592,2.2282,2.1428,2.0805,2.0193,1.9649,1.9198,1.9131,1.9098,1.9098,1.9098,1.9098,1.9098,1.9098,1.9098,1.9098,1.9098,1.9098,1.9065,1.8998,1.8908,1.8808,3.6417,3.6417,3.6417,3.6417,3.6417,3.6417,3.6417,3.6367,3.5994,3.5529,3.4969,3.4663,3.4085,3.3382,3.337,3.3382,3.34,3.3156,3.3124,3.3124,3.3124,3.3124,3.3061,3.2491,3.1926,3.1386,3.0871,3.0331,2.9842,2.9779,2.9779,2.9779,2.9779,2.9779,2.9779,2.9779,2.9779,2.9779,2.9779,2.9779,2.9779,2.9779,2.9578,2.9214,2.8825,2.8373,2.7821,2.7821,2.7708,2.7519,2.7542,2.7519,2.7482,2.7203,2.7027,2.704,2.7203,2.7444,2.7808,2.8335,2.8587,2.8624,2.8988,2.9214,2.944,2.949,2.9578,2.9691,2.9628,2.9365,2.9013,2.8059,2.7329,2.7253,2.6839,2.6524,2.6487,2.6487,2.6487,2.6487,2.6487,2.6487,2.6487,2.6487,2.6487,2.6487,2.6487,2.6487,2.6474,2.6285,2.6047,2.5661,2.5272,2.4768,2.4039,2.2561,2.1534,2.0837,2.0258,1.9901,1.9715,1.9264,1.9131,1.9098,1.9098,1.9098,1.9098,1.9098,1.9098,1.9098,1.9098,1.9098,1.9098,1.9008,1.8942,3.6417,3.6417,3.6417,3.6417,3.6417,3.6417,3.6304,3.6069,3.5646,3.5094,3.4487,3.406,3.3608,3.3187,3.3124,3.3124,3.3124,3.3124,3.3124,3.3124,3.3124,3.3124,3.3023,3.2478,3.2026,3.1599,3.0934,3.0331,2.9854,2.9779,2.9779,2.9779,2.9779,2.9779,2.9779,2.9779,2.9779,2.9779,2.9779,2.9779,2.9779,2.9779,2.9779,2.9729,2.9402,2.8913,2.8361,2.8373,2.8273,2.8147,2.8109,2.8109,2.8072,2.7745,2.7544,2.757,2.7733,2.7959,2.836,2.89,2.9214,2.9214,2.9541,2.9779,2.9779,2.9779,2.9779,2.9779,2.9779,2.9779,2.9541,2.8599,2.7833,2.7745,2.7318,2.6952,2.6776,2.6776,2.6675,2.6524,2.6487,2.6487,2.6487,2.6487,2.6487,2.6487,2.6487,2.6487,2.6487,2.6474,2.6399,2.5971,2.5674,2.5398,2.4798,2.3656,2.2633,2.1948,2.0571,2.0258,1.9998,1.9518,1.9131,1.9131,1.9098,1.9098,1.9098,1.9098,1.9098,1.9098,1.9098,1.9098,1.9098,1.9098,1.9031,3.6417,3.6417,3.6417,3.6417,3.6405,3.6307,3.6019,3.5596,3.5433,3.4839,3.4035,3.3872,3.3533,3.3199,3.3124,3.3124,3.3124,3.3124,3.3124,3.3124,3.3124,3.3124,3.3086,3.2554,3.224,3.2077,3.111,3.0357,2.9892,2.9817,2.9779,2.9779,2.9779,2.9779,2.9779,2.9779,2.9779,2.9779,2.9779,2.9779,2.9779,2.9779,2.9779,2.9779,2.9741,2.9478,2.8913,2.89,2.8737,2.8298,2.8222,2.8134,2.8197,2.8122,2.8097,2.8185,2.8586,2.8825,2.8938,2.944,2.9691,2.9691,2.9779,2.9779,2.9779,2.9779,2.9779,2.9779,2.9779,2.9779,2.9704,2.9239,2.8787,2.88,2.8247,2.7733,2.7419,2.7268,2.7055,2.6625,2.6487,2.6487,2.6487,2.6487,2.6487,2.6487,2.6487,2.6487,2.6487,2.6487,2.6487,2.6373,2.6097,2.5783,2.5285,2.4705,2.3904,2.2991,2.1312,2.0302,2.0128,1.9748,1.9231,1.9098,1.9098,1.9098,1.9098,1.9098,1.9098,1.9098,1.9098,1.9098,1.9098,1.9098,1.9098,3.6417,3.6417,3.6417,3.6417,3.6355,3.5956,3.5633,3.542,3.4731,3.4211,3.3872,3.3508,3.3232,3.3162,3.3124,3.3124,3.3124,3.3124,3.3124,3.3124,3.3124,3.3124,3.3074,3.288,3.2591,3.2089,3.1135,3.0532,3.0331,2.9993,2.9779,2.9779,2.9792,2.9779,2.9779,2.9779,2.9779,2.9779,2.9779,2.9779,2.9779,2.9779,2.9779,2.9779,2.9779,2.9691,2.9528,2.9528,2.944,2.9227,2.9264,2.9089,2.8725,2.8674,2.8674,2.865,2.8775,2.9139,2.9478,2.9666,2.9779,2.9779,2.9779,2.9779,2.9779,2.9779,2.9779,2.9779,2.9779,2.9779,2.9754,2.9654,2.9352,2.8925,2.8436,2.8109,2.7858,2.7494,2.709,2.6612,2.6487,2.6487,2.6487,2.6487,2.6487,2.6487,2.6487,2.6487,2.6487,2.6487,2.6487,2.6449,2.6248,2.6135,2.582,2.5372,2.4746,2.3672,2.2098,2.068,2.0421,1.9813,1.933,1.9098,1.9098,1.9098,1.9098,1.9098,1.9098,1.9098,1.9098,1.9098,1.9098,1.9098,1.9098,3.6417,3.6417,3.6417,3.6417,3.6342,3.578,3.537,3.5082,3.4299,3.3784,3.3545,3.3244,3.3124,3.3124,3.3124,3.3124,3.3124,3.3124,3.3124,3.3124,3.3124,3.3124,3.3124,3.3124,3.2767,3.2202,3.1537,3.1097,3.0871,3.0382,3.0093,3.0093,2.9905,2.9779,2.9779,2.9779,2.9779,2.9779,2.9779,2.9779,2.9779,2.9779,2.9779,2.9779,2.9779,2.9779,2.9779,2.9779,2.9779,2.9779,2.9779,2.9603,2.9277,2.9239,2.9252,2.9214,2.9264,2.9415,2.9741,2.9767,2.9779,2.9779,2.9779,2.9779,2.9779,2.9779,2.9779,2.9779,2.9779,2.9779,2.9779,2.9779,2.9603,2.9302,2.8988,2.8649,2.8398,2.7733,2.7205,2.6864,2.665,2.6524,2.6487,2.6487,2.6487,2.6487,2.6487,2.6487,2.6487,2.6487,2.6487,2.6487,2.6424,2.6386,2.6399,2.6009,2.5485,2.43,2.2929,2.1698,2.0916,1.9868,1.9098,1.9098,1.9098,1.9098,1.9098,1.9098,1.9098,1.9098,1.9098,1.9098,1.9098,1.9098,1.9098,3.6417,3.6417,3.6417,3.6417,3.6342,3.578,3.5219,3.4668,3.4148,3.3608,3.3237,3.3149,3.3124,3.3124,3.3124,3.3124,3.3124,3.3124,3.3124,3.3124,3.3124,3.3124,3.3124,3.3124,3.2817,3.239,3.2177,3.1876,3.1436,3.0909,3.0658,3.0608,3.0168,2.9854,2.9892,2.9829,2.9779,2.9779,2.9779,2.9779,2.9779,2.9779,2.9779,2.9779,2.9779,2.9779,2.9779,2.9779,2.9779,2.9779,2.9779,2.9767,2.9754,2.9779,2.9729,2.9716,2.9779,2.9741,2.9779,2.9779,2.9779,2.9779,2.9779,2.9779,2.9779,2.9779,2.9779,2.9779,2.9779,2.9779,2.9779,2.9779,2.9754,2.9779,2.9616,2.9377,2.8875,2.7971,2.7454,2.7203,2.6851,2.6487,2.6487,2.6487,2.6487,2.6487,2.6487,2.6487,2.6487,2.6487,2.6487,2.6487,2.6487,2.6487,2.6461,2.6311,2.5787,2.5021,2.3805,2.2826,2.1613,2.0468,1.9206,1.9196,1.9206,1.9162,1.9098,1.9098,1.9098,1.9098,1.9098,1.9098,1.9098,1.9098,1.9098,3.6417,3.6417,3.6417,3.6417,3.6329,3.5768,3.5194,3.4643,3.4135,3.3596,3.3224,3.3124,3.3124,3.3124,3.3124,3.3124,3.3124,3.3124,3.3124,3.3124,3.3124,3.3124,3.3124,3.3124,3.3048,3.2792,3.2441,3.2139,3.1964,3.1461,3.1198,3.1173,3.067,3.0394,3.0369,3.0043,2.9804,2.9779,2.9804,2.9792,2.9779,2.9779,2.9779,2.9779,2.9804,2.9804,2.9792,2.9779,2.9779,2.9779,2.9779,2.9779,2.9779,2.9779,2.9779,2.9779,2.9779,2.9779,2.9779,2.9779,2.9779,2.9779,2.9779,2.9779,2.9779,2.9779,2.9779,2.9779,2.9779,2.9779,2.9779,2.9779,2.9779,2.9779,2.9779,2.9578,2.9001,2.8335,2.7745,2.7318,2.6864,2.66,2.6499,2.6487,2.6487,2.6487,2.6487,2.6487,2.6487,2.6487,2.6487,2.6487,2.6487,2.6487,2.6461,2.6373,2.6088,2.5561,2.4755,2.4035,2.2819,2.1619,2.0322,1.9412,1.951,1.951,1.925,1.9098,1.9098,1.9098,1.9098,1.9098,1.9098,1.9098,1.9098,3.6417,3.6417,3.6417,3.6417,3.6342,3.5768,3.532,3.4906,3.4223,3.3746,3.342,3.3156,3.3124,3.3124,3.3124,3.3124,3.3124,3.3124,3.3124,3.3124,3.3124,3.3124,3.3124,3.3124,3.3124,3.3086,3.2742,3.2604,3.2478,3.2014,3.1763,3.1637,3.1198,3.0947,3.0922,3.0658,3.0331,3.0193,3.0131,3.0055,2.9817,2.9779,2.9779,2.9842,2.998,3.0143,3.0131,2.993,2.9792,2.9779,2.9779,2.9779,2.9779,2.9779,2.9779,2.9779,2.9779,2.9779,2.9779,2.9779,2.9779,2.9779,2.9779,2.9779,2.9779,2.9779,2.9779,2.9779,2.9779,2.9779,2.9779,2.9779,2.9779,2.9779,2.9779,2.9654,2.9302,2.8775,2.8235,2.7695,2.7203,2.6725,2.6562,2.6512,2.6499,2.6487,2.6487,2.6487,2.6487,2.6487,2.6487,2.6487,2.6487,2.6487,2.6487,2.6424,2.6399,2.5907,2.561,2.4951,2.3802,2.2645,2.162,2.0565,2.0157,1.9762,1.96,1.9339,1.9098,1.9098,1.9098,1.9119,1.9139,1.9295,1.9264,3.6417,3.6417,3.6417,3.6417,3.6342,3.5843,3.5495,3.5194,3.4392,3.3909,3.3658,3.3312,3.3136,3.3124,3.3124,3.3124,3.3124,3.3124,3.3124,3.3124,3.3124,3.3124,3.3124,3.3124,3.3124,3.3111,3.3124,3.3074,3.288,3.2491,3.2328,3.2177,3.175,3.1499,3.1424,3.1361,3.1122,3.0771,3.0696,3.052,3.0218,3.0156,3.0168,3.0218,3.0482,3.067,3.0583,3.0319,3.0055,2.998,2.9854,2.9792,2.9792,2.9804,2.9905,2.998,3.0043,3.008,2.9905,2.9955,2.9842,2.9817,2.9779,2.9779,2.9779,2.9779,2.9779,2.9779,2.9779,2.9779,2.9779,2.9779,2.9779,2.9779,2.9779,2.9779,2.9691,2.9277,2.8725,2.826,2.7708,2.7203,2.6851,2.6612,2.66,2.6763,2.6663,2.6487,2.6487,2.6487,2.6487,2.6487,2.6487,2.6487,2.6487,2.6474,2.6474,2.6314,2.6264,2.571,2.457,2.3538,2.2814,2.2035,2.1184,2.0541,2.016,1.9843,1.94,1.9253,1.9357,1.9295,1.9253,1.9499,1.9603,3.6417,3.6417,3.6417,3.6417,3.6392,3.6267,3.5705,3.4926,3.4675,3.4073,3.3407,3.3187,3.3124,3.3124,3.3124,3.3124,3.3124,3.3124,3.3124,3.3124,3.3124,3.3124,3.3124,3.3124,3.3124,3.3124,3.3124,3.3124,3.3048,3.2986,3.2923,3.278,3.2328,3.2039,3.2001,3.17,3.1361,3.1235,3.1235,3.1148,3.0997,3.0947,3.0972,3.1009,3.1122,3.1185,3.1223,3.1122,3.1047,3.0846,3.0319,2.9917,2.998,3.0256,3.0419,3.0507,3.0783,3.0834,3.0532,3.0419,3.0256,2.9942,2.993,2.9779,2.9792,2.9854,2.9842,2.9792,2.9779,2.9892,2.9854,2.9804,2.9779,2.9779,2.9779,2.9779,2.9691,2.9289,2.8888,2.8662,2.8273,2.7883,2.772,2.7231,2.714,2.7077,2.6826,2.6537,2.6487,2.6487,2.6487,2.6487,2.6487,2.6487,2.6487,2.6487,2.6487,2.6487,2.6487,2.6427,2.5276,2.4607,2.3963,2.3025,2.1957,2.1419,2.1008,2.0171,1.9679,1.9658,1.9647,1.9647,1.9665,1.9872,1.9934,3.6417,3.6417,3.6417,3.6417,3.6417,3.6405,3.6078,3.5454,3.4868,3.4399,3.3822,3.3357,3.3124,3.3124,3.3124,3.3124,3.3124,3.3124,3.3124,3.3124,3.3124,3.3124,3.3124,3.3124,3.3124,3.3124,3.3124,3.3124,3.3124,3.3124,3.3099,3.3124,3.2754,3.2641,3.2616,3.2303,3.2064,3.1813,3.1775,3.1662,3.1436,3.1386,3.1574,3.1637,3.1562,3.1474,3.1738,3.1486,3.1399,3.1248,3.0871,3.0545,3.0557,3.0821,3.0959,3.1035,3.1185,3.1286,3.1035,3.0959,3.0859,3.0557,3.0545,3.0532,3.0532,3.0545,3.0394,3.0306,3.0369,3.0482,3.0206,2.988,2.9829,2.9779,2.9792,2.9779,2.9741,2.9503,2.9151,2.8963,2.8624,2.8348,2.8072,2.772,2.7394,2.7241,2.6751,2.6487,2.6487,2.6487,2.6487,2.6487,2.6487,2.6487,2.6487,2.6487,2.6487,2.6487,2.6487,2.6487,2.6034,2.5592,2.5212,2.4135,2.3029,2.2377,2.1868,2.0933,2.0114,2.0069,2.0069,2.0069,2.012,2.0234,2.0234,3.6417,3.6417,3.6417,3.6417,3.6417,3.6405,3.6254,3.594,3.514,3.4525,3.4311,3.3445,3.3124,3.3124,3.3124,3.3124,3.3124,3.3124,3.3124,3.3124,3.3124,3.3124,3.3124,3.3124,3.3124,3.3124,3.3124,3.3124,3.3124,3.3124,3.3124,3.3068,3.3111,3.298,3.3031,3.3043,3.2767,3.239,3.234,3.2202,3.1863,3.1788,3.2001,3.2177,3.2039,3.1989,3.2202,3.2014,3.1725,3.165,3.165,3.165,3.1625,3.1524,3.1512,3.1524,3.1675,3.17,3.1574,3.1512,3.1474,3.1436,3.1348,3.1348,3.1311,3.1235,3.106,3.0984,3.0972,3.1085,3.0758,3.0306,3.003,2.993,2.988,2.9792,2.9779,2.9779,2.9515,2.9201,2.9114,2.895,2.8473,2.8047,2.7682,2.7341,2.6851,2.6487,2.6487,2.6487,2.6487,2.6487,2.6487,2.6487,2.6487,2.6487,2.6487,2.6487,2.6487,2.6487,2.6487,2.6199,2.5735,2.5152,2.4266,2.3444,2.2407,2.1314,2.0713,2.056,2.0488,2.0534,2.0555,2.055,2.055,3.6417,3.6417,3.6417,3.6417,3.6417,3.6417,3.5868,3.5052,3.4851,3.4186,3.3432,3.3212,3.3124,3.3124,3.3124,3.3124,3.3124,3.3124,3.3124,3.3124,3.3124,3.3124,3.3124,3.3124,3.3124,3.3124,3.3124,3.3124,3.3124,3.3124,3.3124,3.3124,3.3124,3.3124,3.3124,3.3124,3.3074,3.2855,3.283,3.2729,3.2667,3.2641,3.2667,3.2842,3.2654,3.2717,3.286,3.2872,3.2835,3.2847,3.2792,3.2767,3.2604,3.2277,3.2102,3.2152,3.2416,3.2441,3.2152,3.2077,3.1825,3.1537,3.1499,3.1474,3.1461,3.1461,3.1524,3.1411,3.1348,3.1336,3.1273,3.0796,3.0532,3.0382,3.0105,2.9854,2.9842,2.9792,2.9767,2.9541,2.9553,2.9528,2.9013,2.8499,2.8059,2.7607,2.7102,2.6675,2.6487,2.6487,2.6487,2.6487,2.6487,2.6487,2.6487,2.6487,2.6487,2.6487,2.6487,2.6487,2.6487,2.6487,2.6108,2.5418,2.4695,2.3838,2.2802,2.1822,2.1391,2.1282,2.1147,2.1,2.1005,2.1083,2.1145,3.6417,3.6417,3.6417,3.6417,3.6417,3.6417,3.5906,3.5132,3.4793,3.4274,3.3608,3.3262,3.3124,3.3124,3.3124,3.3124,3.3124,3.3124,3.3124,3.3124,3.3124,3.3124,3.3124,3.3124,3.3124,3.3124,3.3124,3.3124,3.3124,3.3124,3.3124,3.3124,3.3124,3.3124,3.3124,3.3124,3.3124,3.3124,3.3124,3.3124,3.3124,3.3124,3.3124,3.3124,3.3124,3.3124,3.3124,3.3124,3.3111,3.3099,3.3111,3.3124,3.3036,3.2898,3.2641,3.2692,3.2918,3.2993,3.2717,3.2654,3.2528,3.2353,3.224,3.2252,3.2265,3.2357,3.2244,3.2114,3.1574,3.1512,3.1763,3.1323,3.1072,3.0934,3.0532,3.0244,3.0143,2.9942,2.9842,2.9779,2.9729,2.9654,2.9603,2.9063,2.8511,2.7934,2.7369,2.6977,2.6612,2.6575,2.66,2.6487,2.6487,2.6487,2.6487,2.6487,2.6487,2.6487,2.6474,2.6474,2.6411,2.6373,2.601,2.5428,2.4732,2.4247,2.3887,2.3189,2.2582,2.2004,2.1797,2.1638,2.1582,2.158,2.1597,3.6417,3.6417,3.6417,3.6417,3.6417,3.6417,3.6044,3.5483,3.5056,3.4555,3.4048,3.3646,3.3395,3.3244,3.3187,3.3124,3.3124,3.3124,3.3124,3.3124,3.3124,3.3124,3.3124,3.3124,3.3124,3.3124,3.3124,3.3124,3.3124,3.3124,3.3124,3.3124,3.3124,3.3124,3.3124,3.3124,3.3124,3.3124,3.3124,3.3124,3.3124,3.3124,3.3124,3.3124,3.3124,3.3124,3.3124,3.3124,3.3124,3.3124,3.3124,3.3124,3.3124,3.3124,3.3124,3.3124,3.3124,3.3124,3.3099,3.3043,3.2998,3.2923,3.3061,3.3086,3.3061,3.2935,3.3011,3.2948,3.2416,3.1964,3.2265,3.1888,3.1625,3.1411,3.1022,3.057,3.0394,3.0168,2.9829,2.9779,2.9779,2.9754,2.9691,2.9315,2.8687,2.8423,2.7858,2.7306,2.7002,2.6839,2.6776,2.6562,2.6487,2.6487,2.6487,2.6487,2.6487,2.6487,2.6449,2.6411,2.6311,2.6223,2.5802,2.5479,2.5349,2.495,2.4732,2.4324,2.352,2.29,2.2526,2.2333,2.2269,2.2109,2.2071,3.6417,3.6417,3.6417,3.6417,3.6417,3.6417,3.6056,3.5508,3.5395,3.5094,3.4517,3.45,3.4186,3.3809,3.3332,3.3156,3.3199,3.3275,3.3325,3.3338,3.3269,3.3269,3.3187,3.3124,3.3224,3.3212,3.3162,3.3124,3.3124,3.3124,3.3124,3.3124,3.3124,3.3124,3.3124,3.3124,3.3124,3.3124,3.3124,3.3124,3.3124,3.3124,3.3124,3.3124,3.3124,3.3124,3.3124,3.3124,3.3124,3.3124,3.3124,3.3124,3.3124,3.3124,3.3124,3.3124,3.3124,3.3124,3.3124,3.3124,3.3124,3.3124,3.3124,3.3124,3.3124,3.3124,3.3124,3.3124,3.2885,3.281,3.2742,3.2428,3.2202,3.1825,3.1386,3.0896,3.0595,3.0357,3.0018,2.9704,2.9679,2.9741,2.9741,2.9302,2.8838,2.8662,2.836,2.7795,2.7291,2.704,2.6826,2.6587,2.6285,2.6248,2.6235,2.6273,2.6185,2.6273,2.6298,2.6235,2.6072,2.5908,2.5824,2.5564,2.5542,2.5335,2.4847,2.4424,2.4085,2.3804,2.3475,2.3191,2.2942,2.2767,2.2467,3.6417,3.6417,3.6417,3.6417,3.6417,3.6417,3.6056,3.5571,3.5483,3.5194,3.4756,3.468,3.4542,3.4324,3.4085,3.4035,3.401,3.3972,3.401,3.396,3.396,3.3972,3.3947,3.3709,3.3545,3.3483,3.3257,3.3124,3.3124,3.3136,3.3124,3.3124,3.3124,3.3124,3.3124,3.3124,3.3124,3.3124,3.3124,3.3124,3.3124,3.3124,3.3124,3.3124,3.3136,3.3136,3.3124,3.3124,3.3124,3.3124,3.3124,3.3124,3.3124,3.3124,3.3124,3.3124,3.3124,3.3124,3.3124,3.3111,3.3124,3.3124,3.3124,3.3124,3.3124,3.3124,3.3124,3.3124,3.3124,3.3124,3.3124,3.2855,3.2767,3.2428,3.1838,3.1373,3.0947,3.052,3.0218,2.988,2.9566,2.9616,2.9691,2.9553,2.9202,2.89,2.8662,2.8197,2.7482,2.6889,2.67,2.6537,2.6197,2.5921,2.5862,2.585,2.5573,2.5624,2.5812,2.5749,2.5636,2.5536,2.5485,2.5636,2.5757,2.5438,2.4938,2.4849,2.4791,2.46,2.4409,2.3913,2.3423,2.2953,2.258,3.6417,3.6417,3.6417,3.6417,3.6417,3.6417,3.6132,3.578,3.5721,3.5529,3.5177,3.5039,3.4893,3.4864,3.4705,3.4555,3.463,3.468,3.468,3.468,3.468,3.4618,3.45,3.4248,3.411,3.411,3.3834,3.3545,3.3357,3.3294,3.3269,3.3136,3.3124,3.3124,3.3124,3.3124,3.3124,3.3124,3.3124,3.3124,3.3124,3.3124,3.3124,3.3162,3.3224,3.3219,3.3119,3.3282,3.3319,3.3124,3.3124,3.3124,3.3124,3.3124,3.2943,3.2918,3.296,3.2968,3.293,3.293,3.3086,3.3124,3.3124,3.3124,3.3124,3.3124,3.3124,3.3124,3.3124,3.3124,3.3124,3.3056,3.3048,3.2805,3.2453,3.1964,3.1449,3.0896,3.0344,2.9905,2.9616,2.9428,2.9528,2.9704,2.9553,2.9214,2.8875,2.8536,2.7795,2.6989,2.6499,2.6323,2.6047,2.5649,2.5448,2.536,2.5109,2.5084,2.5285,2.5247,2.5109,2.5146,2.5172,2.541,2.5783,2.584,2.5576,2.5563,2.551,2.5259,2.493,2.4326,2.3779,2.3243,2.267,3.6417,3.6417,3.6417,3.6417,3.6417,3.6417,3.638,3.6279,3.6317,3.6267,3.6031,3.5742,3.5445,3.5357,3.5102,3.4889,3.4756,3.4693,3.4831,3.4818,3.4705,3.4843,3.4864,3.4813,3.4663,3.4663,3.4412,3.4148,3.3947,3.3847,3.3545,3.3187,3.3199,3.3149,3.3212,3.3338,3.3338,3.3325,3.33,3.3275,3.3287,3.3287,3.3232,3.3307,3.3545,3.3621,3.3156,3.3583,3.3709,3.3363,3.3375,3.3262,3.3257,3.3232,3.3043,3.2604,3.2867,3.283,3.2616,3.283,3.3099,3.3124,3.3124,3.3124,3.3124,3.3124,3.3124,3.3124,3.3124,3.3124,3.3124,3.3124,3.3124,3.3011,3.2667,3.2215,3.1662,3.1072,3.0532,2.9993,2.9616,2.9352,2.9151,2.9277,2.9453,2.9139,2.895,2.8586,2.7934,2.713,2.6436,2.6047,2.5787,2.546,2.5046,2.4958,2.5071,2.4996,2.5034,2.4808,2.4531,2.4619,2.4562,2.5272,2.5636,2.5912,2.6189,2.6061,2.5946,2.5806,2.5484,2.4908,2.3889,2.3042,2.2481,3.6417,3.6417,3.6417,3.6417,3.6417,3.6417,3.6417,3.6417,3.6417,3.6417,3.6392,3.6144,3.6056,3.5968,3.5906,3.573,3.573,3.573,3.5692,3.5717,3.573,3.573,3.5655,3.5391,3.5182,3.5119,3.4893,3.463,3.4437,3.4412,3.4336,3.401,3.3495,3.3658,3.3759,3.3759,3.3759,3.3884,3.3784,3.3709,3.4073,3.4085,3.4085,3.4123,3.4211,3.4311,3.4161,3.4286,3.4236,3.4098,3.3997,3.3809,3.3571,3.3545,3.3093,3.2453,3.2817,3.2717,3.2441,3.2717,3.3111,3.3124,3.3124,3.3124,3.3124,3.3124,3.3124,3.3124,3.3124,3.3124,3.3124,3.3124,3.3111,3.3061,3.2792,3.2403,3.1838,3.1248,3.0683,3.0131,2.9566,2.9076,2.8938,2.88,2.8988,2.9089,2.8875,2.8561,2.7883,2.7243,2.6499,2.5971,2.5724,2.5523,2.5146,2.5121,2.5146,2.4996,2.48,2.4707,2.4456,2.371,2.3847,2.4695,2.5473,2.5686,2.595,2.6285,2.6273,2.6025,2.5822,2.5489,2.4343,2.2979,2.2506,3.6417,3.6417,3.6417,3.6417,3.6417,3.6417,3.6417,3.6417,3.6417,3.6417,3.6417,3.6417,3.6417,3.6417,3.6392,3.6367,3.6317,3.6329,3.6367,3.6342,3.6317,3.6417,3.6232,3.6031,3.5734,3.568,3.5466,3.5215,3.4964,3.4977,3.4939,3.465,3.4135,3.4223,3.4349,3.4412,3.4349,3.45,3.4449,3.4286,3.4663,3.463,3.4618,3.47,3.4826,3.4593,3.4455,3.4437,3.4361,3.4236,3.4161,3.4198,3.4035,3.3771,3.3357,3.2968,3.2742,3.2792,3.2541,3.2704,3.3099,3.3124,3.3124,3.3124,3.3124,3.3124,3.3124,3.3124,3.3124,3.3124,3.3124,3.3124,3.3124,3.3086,3.3099,3.2692,3.1976,3.1348,3.0809,3.0269,2.9729,2.9201,2.8775,2.8649,2.8536,2.8674,2.8549,2.8222,2.7695,2.7055,2.6474,2.6034,2.5749,2.5548,2.536,2.5222,2.5084,2.4958,2.4813,2.4946,2.4575,2.3885,2.3885,2.5046,2.5598,2.5536,2.5824,2.6336,2.6336,2.6185,2.5794,2.5318,2.4559,2.3293,2.2839,3.6417,3.6417,3.6417,3.6417,3.6417,3.6417,3.6417,3.6417,3.6417,3.6417,3.6417,3.6417,3.6417,3.6417,3.6417,3.6417,3.6417,3.6417,3.6417,3.6417,3.6417,3.6417,3.6392,3.6317,3.6169,3.6367,3.6153,3.5805,3.5483,3.5529,3.5483,3.5232,3.4763,3.4575,3.4713,3.4668,3.4668,3.4738,3.4763,3.47,3.4914,3.4977,3.4989,3.509,3.5341,3.5165,3.463,3.4693,3.4537,3.396,3.4186,3.4223,3.4073,3.4022,3.3646,3.3081,3.3074,3.2805,3.2365,3.2817,3.3074,3.3124,3.3124,3.3124,3.3124,3.3124,3.3124,3.3124,3.3124,3.3124,3.3124,3.3124,3.3124,3.3099,3.3086,3.2754,3.2039,3.1499,3.0959,3.0495,3.0055,2.9566,2.9001,2.8549,2.826,2.8172,2.8147,2.7858,2.7431,2.6977,2.6411,2.6235,2.5984,2.5824,2.5624,2.5222,2.5008,2.4895,2.4958,2.5159,2.5197,2.4813,2.5096,2.5711,2.5762,2.5737,2.6084,2.6487,2.6361,2.6189,2.5351,2.4772,2.4145,2.381,2.3443,3.6417,3.6417,3.6417,3.6417,3.6417,3.6417,3.6417,3.6417,3.6417,3.6417,3.6417,3.6417,3.6417,3.6417,3.6417,3.6417,3.6417,3.6417,3.6417,3.6417,3.6417,3.6417,3.6417,3.6417,3.6417,3.6417,3.6392,3.6355,3.6081,3.6031,3.5805,3.547,3.519,3.4977,3.5006,3.5064,3.4977,3.5504,3.5278,3.5014,3.568,3.5768,3.5755,3.5742,3.5943,3.5629,3.4856,3.5019,3.4618,3.4098,3.4412,3.4625,3.4437,3.4361,3.3985,3.3345,3.3093,3.3018,3.283,3.3061,3.3111,3.3124,3.3124,3.3124,3.3124,3.3124,3.3124,3.3124,3.3124,3.3124,3.3124,3.3124,3.3099,3.2968,3.2855,3.2516,3.1989,3.1599,3.1148,3.0746,3.0306,2.9741,2.9126,2.8725,2.8399,2.8009,2.7946,2.767,2.7304,2.6901,2.6436,2.6424,2.6298,2.6172,2.5971,2.5661,2.5611,2.5674,2.5611,2.5611,2.5598,2.5523,2.5686,2.6021,2.6009,2.6009,2.6273,2.6474,2.6424,2.6111,2.5531,2.4966,2.4558,2.4423,2.4362,3.6417,3.6417,3.6417,3.6417,3.6417,3.6417,3.6417,3.6417,3.6417,3.6417,3.6417,3.6417,3.6417,3.6417,3.6417,3.6417,3.6417,3.6417,3.6417,3.6417,3.6417,3.6417,3.6417,3.6417,3.6417,3.6417,3.6417,3.6392,3.6355,3.6392,3.6182,3.5855,3.5466,3.5592,3.5617,3.5479,3.5303,3.5717,3.5516,3.5667,3.6166,3.6342,3.6355,3.6342,3.6292,3.5968,3.5466,3.5107,3.4868,3.4568,3.4643,3.4919,3.4663,3.45,3.4198,3.3633,3.3156,3.3119,3.3099,3.3099,3.3124,3.3124,3.3124,3.3124,3.3124,3.3124,3.3124,3.3124,3.3124,3.3124,3.3124,3.3124,3.3074,3.293,3.2629,3.2303,3.2051,3.165,3.1198,3.0809,3.047,2.9905,2.9352,2.8988,2.865,2.8173,2.7758,2.7469,2.7228,2.6851,2.6537,2.6474,2.6474,2.6348,2.6311,2.6298,2.6298,2.6461,2.6298,2.6059,2.6097,2.6047,2.6172,2.626,2.6235,2.626,2.6373,2.6474,2.6436,2.6373,2.6133,2.5586,2.5044,2.4911,2.4934,3.6417,3.6417,3.6417,3.6417,3.6417,3.6417,3.6417,3.6417,3.6417,3.6417,3.6417,3.6417,3.6417,3.6417,3.6417,3.6417,3.6417,3.6417,3.6417,3.6417,3.6417,3.6417,3.6417,3.6417,3.6417,3.6417,3.6417,3.6417,3.6405,3.6207,3.6182,3.6179,3.5717,3.573,3.5642,3.5542,3.542,3.5755,3.5893,3.6019,3.6355,3.6417,3.6329,3.6292,3.6132,3.5604,3.5064,3.465,3.4123,3.3935,3.4098,3.4198,3.4274,3.4424,3.4236,3.3872,3.3294,3.3199,3.3124,3.3124,3.3124,3.3124,3.3124,3.3124,3.3124,3.3124,3.3124,3.3124,3.3124,3.3124,3.3124,3.3099,3.3074,3.2792,3.2491,3.224,3.2039,3.165,3.1185,3.0821,3.0545,3.0118,2.9704,2.9327,2.8963,2.8599,2.8185,2.7745,2.7467,2.6989,2.6688,2.6487,2.6487,2.6487,2.6487,2.6487,2.6487,2.6487,2.6487,2.6336,2.6411,2.6411,2.6386,2.6386,2.6449,2.6487,2.6487,2.6487,2.6487,2.6411,2.6348,2.618,2.5633,2.5365,2.5344,3.6417,3.6417,3.6417,3.6417,3.6417,3.6417,3.6417,3.6417,3.6417,3.6417,3.6417,3.6417,3.6417,3.6417,3.6417,3.6417,3.6417,3.6417,3.6417,3.6417,3.6417,3.6417,3.6417,3.6417,3.6417,3.6417,3.6417,3.6405,3.6317,3.6081,3.5855,3.5717,3.5391,3.5215,3.5228,3.5031,3.5516,3.583,3.5943,3.6069,3.6292,3.6342,3.6119,3.5881,3.5793,3.5177,3.4487,3.4223,3.3734,3.3432,3.3784,3.3985,3.3997,3.4035,3.3884,3.3395,3.3187,3.3124,3.3124,3.3124,3.3124,3.3124,3.3124,3.3124,3.3124,3.3124,3.3124,3.3124,3.3124,3.3124,3.3124,3.3111,3.2955,3.2692,3.2378,3.2077,3.1851,3.1512,3.106,3.0733,3.047,3.0118,2.9754,2.9679,2.9352,2.9013,2.865,2.8235,2.777,2.7318,2.6927,2.6713,2.66,2.6637,2.6524,2.6487,2.6487,2.6487,2.6487,2.6487,2.6461,2.6461,2.6474,2.6487,2.6487,2.6487,2.6487,2.6487,2.6487,2.6487,2.6436,2.6373,2.626,2.5946,2.5749,3.6417,3.6417,3.6417,3.6417,3.6417,3.6417,3.6417,3.6417,3.6417,3.6417,3.6417,3.6417,3.6417,3.6417,3.6417,3.6417,3.6417,3.6417,3.6417,3.6417,3.6417,3.6417,3.6417,3.6417,3.6417,3.6417,3.6417,3.6417,3.6317,3.6119,3.5906,3.5893,3.5077,3.5127,3.5366,3.5579,3.5629,3.5855,3.5956,3.5956,3.5981,3.6031,3.5692,3.5295,3.5182,3.4675,3.4022,3.3884,3.3596,3.3244,3.3621,3.3759,3.3671,3.3545,3.352,3.3174,3.3149,3.3124,3.3124,3.3124,3.3124,3.3124,3.3124,3.3124,3.3124,3.3124,3.3124,3.3124,3.3124,3.3124,3.3124,3.3086,3.2842,3.2616,3.2252,3.1876,3.1587,3.1311,3.0972,3.0633,3.0294,2.9955,2.9779,2.9779,2.9741,2.9478,2.9252,2.895,2.8436,2.7921,2.7406,2.704,2.6901,2.6826,2.6688,2.6524,2.6487,2.6487,2.6487,2.6487,2.6487,2.6487,2.6487,2.6487,2.6487,2.6487,2.6487,2.6487,2.6487,2.6487,2.6487,2.6449,2.6411,2.6336,2.6273,3.6417,3.6417,3.6417,3.6417,3.6417,3.6417,3.6417,3.6417,3.6417,3.6417,3.6417,3.6417,3.6417,3.6417,3.6417,3.6417,3.6417,3.6417,3.6417,3.6417,3.6417,3.6417,3.6417,3.6417,3.6417,3.6417,3.6417,3.6417,3.6417,3.6304,3.6267,3.6405,3.6128,3.5968,3.6091,3.5931,3.5893,3.5881,3.5931,3.5906,3.5554,3.537,3.5182,3.4763,3.4587,3.4361,3.3947,3.3721,3.3608,3.3432,3.3395,3.3508,3.3363,3.3199,3.3162,3.3149,3.3124,3.3124,3.3124,3.3124,3.3124,3.3124,3.3124,3.3124,3.3124,3.3124,3.3124,3.3124,3.3124,3.3124,3.3124,3.3099,3.2893,3.2679,3.2378,3.1989,3.1637,3.1235,3.0708,3.0394,3.0105,2.9804,2.9779,2.9779,2.9779,2.9729,2.9628,2.9415,2.9126,2.8574,2.8034,2.7482,2.7203,2.704,2.6813,2.6663,2.6524,2.6487,2.6499,2.6487,2.6487,2.6487,2.6487,2.6487,2.6487,2.6487,2.6487,2.6487,2.6487,2.6487,2.6487,2.6487,2.6487,2.6487,2.6487,3.6417,3.6417,3.6417,3.6417,3.6417,3.6417,3.6417,3.6417,3.6417,3.6417,3.6417,3.6417,3.6417,3.6417,3.6417,3.6417,3.6417,3.6417,3.6417,3.6417,3.6417,3.6417,3.6417,3.6417,3.6417,3.6417,3.6417,3.6417,3.6417,3.6417,3.6392,3.6355,3.6119,3.6044,3.6367,3.6107,3.5918,3.5931,3.5805,3.5529,3.5002,3.4806,3.463,3.4274,3.4048,3.3834,3.3495,3.3338,3.3275,3.3187,3.3181,3.3181,3.3124,3.3124,3.3124,3.3124,3.3124,3.3124,3.3124,3.3124,3.3124,3.3124,3.3124,3.3124,3.3124,3.3124,3.3124,3.3124,3.3124,3.3124,3.3111,3.3074,3.3011,3.2742,3.2478,3.2089,3.1687,3.1085,3.0482,3.0168,2.9892,2.9817,2.9792,2.9779,2.9779,2.9779,2.9767,2.9679,2.9641,2.9264,2.8775,2.8197,2.7507,2.7243,2.7065,2.6851,2.6738,2.6575,2.6549,2.6524,2.6499,2.6487,2.6487,2.6487,2.6487,2.6487,2.6487,2.6487,2.6487,2.6487,2.6487,2.6487,2.6487,2.6487,2.6487,3.6417,3.6417,3.6417,3.6417,3.6417,3.6417,3.6417,3.6417,3.6417,3.6417,3.6417,3.6417,3.6417,3.6417,3.6417,3.6417,3.6417,3.6417,3.6417,3.6417,3.6417,3.6417,3.6417,3.6417,3.6417,3.6417,3.6417,3.6417,3.6455,3.6417,3.6392,3.6367,3.6031,3.6019,3.6367,3.6069,3.5906,3.5956,3.5633,3.5119,3.4537,3.4336,3.4085,3.3709,3.3483,3.3363,3.33,3.3124,3.3124,3.3124,3.3149,3.3162,3.3124,3.3124,3.3124,3.3124,3.3124,3.3124,3.3124,3.3124,3.3124,3.3124,3.3124,3.3124,3.3124,3.3124,3.3124,3.3124,3.3124,3.3124,3.3124,3.3099,3.3074,3.288,3.2441,3.1989,3.1449,3.0821,3.0331,2.9967,2.9804,2.9804,2.9779,2.9779,2.9779,2.9779,2.9779,2.9779,2.9779,2.9779,2.934,2.8938,2.826,2.7795,2.7632,2.7306,2.7002,2.6826,2.6725,2.66,2.6587,2.6524,2.6487,2.6625,2.6625,2.6487,2.6487,2.66,2.6524,2.6487,2.6487,2.6487,2.6487,2.6487,2.6487,3.6417,3.6417,3.6417,3.6417,3.6417,3.6417,3.6417,3.6417,3.6417,3.6417,3.6417,3.6417,3.6417,3.6417,3.6417,3.6417,3.6417,3.6417,3.6417,3.6417,3.6417,3.6417,3.6417,3.6417,3.6493,3.6505,3.648,3.6543,3.6619,3.6505,3.6417,3.6417,3.6417,3.6417,3.6417,3.6355,3.6194,3.5918,3.5508,3.5002,3.4437,3.3909,3.3608,3.3319,3.3124,3.3124,3.3124,3.3124,3.3124,3.3124,3.3124,3.3124,3.3124,3.3124,3.3124,3.3124,3.3124,3.3124,3.3124,3.3124,3.3124,3.3124,3.3124,3.3124,3.3124,3.3124,3.3124,3.3124,3.3124,3.3124,3.3124,3.3124,3.3099,3.2986,3.2453,3.2026,3.1399,3.0731,3.0319,2.993,2.9842,2.9842,2.9779,2.9779,2.9779,2.9779,2.9779,2.9779,2.9779,2.9779,2.9578,2.9402,2.9063,2.8662,2.8285,2.7821,2.7394,2.7344,2.7231,2.6939,2.6763,2.7002,2.7077,2.6927,2.6889,2.6939,2.6839,2.6889,2.6763,2.6663,2.6499,2.6499,2.6487,2.6487,2.6487,3.6417,3.6417,3.6417,3.6417,3.6417,3.6417,3.6417,3.6417,3.6417,3.6417,3.6417,3.6417,3.6417,3.6417,3.6417,3.6417,3.6417,3.6417,3.6417,3.6417,3.6417,3.6417,3.6518,3.6707,3.6744,3.6782,3.6782,3.6694,3.6769,3.6581,3.6417,3.6417,3.6417,3.6417,3.6417,3.638,3.6329,3.6031,3.5717,3.5207,3.4713,3.4173,3.3596,3.3307,3.3124,3.3124,3.3124,3.3124,3.3124,3.3124,3.3124,3.3124,3.3124,3.3124,3.3124,3.3124,3.3124,3.3124,3.3124,3.3124,3.3124,3.3124,3.3124,3.3124,3.3124,3.3124,3.3124,3.3124,3.3124,3.3124,3.3124,3.3124,3.3099,3.296,3.2566,3.2303,3.1863,3.121,3.0645,3.0306,3.0068,2.9955,2.9779,2.9779,2.9779,2.9779,2.9779,2.9779,2.9779,2.9779,2.9779,2.9704,2.9603,2.9327,2.8863,2.8323,2.7946,2.7896,2.7795,2.7519,2.7482,2.7758,2.7758,2.7469,2.757,2.7708,2.757,2.7291,2.7241,2.7128,2.6688,2.6512,2.6524,2.6587,2.6675]}]]